     2.10           OBSERVATION DATA    G (GPS)             RINEX VERSION / TYPE
teqc 2002Mar14 SOPAC 20050725 21:25:11UTC                   PGM / RUN BY / DATE
Linux 2.0.36|Pentium II|gcc -static|Linux|486/DX+           COMMENT
BIT 2 OF LLI FLAGS DATA COLLECTED UNDER A/S CONDITION       COMMENT
HPGN CA 02 16                                               MARKER NAME
0216                                                        MARKER NUMBER
Steve Shields                                               OBSERVER / AGENCY
0440100458 TRIMBLE 5700                                     REC # / TYPE / VERS
12237016 TRM41249.00 NONE                                   ANT # / TYPE
 -2404910.0000 -4165375.0000  4176900.0000                  APPROX POSITION XYZ
        1.8000        0.0000        0.0000                  ANTENNA: DELTA H/E/N
     1     1                                                WAVELENGTH FACT L1/2
     6    L1    L2    C1    P2    P1    D1                  # / TYPES OF OBSERV
    15.0000                                                 INTERVAL
Northern California Height Modernization 2004               COMMENT
                                                            COMMENT
SOPAC - Scripps Orbit and Permanent Array Center            COMMENT
IGPP - Institute of Geophysics and Planetary Physics        COMMENT
SIO - Scripps Institution of Oceanography                   COMMENT
UCSD - University of California, San Diego                  COMMENT
                                                            COMMENT
email: archive@gpsmail.ucsd.edu                             COMMENT
ftp://garner.ucsd.edu                                       COMMENT
http://sopac.ucsd.edu                                       COMMENT
                                                            COMMENT
                                                            COMMENT
Approximate Lat, Lon : 41.162, -120.000                     COMMENT
                                                            COMMENT
SNR is mapped to RINEX snr flag value [1-9]                 COMMENT
L1: 3 -> 1; 8 -> 5; 40 -> 9                                 COMMENT
L2: 1 -> 1; 5 -> 5; 60 -> 9                                 COMMENT
  2004     9     2    15     0   30.0000000     GPS         TIME OF FIRST OBS
                                                            END OF HEADER
 04  9  2 15  0 30.0000000  0  6G11G14G15G19G22G25
   -373881.19159   -263607.86357  22968444.7114   22968441.3794

   -116368.01659    -83730.39158  20378771.5314   20378768.3364
     45539.94959
     26759.37557                  21847641.4224   21847639.5864
    -47050.03559
    -36413.15257                  22780814.5084   22780809.8054
    -45049.68759
    -35228.75857                  21834863.6954   21834858.9414

   -410780.12959   -286458.09857  23250200.2974   23250198.3754

 04  9  2 15  0 45.0000000  0  6G11G14G15G19G22G25
   -452210.48849   -324643.66847  22953539.6804   22953536.4574
      5221.9534
   -140560.25049   -102581.49248  20374167.9454   20374164.6024
      1612.8164
     55270.90649     34341.91047  21849493.4614   21849491.7344
      -648.7304
    -56664.58249    -43905.02747  22778984.6804   22778980.5394
       640.9704
    -54463.15649    -42563.94947  21833072.1484   21833067.9304
       627.5654
   -497191.02349   -353791.25047  23233756.4924   23233754.8874
      5760.7264
 04  9  2 15  1  0.0000000  0  6G11G14G15G19G22G25
   -530404.62949   -385574.18047  22938659.5234   22938655.8554
      5212.9434
   -164582.27049   -121299.96548  20369596.7114   20369593.3204
      1601.4684
     65149.23849     42039.28547  21851372.7814   21851371.2274
      -658.5554
    -66110.95749    -51265.86747  22777187.2424   22777183.0824
       629.7584
    -63770.25849    -49816.25447  21831301.1484   21831296.9184
       620.4734
   -583501.04749   -421045.79747  23217332.7424   23217330.8094
      5754.0024
 04  9  2 15  1 15.0000000  0  6G11G14G15G19G22G25
   -608460.73849   -446397.13747  22923806.1024   22923802.4344
      5203.7414
   -188431.64849   -139883.90648  20365058.3444   20365055.0394
      1589.9594
     75177.43449     49853.44547  21853281.4304   21853279.6954
      -668.5464
    -75386.94149    -58493.94147  22775422.1414   22775417.8054
       618.3994
    -72968.38349    -56983.64547  21829551.0474   21829546.5204
       613.2084
   -669706.96949   -488219.23047  23200928.0164   23200926.2344
      5747.0614
 04  9  2 15  1 30.0000000  0  7G 1G11G14G15G19G22G25
   -212594.12559   -155669.75456  23998022.9924   23998022.2704

   -686376.37149   -507110.62547  22908978.8364   22908975.6804
      5194.3764
   -212106.53549   -158331.87948  20360553.2584   20360549.8484
      1578.3264
     85357.18849     57785.69947  21855218.4534   21855217.0864
      -678.6504
    -84490.77049    -65587.85547  22773689.9384   22773685.2504
       606.9224
    -82055.55549    -64064.56647  21827821.3284   21827816.9344
       605.8114
   -755806.43449   -555309.72347  23184544.1024   23184542.0204
      5739.9644
 04  9  2 15  1 45.0000000  0  7G 1G11G14G15G19G22G25
   -298128.25849   -222319.67646  23981747.7274   23981745.4844
      5702.2764
   -764156.40649   -567718.44947  22894177.6094   22894174.4384
      5185.3364
   -235612.14849   -176647.95348  20356080.3984   20356076.8134
      1567.0414
     95683.26649     65831.96147  21857183.6644   21857182.1764
      -688.4054
    -93427.82449    -72551.82847  22771989.3054   22771984.7974
       595.8044
    -91037.01249    -71063.13347  21826112.3914   21826107.9344
       598.7644
   -841804.25849   -622321.00047  23168178.9384   23168177.0514
      5733.1884
 04  9  2 15  2  0.0000000  0  7G 1G11G14G15G19G22G25
   -383561.17649   -288890.84046  23965489.2584   23965488.4304
      5695.5284
   -841804.32849   -628223.32447  22879402.0634   22879398.6214
      5176.5284
   -258952.55549   -194835.29348  20351638.4844   20351635.3754
      1556.0274
    106151.54349     73989.03547  21859175.4454   21859173.9344
      -697.8854
   -102202.27749    -79389.09447  22770319.6024   22770314.8984
       584.9644
    -99916.39849    -77982.14847  21824422.7894   21824418.3364
       591.9594
   -927704.08649   -689255.91447  23151832.9694   23151831.5354
      5726.6554
 04  9  2 15  2 15.0000000  0  7G 1G11G14G15G19G22G25
   -468895.93449   -355385.44947  23949251.3524   23949249.2234
      5688.9844
   -919323.18749   -688627.63747  22864650.8134   22864647.4224
      5167.9244
   -282131.29749   -212896.65248  20347227.8914   20347224.4654
      1545.2494
    116758.43449     82254.12547  21861194.0164   21861192.8634
      -707.1264
   -110817.73449    -86102.45747  22768679.6334   22768675.9494
       574.3644
   -108697.23449    -84824.37947  21822751.5474   21822747.2774
       585.3894
  -1013508.80149   -756116.71147  23135504.3674   23135503.4024
      5720.3144
 04  9  2 15  2 30.0000000  0  7G 1G11G14G15G19G22G25
   -554135.10249   -421805.57847  23933030.2424   23933029.4884
      5682.6114
   -996715.47349   -748933.31247  22849923.3834   22849920.2734
      5159.4864
   -305151.28149   -230834.32048  20342847.3594   20342843.9654
      1534.6664
    127501.02749     90624.94947  21863238.3524   21863236.8444
      -716.1734
   -119277.19949    -92694.27747  22767070.3364   22767065.7384
       563.9644
   -117382.11349    -91591.83647  21821099.1724   21821094.5704
       578.9924
  -1099220.64149   -822905.13347  23119194.5164   23119193.0904
      5714.1234
 04  9  2 15  2 45.0000000  0  7G 1G11G14G15G19G22G25
   -639283.10549   -488154.68047  23916827.1484   23916826.4264
      5676.5344
  -1073985.50449   -809143.73047  22835219.2814   22835216.1294
      5151.3354
   -328017.38749   -248652.07448  20338495.8984   20338492.7934
      1524.4074
    138374.47749     99097.73847  21865307.6564   21865305.9064
      -724.8974
   -127585.62949    -99168.39847  22765488.8834   22765485.1134
       553.8954
   -125975.60549    -98288.08247  21819463.8054   21819459.5474
       572.8994
  -1184843.93749   -889624.56647  23102900.5634   23102899.2194
      5708.2204
 04  9  2 15  3  0.0000000  0  7G 1G11G14G15G19G22G25
   -724340.10249   -554432.86747  23900641.4224   23900640.0554
      5670.4664
  -1151133.20349   -869258.82447  22820538.7194   22820535.1454
      5143.1804
   -350729.99249   -266350.21948  20334174.2274   20334170.9414
      1514.1744
    149378.23449    107672.06647  21867401.5234   21867400.0634
      -733.5844
   -135743.59449   -105525.28147  22763936.9694   22763932.2544
       543.8644
   -134478.02049   -104913.35947  21817845.7424   21817841.6294
       566.8284
  -1270378.68749   -956275.01647  23086623.6564   23086622.2274
      5702.3174
 04  9  2 15  3 15.0000000  0  7G 1G11G14G15G19G22G25
   -809308.40649   -620641.92246  23884473.5704   23884471.3014
      5664.5544
  -1228160.80549   -929280.34047  22805881.0474   22805877.2974
      5135.1734
   -373291.74249   -283930.81648  20329880.4304   20329877.3204
      1504.1174
    160509.57049    116345.80547  21869519.6724   21869518.0704
      -742.0894
   -143753.93449   -111767.12947  22762412.0164   22762408.1994
       534.0234
   -142891.97749   -111469.70747  21816244.8914   21816240.5634
       560.9304
  -1355826.89849  -1022858.00847  23070363.9454   23070362.3714
      5696.5474
 04  9  2 15  3 30.0000000  0  7G 1G11G14G15G19G22G25
   -894189.76649   -686783.24646  23868320.2584   23868319.2274
      5658.7574
  -1305069.78949   -989209.43047  22791245.7344   22791242.2664
      5127.2664
   -395704.75849   -301395.51248  20325615.9064   20325612.3594
      1494.2014
    171766.43849    125117.35947  21871662.0164   21871660.4774
      -750.4584
   -151618.88349   -117895.68447  22760916.0554   22760911.6844
       524.3304
   -151219.27749   -117958.53147  21814659.9384   21814655.7074
       555.1534
  -1441190.33249  -1089374.94547  23054119.2424   23054117.9774
      5690.8964
 04  9  2 15  3 45.0000000  0  7G 1G11G14G15G19G22G25
   -978987.98849   -752859.73846  23852183.2504   23852182.5124
      5653.2154
  -1381863.97349  -1049049.05147  22776631.9224   22776628.8794
      5119.6124
   -417973.26249   -318747.60248  20321377.9534   20321374.8754
      1484.5674
    183144.54749    133983.37947  21873827.1954   21873825.7344
      -758.5414
   -159342.73049   -123914.29747  22759446.1094   22759441.8594
       514.9234
   -159464.04349   -124383.04347  21813091.4924   21813087.0514
       549.6514
  -1526472.60249  -1155828.64847  23037891.1094   23037889.4344
      5685.4854
 04  9  2 15  4  0.0000000  0  7G 1G11G14G15G19G22G25
  -1063701.90649   -818870.61746  23836063.5004   23836061.7974
      5647.5954
  -1458542.11749  -1108798.26247  22762040.4224   22762037.2854
      5111.8764
   -440096.43449   -335986.45348  20317168.2734   20317164.9964
      1474.8784
    194644.71549    142944.52347  21876015.5164   21876014.0744
      -766.6784
   -166924.71949   -129822.36347  22758003.2274   22757998.8634
       505.4664
   -167625.24649   -130742.44947  21811538.0704   21811533.8634
       544.0804
  -1611672.35549  -1222218.05147  23021677.6564   23021676.2584
      5679.9844
 04  9  2 15  4 15.0000000  0  7G 1G11G14G15G19G22G25
  -1148331.27049   -884815.57047  23819959.1644   23819957.6094
      5641.9584
  -1535103.76649  -1168456.69947  22747471.6644   22747468.1804
      5104.1104
   -462074.46949   -353112.19948  20312985.7114   20312982.8094
      1465.2024
    206266.72749    152000.60547  21878227.0314   21878225.9304
      -774.8014
   -174365.10949   -135620.09847  22756587.6724   22756583.4184
       496.0264
   -175702.75049   -137036.62547  21810001.1484   21809996.7894
       538.5004
  -1696789.08249  -1288542.76247  23005481.1174   23005479.4414
      5674.4484
 04  9  2 15  4 30.0000000  0  7G 1G11G14G15G19G22G25
  -1232879.40249   -950697.23046  23803870.7504   23803868.3094
      5636.5424
  -1611552.09849  -1228026.82447  22732923.4144   22732920.4924
      5096.5554
   -483910.86349   -370127.58248  20308830.7814   20308827.3524
      1455.7604
    218006.95749    161148.80547  21880461.2664   21880459.7584
      -782.6824
   -181667.74649   -141310.48447  22755197.9534   22755193.7774
       486.8424
   -183700.10549   -143268.35247  21808479.3284   21808475.0204
       533.1574
  -1781825.83249  -1354805.14847  22989298.6254   22989297.5984
      5669.1174
 04  9  2 15  4 45.0000000  0  7G 1G11G14G15G19G22G25
  -1317347.25449  -1016516.34446  23787795.9844   23787794.8324
      5631.1904
  -1687887.97749  -1287509.34047  22718397.7504   22718394.0234
      5089.0594
   -505607.09049   -387033.73848  20304701.8754   20304698.8444
      1446.4154
    229864.06649    170388.07847  21882717.4774   21882716.0044
      -790.4744
   -188834.21949   -146894.77047  22753834.1094   22753829.8754
       477.7654
   -191618.47749   -149438.52747  21806972.5704   21806968.1884
       527.8914
  -1866783.45749  -1421005.87947  22973131.3674   22973130.6684
      5663.8424
 04  9  2 15  5  0.0000000  0  7G 1G11G14G15G19G22G25
  -1401735.86749  -1082273.68446  23771737.0784   23771736.3634
      5625.9084
  -1764112.25849  -1346904.87547  22703892.8364   22703889.0904
      5081.6194
   -527164.50049   -403831.73448  20300599.6254   20300596.6214
      1437.1614
    241836.53949    179717.25447  21884996.2274   21884994.2384
      -798.1654
   -195865.79749   -152373.94947  22752496.1334   22752492.2194
       468.7724
   -199459.09849   -155548.12547  21805480.8674   21805476.1024
       522.7084
  -1951662.76249  -1487145.58247  22956980.2974   22956978.5514
      5658.6204
 04  9  2 15  5 15.0000000  0  7G 1G11G14G15G19G22G25
  -1486046.71949  -1147970.44946  23755693.3754   23755692.8164
      5620.7234
  -1840226.29749  -1406214.52747  22689408.6564   22689405.1724
      5074.2694
   -548585.07049   -420523.09448  20296523.6564   20296520.1764
      1428.0384
    253922.43049    189134.80947  21887295.8914   21887294.0204
      -805.7264
   -202764.56649   -157749.64147  22751183.1024   22751178.9414
       459.9184
   -207223.57049   -161598.38347  21804002.8444   21803998.3914
       517.6324
  -2036465.13749  -1553225.33647  22940842.6484   22940841.3164
      5653.4924
 04  9  2 15  5 30.0000000  0  7G 1G11G14G15G19G22G25
  -1570279.69949  -1213606.55146  23739664.3524   23739663.5394
      5615.5324
  -1916229.75049  -1465438.00047  22674945.7894   22674942.1294
      5066.8974
   -569868.88349   -437107.89148  20292473.1954   20292470.0744
      1418.9214
    266121.52749    198640.57847  21889617.0864   21889615.6724
      -813.2734
   -209530.83249   -163022.08247  22749895.6414   22749891.4264
       451.0844
   -214911.94549   -167589.34447  21802540.0394   21802535.5084
       512.5584
  -2121190.20349  -1619244.84847  22924720.0234   22924718.4494
      5648.3384
 04  9  2 15  5 45.0000000  0  7G 1G11G14G15G19G22G25
  -1654440.61749  -1279186.46547  23723649.6644   23723648.8164
      5610.7284
  -1992128.43749  -1524579.83247  22660502.8054   22660499.5984
      5059.9134
   -591022.16849   -453590.97348  20288448.3594   20288445.0004
      1410.2194
    278427.55549    208229.66447  21891959.0084   21891957.6954
      -820.4024
   -216170.96549   -168196.23847  22748632.5234   22748628.3594
       442.6764
   -222530.26249   -173525.71147  21801090.2664   21801086.1054
       507.8884
  -2205843.56649  -1685208.49247  22908610.7034   22908609.0314
      5643.5584
 04  9  2 15  6  0.0000000  0  7G 1G11G14G15G19G22G25
  -1738527.31249  -1344708.55546  23707648.5634   23707646.7704
      5605.7804
  -2067920.16449  -1583638.34047  22646080.4224   22646076.9694
      5052.7824
   -612043.02049   -469970.87148  20284447.7274   20284444.6094
      1401.3904
    290842.26249    217903.44147  21894321.5084   21894319.6094
      -827.6474
   -222683.22349   -173270.74647  22747392.6414   22747388.9614
       434.1514
   -230076.56649   -179405.96947  21799654.4064   21799650.1414
       503.0874
  -2290422.98049  -1751114.50447  22892515.2664   22892513.6564
      5638.6284
 04  9  2 15  6 15.0000000  0  7G 1G11G14G15G19G22G25
  -1822538.23049  -1410171.61346  23691661.2274   23691659.8594
      5600.7284
  -2143603.27749  -1642612.19547  22631678.0704   22631674.6644
      5045.5414
   -632930.53149   -486246.85948  20280472.9614   20280469.8134
      1392.5014
    303366.75449    227662.75847  21896704.6334   21896703.3914
      -834.9664
   -229066.68049   -178244.89547  22746177.6254   22746173.9804
       425.5644
   -237549.50849   -185229.05947  21798232.4144   21798228.0984
       498.1964
  -2374926.73849  -1816961.57847  22876435.3524   22876432.9804
      5633.5844
 04  9  2 15  6 29.9990000  0  7G 1G11G14G15G19G22G25
  -1906471.68749  -1475574.30947  23675689.7144   23675687.9404
      5595.5644
  -2219176.43049  -1701500.36347  22617296.8004   22617293.5694
      5038.2104
   -653687.43749   -502421.08248  20276523.4564   20276519.8124
      1383.7944
    315995.91849    237503.64847  21899108.1124   21899106.3354
      -841.9444
   -235325.25449   -183121.72747  22744987.0654   22744983.0624
       417.2384
   -244952.68449   -190997.78947  21796823.7534   21796819.4604
       493.5454
  -2459352.93449  -1882748.19547  22860368.9874   22860367.4834
      5628.4134
 04  9  2 15  6 44.9990000  0  7G 1G11G14G15G19G22G25
  -1990338.92249  -1540925.38746  23659730.3234   23659728.5464
      5591.1494
  -2294649.62149  -1760310.65247  22602935.0194   22602931.4094
      5031.5464
   -674316.89149   -518495.98848  20272597.3154   20272594.2574
      1375.2974
    328731.02349    247427.08247  21901531.3704   21901530.1674
      -849.0074
   -241460.23849   -187902.27047  22743819.6834   22743815.8354
       408.9994
   -252287.21949   -196713.03547  21795428.1984   21795423.4014
       488.9694
  -2543712.62549  -1948483.00047  22844315.8624   22844314.7304
      5623.9794
 04  9  2 15  6 59.9990000  0  7G 1G11G14G15G19G22G25
  -2074133.87549  -1606220.15646  23643784.9724   23643782.4564
      5586.3304
  -2370016.96549  -1819038.44547  22588593.1904   22588589.7654
      5024.4904
   -694817.32849   -534470.35948  20268696.3234   20268693.3864
      1366.6964
    341571.27049    257432.44147  21903974.8944   21903973.0854
      -856.0164
   -247471.18749   -192586.14547  22742675.9254   22742671.8124
       400.7304
   -259552.27749   -202374.13747  21794045.4874   21794041.1084
       484.3374
  -2627999.39149  -2014160.98447  22828276.5194   22828275.0974
      5619.1184
 04  9  2 15  7 14.9990000  0  7G 1G11G14G15G19G22G25
  -2157863.59849  -1671464.09846  23627850.7614   23627849.9254
      5581.9824
  -2445285.59849  -1877689.33647  22574269.6514   22574266.6014
      5017.9094
   -715196.23049   -550350.03948  20264818.4564   20264815.5114
      1358.5934
    354509.27049    267513.98047  21906436.7534   21906434.8514
      -862.5334
   -253365.69549   -197179.29747  22741554.4644   22741550.2694
       392.9674
   -266755.12149   -207986.75847  21792674.8234   21792670.3824
       480.1904
  -2712220.08649  -2079787.47747  22812250.8004   22812248.6124
      5614.7134
 04  9  2 15  7 29.9990000  0  7G 1G11G14G15G19G22G25
  -2241523.80549  -1736653.87946  23611931.0504   23611929.3944
      5577.3474
  -2520451.08649  -1936259.85547  22559966.4724   22559963.1944
      5011.0334
   -735449.70349   -566131.97748  20260964.4724   20260961.4874
      1350.2324
    367548.83649    277674.64847  21908918.4804   21908916.7454
      -869.3044
   -259139.98049   -201678.77047  22740456.0114   22740450.8194
       384.9524
   -273891.68449   -213547.73847  21791316.6054   21791312.2374
       475.7714
  -2796370.31249  -2145359.06247  22796236.6904   22796235.3904
      5610.0154
 04  9  2 15  7 44.9990000  0  7G 1G11G14G15G19G22G25
  -2325114.49649  -1801789.44546  23596024.0114   23596023.0654
      5572.7134
  -2595513.27349  -1994749.86347  22545682.8084   22545679.3084
      5004.1464
   -755578.11749   -581816.46148  20257134.0264   20257130.9294
      1341.8944
    380689.51649    287914.10947  21911418.7694   21911417.1554
      -876.0454
   -264794.51249   -206084.93047  22739379.2144   22739375.5424
       376.9694
   -280962.11349   -219057.18447  21789971.1364   21789966.9914
       471.3624
  -2880449.90649  -2210875.61347  22780236.6444   22780235.7534
      5605.3064
 04  9  2 15  7 59.9990000  0  7G 1G11G14G15G19G22G25
  -2408636.35249  -1866871.43447  23580130.3474   23580129.1124
      5568.1244
  -2670472.79349  -2053159.88747  22531417.9724   22531414.7414
      4997.3014
   -775582.58649   -597404.36748  20253327.3474   20253324.1944
      1333.6314
    393930.26649    298231.55147  21913938.6054   21913936.6554
      -882.7174
   -270330.46149   -210398.68047  22738325.6364   22738322.0424
       369.0634
   -287967.31649   -224515.80147  21788638.2614   21788633.8084
       467.0144
  -2964459.38349  -2276337.52347  22764250.4564   22764249.6084
      5600.6324
 04  9  2 15  8 14.9990000  0  7G 1G11G14G15G19G22G25
  -2492089.89549  -1931900.17247  23564249.9094   23564249.0654
      5563.5704
  -2745330.01649  -2111490.19147  22517173.2304   22517169.6634
      4990.4824
   -795463.94549   -612896.34048  20249543.7764   20249540.9684
      1325.4244
    407270.14549    308626.23047  21916477.4014   21916475.5304
      -889.3254
   -275748.85549   -214620.82847  22737294.8944   22737290.8434
       361.2264
   -294907.87949   -229924.05147  21787317.4644   21787313.3354
       462.7044
  -3048399.12949  -2341745.10247  22748277.6054   22748275.9094
      5595.9834
 04  9  2 15  8 29.9990000  0  7G 1G11G14G15G19G22G25
  -2575474.81649  -1996875.42247  23548381.5974   23548381.0194
      5558.9954
  -2820084.38349  -2169740.34447  22502947.9954   22502944.9724
      4983.6244
   -815222.18749   -628292.37548  20245784.4014   20245780.9874
      1317.2164
    420709.00849    319098.03947  21919034.3474   21919033.0424
      -895.9244
   -281049.86749   -218751.51647  22736286.1364   22736282.0264
       353.4014
   -301783.80549   -235281.93447  21786009.0504   21786004.9404
       458.3954
  -3132268.66849  -2407097.96947  22732317.6594   22732316.4954
      5591.3034
 04  9  2 15  8 44.9990000  0  7G 1G11G14G15G19G22G25
  -2658792.59449  -2061798.36747  23532527.6594   23532526.2764
      5554.5184
  -2894737.35949  -2227911.48847  22488741.7924   22488738.2764
      4976.8654
   -834859.06649   -643593.84848  20242047.3084   20242044.2264
      1309.1254
    434244.99249    329645.53547  21921610.4954   21921608.6634
      -902.3994
   -286235.58249   -222792.35947  22735299.4334   22735295.0654
       345.7144
   -308596.63349   -240590.64547  21784712.7764   21784708.2414
       454.1894
  -3216069.23449  -2472397.08647  22716370.8624   22716369.6164
      5586.7044
 04  9  2 15  8 59.9990000  0  7G 1G11G14G15G19G22G25
  -2742047.41449  -2126672.25047  23516684.3084   23516683.4684
      5550.3214
  -2969292.96949  -2286006.77347  22474554.6674   22474551.1204
      4970.3744
   -854379.34049   -658804.45748  20238332.9564   20238329.9874
      1301.3524
    447873.60249    340265.19547  21924203.5734   21924201.9214
      -908.5744
   -291310.69149   -226747.02747  22734333.6444   22734329.5974
       338.3414
   -315350.74249   -245853.60547  21783427.3394   21783423.2144
       450.2744
  -3299804.81249  -2537645.57447  22700436.2064   22700435.0734
      5582.3724
 04  9  2 15  9 14.9990000  0  7G 1G11G14G15G19G22G25
  -2825237.31649  -2191495.55147  23500854.2924   23500852.7924
      5545.9934
  -3043749.03549  -2344024.49647  22460386.0654   22460382.4914
      4963.7384
   -873781.30949   -673922.87548  20234640.6984   20234637.3434
      1293.4654
    461596.40649    350958.26647  21926815.2764   21926813.6474
      -914.8544
   -296273.52349   -230614.19547  22733389.3084   22733384.9914
       330.8554
   -322044.32849   -251069.40647  21782153.7614   21782149.1514
       446.2394
  -3383473.13749  -2602841.65647  22684515.0344   22684513.6874
      5577.8884
 04  9  2 15  9 29.9990000  0  7G 1G11G14G15G19G22G25
  -2908359.20349  -2256265.86346  23485036.5344   23485035.6164
      5541.4594
  -3118102.32049  -2401962.12547  22446237.0894   22446233.6324
      4956.8864
   -893062.16049   -688946.92248  20230971.8784   20230968.7264
      1285.3904
    475416.05949    361726.79747  21929444.8624   21929443.5194
      -921.3104
   -301121.48049   -234391.85247  22732467.0584   22732463.2494
       323.1974
   -328674.34849   -256235.68047  21780892.0654   21780887.7494
       442.0014
  -3467071.02749  -2667982.84047  22668606.6984   22668605.1404
      5573.1934
 04  9  2 15  9 44.9990000  0  7G 1G11G14G15G19G22G25
  -2991415.38749  -2320984.96547  23469230.9014   23469230.3904
      5537.0794
  -3192355.07449  -2459821.41047  22432107.1594   22432103.8434
      4950.1844
   -912224.62149   -703878.71548  20227325.3624   20227322.1474
      1277.4974
    489329.81649    372568.65247  21932092.8784   21932091.0694
      -927.5844
   -305857.43049   -238082.22747  22731565.6284   22731561.6244
       315.7304
   -335243.46149   -261354.48047  21779641.9804   21779637.6204
       437.9414
  -3550600.64549  -2733070.83247  22652711.8704   22652710.1674
      5568.6414
 04  9  2 15  9 59.9990000  0  7G 1G11G14G15G19G22G25
  -3074408.07449  -2385654.57847  23453437.4724   23453437.5264
      5532.8464
  -3266509.39549  -2517603.99647  22417996.0734   22417993.1404
      4943.6214
   -931271.27749   -718720.27048  20223700.8624   20223697.8904
      1269.7774
    503335.09849    383481.84047  21934758.1514   21934756.1284
      -933.6854
   -310484.00049   -241687.36747  22730685.2844   22730681.2494
       308.4384
   -341754.00849   -266427.65647  21778403.2924   21778398.5934
       434.0364
  -3634064.00049  -2798107.20347  22636828.8704   22636827.4764
      5564.2244
 04  9  2 15 10 14.9990000  0  7G 1G11G14G15G19G22G25
  -3157336.41449  -2450274.07047  23437657.3944   23437657.1904
      5528.5564
  -3340564.21549  -2575309.05547  22403903.8154   22403900.9954
      4936.9884
   -950201.66049   -733471.22348  20220098.4254   20220095.3944
      1262.0264
    517432.35949    394466.68847  21937440.1674   21937438.8554
      -939.8174
   -315000.87949   -245207.03547  22729825.7844   22729821.7184
       301.1254
   -348205.32449   -271454.66847  21777175.4724   21777171.0074
       430.0884
  -3717460.06249  -2863091.14147  22620959.1514   22620957.7264
      5559.7384
 04  9  2 15 10 29.9990000  0  7G 1G11G14G15G19G22G25
  -3240200.99649  -2514843.86347  23421889.1364   23421887.8474
      5524.3054
  -3414520.08249  -2632936.99647  22389830.2144   22389827.2804
      4930.3914
   -969016.80949   -748132.38348  20216518.3474   20216514.8154
      1254.3434
    531620.50449    405522.35247  21940140.4404   21940139.1984
      -945.8764
   -319409.10949   -248642.05147  22728987.0264   22728982.8434
       293.8824
   -354598.22749   -276436.16847  21775958.5814   21775954.4484
       426.1934
  -3800789.11349  -2928022.85247  22605102.6594   22605100.6634
      5555.2704
 04  9  2 15 10 44.9990000  0  7G 1G11G14G15G19G22G25
  -3323001.04749  -2579363.38347  23406133.2374   23406132.2964
      5520.0034
  -3488376.07049  -2690487.10947  22375775.9174   22375773.3154
      4923.7334
   -987716.20749   -762703.34848  20212959.6984   20212956.0734
      1246.6274
    545899.98049    416649.18847  21942858.0034   21942856.3904
      -951.9654
   -323708.42649   -251992.19547  22728168.9564   22728164.7884
       286.6214
   -360931.96149   -281371.56647  21774753.6444   21774749.1324
       422.2494
  -3884050.21549  -2992901.60947  22589258.1514   22589256.6904
      5550.7404
 04  9  2 15 10 59.9990000  0  7G 1G11G14G15G19G22G25
  -3405737.53149  -2643833.37547  23390388.3944   23390387.8124
      5515.7664
  -3562132.97349  -2747960.01247  22361740.7374   22361737.3904
      4917.1274
  -1006301.18749   -777185.15648  20209423.1284   20209419.7334
      1238.9994
    560269.36349    427846.08647  21945592.1364   21945590.7804
      -957.9594
   -327900.33649   -255258.64847  22727370.9334   22727366.9564
       279.4614
   -367207.70349   -286261.77747  21773559.5584   21773555.0974
       418.3834
  -3967244.00849  -3057727.92647  22573427.3154   22573425.7264
      5546.2534
 04  9  2 15 11 14.9990000  0  7G 1G11G14G15G19G22G25
  -3488407.85249  -2708251.81247  23374656.6754   23374655.2414
      5511.3554
  -3635788.09049  -2805353.61747  22347724.5584   22347721.3354
      4910.3414
  -1024769.55549   -791576.09848  20205908.8234   20205905.4524
      1231.2244
    574730.79349    439114.70747  21948344.0194   21948342.9374
      -964.0954
   -331982.77049   -258439.79747  22726594.5654   22726589.9874
       272.1624
   -373423.10949   -291104.96547  21772376.8154   21772372.2064
       414.3604
  -4050367.89149  -3122499.75847  22557609.1674   22557607.7064
      5541.5924
 04  9  2 15 11 29.9990000  0  7G 1G11G14G15G19G22G25
  -3571017.09449  -2772622.65247  23358936.3704   23358935.2184
      5507.2834
  -3709346.32449  -2862671.71947  22333727.0194   22333723.3784
      4903.8824
  -1043126.73449   -805880.39848  20202415.3154   20202412.3514
      1223.8124
    589278.87549    450450.84047  21951112.5974   21951111.2654
      -969.8724
   -335961.24649   -261539.91447  22725837.4334   22725833.0544
       265.2324
   -379583.31249   -295905.13347  21771204.4094   21771200.2844
       410.6804
  -4133426.69549  -3187220.89547  22541803.5424   22541801.9214
      5537.2544
 04  9  2 15 11 44.9990000  0  7G 1G11G14G15G19G22G25
  -3653562.67649  -2836943.88747  23343228.8154   23343227.8314
      5503.0394
  -3782804.97349  -2919912.23047  22319748.7924   22319744.6674
      4897.2434
  -1061370.47749   -820096.30948  20198943.7614   20198940.6834
      1216.2494
    603915.78149    461856.18847  21953897.9014   21953896.3974
      -975.7944
   -339833.73449   -264557.46547  22725100.0264   22725096.3514
       258.1664
   -385685.92649   -300660.43747  21770043.1834   21770038.8704
       406.8414
  -4216417.59449  -3251889.09847  22526011.1904   22526009.0584
      5532.7274
 04  9  2 15 11 59.9990000  0  7G 1G11G14G15G19G22G25
  -3736044.23049  -2901215.19146  23327533.4094   23327531.7964
      5498.7704
  -3856163.46149  -2977074.69547  22305788.8944   22305785.1444
      4890.5664
  -1079500.89149   -834223.91048  20195493.6124   20195490.5504
      1208.6944
    618641.39549    473330.66047  21956700.0114   21956698.6474
      -981.7084
   -343600.40249   -267492.55947  22724383.8704   22724379.9054
       251.1114
   -391730.69149   -305370.66447  21768893.0264   21768888.7964
       402.9844
  -4299340.22349  -3316504.12547  22510231.3554   22510229.5894
      5528.1754
 04  9  2 15 12 14.9990000  0  7G 1G11G14G15G19G22G25
  -3818461.62949  -2965436.57847  23311849.9014   23311848.3514
      5494.4934
  -3929421.56249  -3034158.92647  22291847.9484   22291844.5074
      4883.8734
  -1097518.14849   -848263.33248  20192065.2144   20192061.7374
      1201.1514
    633455.50449    484874.09047  21959519.2844   21959517.7414
      -987.6074
   -347261.45349   -270345.35247  22723686.9724   22723682.9014
       244.0704
   -397717.73449   -310035.90247  21767753.8084   21767749.3274
       399.1364
  -4382194.18749  -3381065.62947  22494464.7144   22494463.2654
      5523.5984
 04  9  2 15 12 29.9990000  0  7G 1G11G14G15G19G22G25
  -3900813.94949  -3029607.21547  23296178.6054   23296177.4404
      5490.1554
  -4002578.31649  -3091164.18747  22277926.5114   22277923.3234
      4877.1174
  -1115421.66849   -862214.14148  20188658.2304   20188655.0194
      1193.5684
    648358.59849    496486.85547  21962355.0424   21962353.6874
      -993.5404
   -350816.49249   -273115.53547  22723010.4484   22723006.6874
       237.0034
   -403646.28549   -314655.57447  21766625.7304   21766621.1904
       395.2374
  -4464978.23449  -3445572.66847  22478711.3314   22478710.0074
      5518.9364
 04  9  2 15 12 44.9990000  0  7G 1G11G14G15G19G22G25
  -3983104.20749  -3093729.48847  23280519.0034   23280518.2574
      5486.0174
  -4075636.62949  -3148092.73847  22264024.5344   22264021.2144
      4870.5544
  -1133214.80149   -876078.92248  20185272.2924   20185269.4954
      1186.2094
    663347.20349    508166.25447  21965207.0974   21965205.9724
      -999.2404
   -354269.05149   -275805.86747  22722353.7924   22722349.7694
       230.1714
   -409519.55549   -319232.16047  21765507.9564   21765503.7454
       391.5514
  -4547695.26249  -3510027.48047  22462970.6594   22462969.4174
      5514.4684
 04  9  2 15 12 59.9990000  0  7G 1G11G14G15G19G22G25
  -4065334.10949  -3157804.74247  23264871.4404   23264870.6054
      5481.9934
  -4148598.11349  -3204945.84447  22250139.9254   22250136.7414
      4864.0994
  -1150899.74649   -889859.40648  20181906.8864   20181903.9524
      1178.9964
    678419.24649    519910.68047  21968075.5344   21968074.1944
     -1004.8034
   -357621.32849   -278418.05947  22721715.5734   22721711.7024
       223.4854
   -415339.46549   -323767.16847  21764400.3784   21764396.1014
       387.9944
  -4630346.87149  -3574431.31647  22447242.7764   22447241.0934
      5510.1074
 04  9  2 15 13 14.9990000  0  7G 1G11G14G15G19G22G25
  -4147500.15249  -3221830.22747  23249235.4174   23249234.8354
      5477.7364
  -4221458.95749  -3261720.52747  22236275.4724   22236271.6794
      4857.3904
  -1168473.26649   -903553.06248  20178563.0194   20178559.7494
      1171.5684
    693577.93849    531722.61347  21970960.1834   21970958.9094
     -1010.5794
   -360870.27049   -280949.73047  22721097.5194   22721093.5974
       216.5964
   -421102.57049   -328257.91447  21763303.5344   21763299.4804
       384.2074
  -4712929.28549  -3638781.23047  22431527.8394   22431526.3904
      5505.4944
 04  9  2 15 13 29.9990000  0  7G 1G11G14G15G19G22G25
  -4229604.17249  -3285807.37147  23233611.6834   23233610.8044
      5473.6014
  -4294220.93049  -3318418.17247  22222429.0344   22222425.4684
      4850.7984
  -1185937.55949   -917161.61348  20175239.3394   20175236.4294
      1164.2864
    708820.91449    543600.23047  21973860.6514   21973859.5344
     -1016.1984
   -364018.30549   -283402.77047  22720497.8704   22720494.0224
       209.8694
   -426810.98049   -332706.05147  21762217.3624   21762213.4374
       380.5614
  -4795444.18049  -3703078.52347  22415825.6984   22415824.1164
      5500.9934
 04  9  2 15 13 44.9990000  0  7G 1G11G14G15G19G22G25
  -4311646.78149  -3349736.66447  23217999.6054   23217998.5464
      5469.5074
  -4366884.40249  -3375039.06247  22208601.3944   22208598.2064
      4844.2324
  -1203293.47749   -930685.71548  20171936.8154   20171933.4684
      1157.0614
    724147.24649    555542.78947  21976777.3004   21976776.0894
     -1021.7554
   -367066.46949   -285777.99647  22719917.9874   22719914.2844
       203.2114
   -432465.31249   -337112.03947  21761141.2454   21761137.1124
       376.9554
  -4877891.74249  -3767323.36747  22400136.6984   22400134.6204
      5496.5044
 04  9  2 15 13 59.9990000  0  7G 1G11G14G15G19G22G25
  -4393627.73449  -3413617.90247  23202398.9954   23202397.7764
      5465.3974
  -4439449.06249  -3431582.95347  22194793.2304   22194789.8004
      4837.6444
  -1220541.26649   -944125.55548  20168654.4564   20168651.4174
      1149.8534
    739556.73849    567550.14847  21979709.7844   21979708.5384
     -1027.2994
   -370015.07849   -288075.63747  22719357.2614   22719353.4914
       196.5744
   -438065.56249   -341475.88747  21760075.6364   21760071.5734
       373.3504
  -4960271.77349  -3831515.59447  22384459.8394   22384458.6284
      5492.0024
 04  9  2 15 14 14.9990000  0  7G 1G11G14G15G19G22G25
  -4475546.21549  -3477450.48047  23186810.5034   23186809.5584
      5461.2324
  -4511913.96149  -3488049.11347  22181003.4804   22180999.4684
      4830.9934
  -1237680.49249   -957480.79748  20165393.2064   20165389.9994
      1142.6154
    755049.82449    579622.65247  21982657.8624   21982656.6794
     -1032.8724
   -372863.77749   -290295.43447  22718815.3944   22718811.4174
       189.9134
   -443610.98449   -345797.01247  21759020.7064   21759016.4054
       369.6954
  -5042583.26249  -3895654.38747  22368796.4954   22368795.2224
      5487.4334
 04  9  2 15 14 29.9990000  0  7G 1G11G14G15G19G22G25
  -4557401.39149  -3541233.72747  23171234.4174   23171232.7064
      5457.0124
  -4584278.13749  -3544436.78147  22167233.1284   22167229.4014
      4824.2784
  -1254710.64849   -970751.05948  20162152.6754   20162149.2724
      1135.3444
    770626.89149    591760.59447  21985622.3004   21985621.1124
     -1038.4714
   -375612.23849   -292437.12547  22718292.0974   22718288.6244
       183.2314
   -449100.95349   -350074.92647  21757976.0654   21757971.4294
       365.9984
  -5124825.10949  -3959738.93447  22353146.8474   22353144.8944
      5482.7904
 04  9  2 15 14 44.9990000  0  7G 1G11G14G15G19G22G25
  -4639194.54349  -3604968.64847  23155669.1834   23155668.1944
      5452.8774
  -4656542.82849  -3600746.93747  22153481.5194   22153478.2024
      4817.6464
  -1271633.44149   -983937.65248  20158932.1444   20158928.9484
      1128.1864
    786286.23849    603962.65647  21988602.2614   21988600.6444
     -1043.9574
   -378262.22749   -294502.08647  22717787.8154   22717784.1014
       176.6664
   -454537.00849   -354310.82447  21756941.2764   21756937.2224
       362.4044
  -5206998.44549  -4023770.08247  22337509.3154   22337507.9334
      5478.2224
 04  9  2 15 14 59.9990000  0  7G 1G11G14G15G19G22G25
  -4720925.75849  -3668655.29347  23140116.6054   23140115.1124
      5448.7484
  -4728707.91449  -3656979.46947  22139748.8154   22139745.2964
      4811.0064
  -1288449.25049   -997040.89548  20155732.4404   20155728.9564
      1121.0544
    802027.44149    616228.48847  21991597.7304   21991596.5654
     -1049.4144
   -380814.30949   -296490.75447  22717302.5194   22717298.8194
       170.1394
   -459919.22349   -358504.77747  21755917.1594   21755913.1714
       358.8144
  -5289103.07049  -4087747.69947  22321885.3784   22321883.5814
      5473.6424
 04  9  2 15 15 14.9990000  0  7G 1G11G14G15G19G22G25
  -4802595.25049  -3732293.84847  23124574.9724   23124574.0814
      5444.6334
  -4800773.46149  -3713134.44547  22126035.3394   22126032.0654
      4804.3704
  -1305158.60949  -1010061.17648  20152552.4564   20152549.4644
      1113.9574
    817849.81349    628557.59047  21994608.2534   21994606.9684
     -1054.8254
   -383269.15649   -298403.65247  22716835.2064   22716831.3154
       163.6574
   -465248.07449   -362657.14547  21754903.1364   21754899.2884
       355.2574
  -5371139.12949  -4151671.88747  22306274.2764   22306272.6834
      5469.0714
 04  9  2 15 15 29.9990000  0  7G 1G11G14G15G19G22G25
  -4884202.21949  -3795883.69947  23109045.7694   23109044.8744
      5440.4654
  -4872738.25049  -3769210.89847  22112340.9254   22112337.3624
      4797.6534
  -1321761.14549  -1022998.22348  20149393.2064   20149389.7884
      1106.8364
    833753.69949    640950.19147  21997635.1444   21997633.4334
     -1060.2594
   -385626.48449   -300240.55947  22716386.3474   22716383.0934
       157.1554
   -470522.89849   -366767.42247  21753899.2844   21753895.2064
       351.6554
  -5453105.52049  -4215541.79747  22290676.5654   22290674.9214
      5464.4264
 04  9  2 15 15 44.9990000  0  7G 1G11G14G15G19G22G25
  -4965747.03149  -3859425.10547  23093527.8314   23093527.5304
      5436.3214
  -4944602.90249  -3825209.33247  22098665.6514   22098662.0424
      4790.9774
  -1338257.61749  -1035852.61748  20146253.7694   20146250.5224
      1099.7654
    849738.37149    653405.75047  22000676.9564   22000675.5264
     -1065.6454
   -387887.16049   -302002.16447  22715955.6984   22715952.7184
       150.7124
   -475744.18749   -370835.97347  21752905.9404   21752901.8234
       348.0864
  -5535002.53949  -4279357.63347  22275092.1284   22275090.7804
      5459.8014
 04  9  2 15 15 59.9990000  0  7G 1G11G14G15G19G22G25
  -5047232.67649  -3922920.40247  23078022.8314   23078020.9014
      5432.3764
  -5016370.18749  -3881131.89547  22085008.8554   22085005.4174
      4784.4864
  -1354651.38749  -1048626.99648  20143134.3474   20143131.0624
      1092.9184
    865800.43049    665921.60947  22003733.2694   22003731.8474
     -1070.8044
   -390054.72749   -303691.20347  22715543.8784   22715540.4254
       144.5044
   -480915.21549   -374865.35947  21751921.5734   21751917.4014
       344.7354
  -5616832.86749  -4343121.51647  22259520.2374   22259518.8354
      5455.3554
 04  9  2 15 16 14.9990000  0  7G 1G11G14G15G19G22G25
  -5128654.15249  -3986365.71147  23062527.7844   23062526.8784
      5428.0984
  -5088034.81649  -3936974.45747  22071371.3554   22071368.0734
      4777.6424
  -1370937.76649  -1061317.68748  20140035.3084   20140031.9644
      1085.7594
    881944.55149    678501.40647  22006805.1444   22006804.1204
     -1076.2754
   -392124.60949   -305304.13347  22715150.0814   22715146.5114
       137.9924
   -486030.92649   -378851.63747  21750948.5114   21750944.1754
       341.0474
  -5698591.21949  -4406829.30147  22243962.2454   22243960.8124
      5450.5574
 04  9  2 15 16 29.9990000  0  7G 1G11G14G15G19G22G25
  -5210012.96149  -4049762.16047  23047045.5344   23047044.8514
      5423.9214
  -5159598.32849  -3992738.23047  22057753.2304   22057749.9404
      4770.9014
  -1387118.57849  -1073926.12148  20136955.9564   20136952.7454
      1078.7214
    898168.76249    691143.61347  22009892.8474   22009891.3514
     -1081.6144
   -394098.84449   -306842.52747  22714774.3944   22714770.7844
       131.6164
   -491093.15249   -382796.24647  21749984.8944   21749981.0584
       337.4824
  -5780278.98449  -4470482.09047  22228417.7144   22228415.6834
      5445.8514
 04  9  2 15 16 44.9990000  0  7G 1G11G14G15G19G22G25
  -5291312.50849  -4113112.44547  23031575.6444   23031573.9134
      5419.9704
  -5231063.91449  -4048425.69947  22044153.6834   22044150.3394
      4764.3724
  -1403197.64149  -1086455.26648  20133896.1984   20133893.0154
      1071.9384
    914469.16049    703845.18847  22012994.6594   22012993.4094
     -1086.6934
   -395981.34049   -308309.43047  22714415.8864   22714412.3314
       125.5004
   -496105.50849   -386701.98847  21749031.3624   21749027.3784
       334.1574
  -5861899.39849  -4534082.40247  22212885.9644   22212884.1014
      5441.3614
 04  9  2 15 16 59.9990000  0  7G 1G11G14G15G19G22G25
  -5372552.94549  -4176416.68747  23016116.0734   23016114.1834
      5416.0294
  -5302431.52349  -4104036.82447  22030573.1904   22030569.4444
      4757.8414
  -1419175.49649  -1098905.54748  20130855.9484   20130852.4524
      1065.1904
    930845.27349    716605.77347  22016111.0114   22016109.6944
     -1091.7414
   -397772.71949   -309705.34047  22714075.1364   22714071.3904
       119.4254
   -501068.20349   -390569.03947  21748086.7144   21748082.9404
       330.8464
  -5943452.41049  -4597630.18447  22197366.7924   22197364.9524
      5436.8674
 04  9  2 15 17 14.9990000  0  7G 1G11G14G15G19G22G25
  -5453733.25849  -4239674.05547  23000668.2764   23000665.9994
      5412.0214
  -5373700.03149  -4159570.72747  22017011.3154   22017007.9134
      4751.2344
  -1435051.40249  -1111276.39148  20127834.9484   20127831.8044
      1058.3944
    947297.82049    729425.89847  22019241.6204   22019240.7454
     -1096.8364
   -399472.41849   -311029.81247  22713751.6054   22713747.8824
       113.3134
   -505980.28149   -394396.65247  21747152.0894   21747148.2264
       327.4724
  -6024936.77749  -4661124.47747  22181860.7064   22181859.0774
      5432.2914
 04  9  2 15 17 29.9980000  0  7G 1G11G14G15G19G22G25
  -5534846.10549  -4302878.88347  22985232.1544   22985230.7794
      5407.5234
  -5444862.63749  -4215022.10247  22003468.9124   22003466.2174
      4744.1744
  -1450822.80149  -1123565.79348  20124833.7404   20124830.2994
      1051.4274
    963827.16849    742305.87547  22022387.4124   22022386.1154
     -1101.9574
   -401079.00049   -312281.72747  22713446.1394   22713442.3074
       107.1054
   -510839.82449   -398183.32047  21746227.3574   21746223.0804
       323.9704
  -6106344.89149  -4724559.35247  22166369.5764   22166367.6784
      5427.2084
 04  9  2 15 17 44.9980000  0  7G 1G11G14G15G19G22G25
  -5615902.53149  -4366039.75047  22969807.3814   22969806.5294
      5403.7624
  -5515929.05149  -4270398.53147  21989945.7874   21989942.4594
      4737.7614
  -1466492.33649  -1135775.82848  20121851.7254   20121848.3654
      1044.6364
    980434.85949    755246.90247  22025547.7174   22025546.3734
     -1107.1794
   -402593.28949   -313461.72347  22713157.9824   22713154.1744
       100.9534
   -515647.80549   -401929.82047  21745312.8654   21745308.6434
       320.5324
  -6187687.69949  -4787943.33647  22150890.3184   22150888.5724
      5422.8544
 04  9  2 15 17 59.9980000  0  7G 1G11G14G15G19G22G25
  -5696898.80149  -4429153.71147  22954395.2094   22954393.0644
      5399.7514
  -5586895.87549  -4325697.34847  21976440.8734   21976437.8074
      4731.1224
  -1482061.03949  -1147907.29348  20118888.9364   20118886.0534
      1037.9144
    997117.70349    768246.49647  22028722.2174   22028721.0414
     -1112.1904
   -404017.37149   -314571.42647  22712887.3034   22712883.4324
        94.9394
   -520405.65649   -405637.25047  21744407.1154   21744403.0494
       317.1904
  -6268961.34849  -4851273.44547  22135424.1934   22135422.9044
      5418.2434
 04  9  2 15 18 14.9980000  0  7G 1G11G14G15G19G22G25
  -5777834.32049  -4492220.34447  22938993.2094   22938992.1974
      5395.7014
  -5657762.52749  -4380918.10947  21962955.5684   21962952.5724
      4724.4434
  -1497528.62549  -1159959.96548  20115945.7954   20115942.4554
      1031.1724
   1013875.82849    781304.73447  22031910.8184   22031910.2724
     -1117.2084
   -405351.14549   -315610.75447  22712633.1314   22712629.3034
        88.9184
   -525112.94149   -409305.28547  21743511.5684   21743507.2794
       313.8194
  -6350165.03149  -4914549.02047  22119972.0064   22119970.2134
      5413.5794
 04  9  2 15 18 29.9980000  0  7G 1G11G14G15G19G22G25
  -5858711.37949  -4555241.41847  22923602.9754   22923602.0184
      5391.8044
  -5728531.04349  -4436062.40247  21949488.7404   21949485.7834
      4717.9014
  -1512897.73449  -1171935.90248  20113021.3734   20113018.2134
      1024.6074
   1030706.61749    794419.59447  22035113.8814   22035112.9244
     -1122.0534
   -406597.43049   -316581.91047  22712396.8264   22712392.0104
        83.0864
   -529772.11749   -412935.82447  21742624.9984   21742620.8974
       310.6124
  -6431300.80949  -4977771.68447  22104532.0684   22104530.7754
      5409.0524
 04  9  2 15 18 44.9980000  0  7G 1G11G14G15G19G22G25
  -5939527.58649  -4618215.07447  22908223.9124   22908223.2644
      5387.7474
  -5799198.93749  -4491128.29347  21936041.3894   21936037.9754
      4711.1934
  -1528166.40649  -1183833.57848  20110115.7404   20110112.5964
      1017.9114
   1047612.02749    807592.60247  22038331.4824   22038329.9714
     -1127.0274
   -407754.35249   -317483.43447  22712176.3184   22712172.1114
        77.1284
   -534380.96949   -416527.15247  21741747.8264   21741743.5254
       307.2574
  -6512366.02049  -5040939.36347  22089106.2174   22089104.2724
      5404.3474
 04  9  2 15 18 59.9980000  0  7G 1G11G14G15G19G22G25
  -6020281.43449  -4681140.12947  22892856.6074   22892855.9714
      5383.5904
  -5869764.44549  -4546114.40247  21922613.2794   21922609.8114
      4704.3674
  -1543333.47749  -1195652.07848  20107229.4824   20107226.0804
      1011.1384
   1064593.15649    820824.61347  22041562.2564   22041561.4754
     -1132.0754
   -408820.87149   -318314.52347  22711973.4754   22711968.8854
        71.1014
   -538938.03549   -420078.13747  21740880.4284   21740876.3774
       303.8044
  -6593358.96949  -5104050.73847  22073693.4284   22073691.9514
      5399.5304
 04  9  2 15 19 14.9980000  0  7G 1G11G14G15G19G22G25
  -6100973.94149  -4744017.40647  22877501.4204   22877500.4904
      5379.5014
  -5940228.55149  -4601021.50447  21909204.5614   21909200.8344
      4697.6074
  -1558400.27049  -1207392.44148  20104362.4984   20104359.0964
      1004.4534
   1081648.56649    834114.51247  22044807.6234   22044806.8614
     -1137.0274
   -409798.51649   -319076.34047  22711787.1314   22711783.0964
        65.1764
   -543444.53549   -423589.70347  21740023.2564   21740019.4084
       300.4334
  -6674280.53149  -5167106.48847  22058294.6004   22058292.7444
      5394.7714
 04  9  2 15 19 29.9980000  0  7G 1G11G14G15G19G22G25
  -6181605.63749  -4806847.28947  22862158.5764   22862156.6664
      5375.4464
  -6010591.73849  -4655849.96547  21895814.8264   21895811.2874
      4690.8794
  -1573367.80549  -1219055.46948  20101513.9984   20101510.9674
       997.8364
   1098777.28549    847461.52347  22048067.5764   22048066.3694
     -1141.9154
   -410688.31249   -319769.71947  22711617.7014   22711613.8264
        59.3204
   -547901.21549   -427062.46147  21739174.6934   21739170.8224
       297.1124
  -6755130.94549  -5230106.78547  22042909.7174   22042907.8814
      5390.0284
 04  9  2 15 19 44.9980000  0  7G 1G11G14G15G19G22G25
  -6262176.19149  -4869629.53947  22846826.2324   22846824.6154
      5371.3704
  -6080853.41849  -4710599.32047  21882444.4754   21882440.7254
      4684.1124
  -1588236.05549  -1230641.12148  20098684.8184   20098681.7134
       991.2174
   1115979.27749    860865.62547  22051340.8734   22051340.1314
     -1146.7994
   -411490.50849   -320394.84447  22711465.1864   22711461.7054
        53.4804
   -552307.85549   -430496.21547  21738336.5534   21738332.2644
       293.7764
  -6835909.76249  -5293051.31247  22027537.6394   22027535.3544
      5385.2544
 04  9  2 15 19 59.9980000  0  7G 1G11G14G15G19G22G25
  -6342687.53549  -4932365.64847  22831504.7724   22831504.0414
      5367.4234
  -6151015.32449  -4765270.93047  21869092.7174   21869089.4324
      4677.4604
  -1603007.17249  -1242151.08648  20095873.8424   20095870.7834
       984.7414
   1133252.23449    874325.04747  22054627.8814   22054626.6784
     -1151.5304
   -412207.34849   -320953.45347  22711329.1394   22711325.2214
        47.7894
   -556666.58249   -433892.64547  21737507.0764   21737502.7754
       290.5824
  -6916618.60549  -5355941.30147  22012179.3814   22012177.7054
      5380.5904
 04  9  2 15 20 14.9980000  0  7G 1G11G14G15G19G22G25
  -6423136.49249  -4995053.12947  22816196.1004   22816194.8694
      5363.2644
  -6221074.24249  -4819862.29347  21855761.2094   21855757.9594
      4670.5954
  -1617678.47349  -1253583.27048  20093081.6704   20093078.9554
       978.0874
   1150598.85249    887841.85947  22057928.9824   22057927.7754
     -1156.4414
   -412836.20749   -321443.50447  22711209.1934   22711205.5184
        41.9244
   -560974.39549   -437249.39547  21736687.4284   21736683.2364
       287.1884
  -6997254.20349  -5418774.21547  21996834.8184   21996833.4864
      5375.7074
 04  9  2 15 20 29.9980000  0  7G 1G11G14G15G19G22G25
  -6503524.10949  -5057692.80947  22800898.9984   22800898.0534
      5359.1744
  -6291031.06249  -4874374.09847  21842448.6234   21842445.4474
      4663.7884
  -1632251.35249  -1264938.77748  20090309.2874   20090305.6114
       971.5254
   1168017.76649    901415.00447  22061243.6004   22061242.8384
     -1161.2614
   -413378.69549   -321866.25447  22711106.0614   22711102.0064
        36.1664
   -565232.39549   -440567.33647  21735877.0294   21735872.5724
       283.8674
  -7077817.31649  -5481550.64847  21981504.2644   21981502.5414
      5370.8744
 04  9  2 15 20 44.9980000  0  7G 1G11G14G15G19G22G25
  -6583850.55949  -5120284.83647  22785613.0924   22785612.3344
      5355.0974
  -6360885.76249  -4928806.32847  21829155.7094   21829152.4984
      4656.9804
  -1646726.27749  -1276217.94148  20087554.3574   20087551.2564
       964.9954
   1185508.44549    915044.07047  22064572.3114   22064571.0884
     -1166.0454
   -413835.43449   -322222.18747  22711019.1074   22711015.2094
        30.4494
   -569440.89849   -443846.70747  21735076.4364   21735071.9434
       280.5674
  -7158307.91849  -5544270.58647  21966187.1394   21966185.4674
      5366.0404
 04  9  2 15 20 59.9980000  0  7G 1G11G14G15G19G22G25
  -6664115.52049  -5182828.94547  22770339.1234   22770338.5644
      5350.9974
  -6430638.00849  -4983158.72347  21815882.3504   21815878.8614
      4650.1504
  -1661103.35949  -1287420.87148  20084818.1074   20084815.3814
       958.4724
   1203070.76249    928728.95747  22067914.3114   22067912.8974
     -1170.8214
   -414206.65249   -322511.47347  22710949.1394   22710944.6074
        24.7484
   -573599.88749   -447087.49247  21734284.7794   21734280.4904
       277.2664
  -7238725.62149  -5606933.72347  21950884.4124   21950882.6624
      5361.1804
 04  9  2 15 21 14.9980000  0  7G 1G11G14G15G19G22G25
  -6744320.30149  -5245326.18447  22755077.1704   22755075.9674
      5346.9854
  -6500288.82449  -5037432.09847  21802628.5454   21802625.0684
      4643.3884
  -1675384.24249  -1298548.84448  20082101.2324   20082097.7724
       952.0594
   1220702.97349    942468.32047  22071269.8654   22071268.0024
     -1175.4814
   -414494.16449   -322735.53147  22710893.4514   22710889.9594
        19.1674
   -577710.69149   -450290.72747  21733502.2954   21733498.3574
       274.0544
  -7319071.39149  -5669540.80547  21935594.7794   21935593.2094
      5356.3854
 04  9  2 15 21 29.9980000  0  7G 1G11G14G15G19G22G25
  -6824465.41049  -5307776.91847  22739826.0064   22739824.7874
      5343.0074
  -6569838.67649  -5091626.77347  21789393.1784   21789389.9674
      4636.6574
  -1689569.74249  -1309602.48848  20079401.7954   20079398.4364
       945.7004
   1238404.19549    956261.44147  22074637.9364   22074636.8224
     -1180.0824
   -414698.91049   -322895.10547  22710855.0064   22710851.1354
        13.6504
   -581773.91449   -453456.88747  21732729.4434   21732725.4244
       270.8824
  -7399345.62949  -5732092.14147  21920319.1784   21920317.4944
      5351.6164
 04  9  2 15 21 44.9980000  0  7G 1G11G14G15G19G22G25
  -6904547.55149  -5370178.57047  22724586.7094   22724585.5964
      5338.8094
  -6639284.15649  -5145740.14147  21776178.2794   21776174.9634
      4629.6994
  -1703656.97749  -1320579.55548  20076720.8504   20076717.8184
       939.1494
   1256177.36749    970110.63347  22078019.8114   22078019.0064
     -1184.8784
   -414817.99649   -322987.92647  22710832.2954   22710828.8574
         7.9394
   -585786.43749   -456583.55147  21731965.8894   21731961.7174
       267.5024
  -7479544.84449  -5794585.02347  21905058.1074   21905056.4864
      5346.6144
 04  9  2 15 21 59.9980000  0  7G 1G11G14G15G19G22G25
  -6984569.95349  -5432533.69147  22709359.1624   22709357.3614
      5334.8274
  -6708628.39549  -5199774.61347  21762982.5224   21762979.3854
      4622.9494
  -1717649.56649  -1331482.87548  20074058.1624   20074055.1974
       932.8394
   1274018.72749    984012.94947  22081415.2794   22081414.3224
     -1189.4244
   -414855.26649   -323016.99247  22710825.2014   22710821.3224
         2.4854
   -589751.80149   -459673.45747  21731211.4124   21731207.2914
       264.3584
  -7559672.09049  -5857021.82447  21889810.4754   21889808.9554
      5341.8164
 04  9  2 15 22 14.9980000  0  7G 1G11G14G15G19G22G25
  -7064529.51649  -5494839.82847  22694143.2174   22694141.7174
      5330.6384
  -6777868.01249  -5253727.55547  21749806.6074   21749803.6394
      4615.9744
  -1731544.68049  -1342310.24648  20071414.1004   20071410.8034
       926.3414
   1291930.98449    997970.53147  22084824.0224   22084822.4594
     -1194.1514
   -414808.06249   -322980.24247  22710833.6864   22710830.4944
        -3.1474
   -593666.90249   -462724.19147  21730466.3114   21730461.8654
       261.0074
  -7639723.93449  -5919399.86747  21874576.8184   21874574.7834
      5336.7904
 04  9  2 15 22 29.9980000  0  7G 1G11G14G15G19G22G25
  -7144425.48449  -5557096.41847  22678939.2094   22678938.0924
      5326.3984
  -6847002.04349  -5307598.23047  21736651.0844   21736648.0064
      4608.9354
  -1745341.98049  -1353061.39548  20068788.2094   20068785.1934
       919.8204
   1309914.50049   1011983.62547  22088246.3574   22088244.6934
     -1198.9014
   -414676.23049   -322877.55547  22710859.7254   22710855.2364
        -8.7894
   -597531.10949   -465735.28147  21729730.7174   21729727.0804
       257.6144
  -7719699.49249  -5981718.46947  21859357.9904   21859356.3774
      5331.7044
 04  9  2 15 22 44.9980000  0  7G 1G11G14G15G19G22G25
  -7224259.41449  -5619304.66447  22663747.6074   22663746.3384
      5322.2624
  -6916032.02749  -5361387.82847  21723515.0684   21723511.5334
      4601.9994
  -1759043.34449  -1363737.78548  20066181.1934   20066178.2324
       913.4244
   1327967.31649   1026050.70747  22091681.4364   22091680.3974
     -1203.5214
   -414461.67649   -322710.40647  22710899.7014   22710896.3464
       -14.3044
   -601346.13749   -468708.04347  21729004.8504   21729000.9824
       254.3354
  -7799600.20749  -6043978.74647  21844153.1394   21844151.7954
      5326.7144
 04  9  2 15 22 59.9980000  0  7G 1G11G14G15G19G22G25
  -7304033.23049  -5681466.08247  22648566.5294   22648566.4944
      5318.2544
  -6984959.69949  -5415097.70347  21710398.8034   21710395.3504
      4595.1784
  -1772651.08649  -1374341.23048  20063591.8114   20063588.5064
       907.1834
   1346087.07049   1040169.97347  22095129.2954   22095128.4004
     -1207.9844
   -414166.91049   -322480.75847  22710956.3974   22710952.5104
       -19.6514
   -605114.09449   -471644.13347  21728287.8574   21728284.0964
       251.1974
  -7879427.75049  -6106182.02047  21828962.8184   21828960.8894
      5321.8364
 04  9  2 15 23 14.9980000  0  7G 1G11G14G15G19G22G25
  -7383746.14149  -5743580.02047  22633398.4124   22633397.3424
      5314.1944
  -7053784.14149  -5468727.12947  21697301.8894   21697298.1744
      4588.2964
  -1786164.69549  -1384871.32048  20061020.2484   20061016.9794
       900.9074
   1364274.20749   1054341.72347  22098590.2874   22098589.3974
     -1212.4764
   -413791.67249   -322188.38347  22711027.5924   22711024.0024
       -25.0164
   -608834.28149   -474542.99247  21727580.0924   21727576.2914
       248.0124
  -7959180.99249  -6168327.39547  21813786.0064   21813784.2444
      5316.8834
 04  9  2 15 23 29.9980000  0  7G 1G11G14G15G19G22G25
  -7463397.03149  -5805645.65647  22618241.5374   22618240.5414
      5310.0594
  -7122504.10249  -5522275.15247  21684224.5614   21684221.1864
      4581.3314
  -1799583.50849  -1395327.54748  20058466.9124   20058463.6504
       894.5884
   1382529.48449   1068566.57047  22102064.1004   22102063.2484
     -1217.0184
   -413335.27349   -321832.77347  22711114.5294   22711110.9594
       -30.4274
   -612505.79749   -477403.93047  21726881.2564   21726877.2754
       244.7684
  -8038858.78149  -6230413.97347  21798624.1544   21798621.8344
      5311.8534
 04  9  2 15 23 44.9980000  0  7G 1G11G14G15G19G22G25
  -7542986.97749  -5867663.78547  22603095.7094   22603094.5574
      5305.9964
  -7191120.49249  -5575742.46947  21671167.3034   21671164.1704
      4574.4264
  -1812908.83649  -1405710.92248  20055931.1314   20055928.0454
       888.3554
   1400851.48449   1082843.41447  22105550.7564   22105549.7444
     -1221.4674
   -412799.19549   -321415.07447  22711216.7874   22711212.8114
       -35.7394
   -616129.69549   -480227.76247  21726191.6394   21726187.4394
       241.5934
  -8118461.89149  -6292442.35247  21783475.9824   21783474.1864
      5306.8744
 04  9  2 15 23 59.9980000  0  7G 1G11G14G15G19G22G25
  -7622515.40249  -5929633.98047  22587962.1934   22587961.1934
      5301.8954
  -7259632.55949  -5629128.49247  21658129.8264   21658126.9514
      4567.4714
  -1826140.48849  -1416021.30948  20053413.1864   20053409.7524
       882.1104
   1419240.25849   1097172.29747  22109050.1784   22109049.3034
     -1225.9184
   -412183.54349   -320935.37147  22711333.8574   22711330.2054
       -41.0434
   -619705.72749   -483014.30147  21725511.0764   21725507.0104
       238.4024
  -8197989.68749  -6354412.05947  21768342.2174   21768340.2684
      5301.8534
 04  9  2 15 24 14.9980000  0  7G 1G11G14G15G19G22G25
  -7701980.81649  -5991555.08647  22572840.3974   22572839.2874
      5297.6944
  -7328038.73849  -5682432.01647  21645112.5844   21645109.2214
      4560.4124
  -1839277.37149  -1426257.84848  20050913.0844   20050909.7994
       875.7924
   1437696.91449   1111554.06347  22112562.5064   22112561.5684
     -1230.4444
   -411487.22749   -320392.81247  22711465.9044   22711462.9124
       -46.4214
   -623232.43049   -485762.39847  21724840.2174   21724835.9904
       235.1144
  -8277440.33649  -6416321.64547  21753223.3814   21753221.2874
      5296.7104
 04  9  2 15 24 29.9980000  0  7G 1G11G14G15G19G22G25
  -7781384.50049  -6053428.07447  22557730.2874   22557728.9674
      5293.5794
  -7396340.18049  -5735653.91847  21632115.2404   21632112.2914
      4553.4294
  -1852321.19549  -1436421.87148  20048431.0374   20048428.1194
       869.5884
   1456219.85549   1125987.48047  22116087.2724   22116086.1864
     -1234.8634
   -410712.12149   -319788.85947  22711613.8264   22711610.0844
       -51.6744
   -626711.22349   -488473.16847  21724178.2564   21724174.1004
       231.9204
  -8356815.04749  -6478172.05147  21738118.4434   21738117.4904
      5291.6474
 04  9  2 15 24 44.9980000  0  7G 1G11G14G15G19G22G25
  -7860727.70749  -6115253.94147  22542631.5684   22542630.5684
      5289.5474
  -7464538.08649  -5788795.13747  21619137.7724   21619134.5064
      4546.5274
  -1865273.50049  -1446514.58248  20045966.3504   20045963.4514
       863.4874
   1474807.21949   1140471.10547  22119624.2324   22119623.2054
     -1239.1584
   -409859.97749   -319124.89147  22711775.9284   22711772.3694
       -56.8104
   -630143.63749   -491147.79747  21723524.8974   21723520.8734
       228.8284
  -8436114.75049  -6539964.01247  21723028.9124   21723027.0884
      5286.6474
 04  9  2 15 24 59.9980000  0  7G 1G11G14G15G19G22G25
  -7940009.34049  -6177031.83647  22527544.8264   22527543.4324
      5285.4424
  -7532631.10549  -5841854.63347  21606179.8974   21606176.7214
      4539.5354
  -1878133.58649  -1456535.43448  20043519.3114   20043515.9124
       857.3394
   1493459.78149   1155005.53547  22123173.7724   22123172.4474
     -1243.5044
   -408930.10249   -318400.34847  22711952.4434   22711949.3654
       -61.9924
   -633528.68449   -493785.50847  21722880.6154   21722876.5494
       225.6704
  -8515338.22349  -6601696.57447  21707952.9284   21707950.8934
      5281.5654
 04  9  2 15 25 14.9980000  0  7G 1G11G14G15G19G22G25
  -8019228.30949  -6238760.88747  22512469.9044   22512468.9674
      5281.2654
  -7600618.07449  -5894831.49247  21593242.7794   21593239.4594
      4532.4654
  -1890900.64149  -1466483.80148  20041089.6544   20041086.5964
       851.1374
   1512178.22749   1169591.29747  22126735.6864   22126734.6194
     -1247.8964
   -407921.99249   -317614.84047  22712144.6704   22712141.3854
       -67.2074
   -636865.39549   -496385.56647  21722246.1544   21722241.9904
       222.4474
  -8594484.16449  -6663368.72747  21692892.0454   21692890.2014
      5276.3964
 04  9  2 15 25 29.9980000  0  7G 1G11G14G15G19G22G25
  -8098384.66849  -6300441.16847  22497406.6544   22497406.2294
      5277.0914
  -7668498.78949  -5947725.55147  21580325.0534   21580322.0374
      4525.3814
  -1903574.99249  -1476359.92248  20038677.9124   20038674.8424
       844.9574
   1530962.19549   1184228.11747  22130310.3424   22130309.5454
     -1252.2654
   -406835.95749   -316768.60947  22712351.0534   22712347.9714
       -72.4024
   -640153.81249   -498947.97747  21721620.0144   21721616.0804
       219.2284
  -8673552.24249  -6724980.19947  21677845.8184   21677844.2134
      5271.2054
 04  9  2 15 25 44.9980000  0  7G 1G11G14G15G19G22G25
  -8177478.98049  -6362073.08647  22482355.5374   22482354.9084
      5272.9544
  -7736273.77349  -6000537.23047  21567427.9674   21567424.9284
      4518.3324
  -1916157.59849  -1486164.55948  20036283.4204   20036280.2444
       838.8404
   1549810.66449   1198915.18847  22133897.0374   22133895.9634
     -1256.5654
   -405673.22749   -315862.62147  22712572.7174   22712569.4324
       -77.5154
   -643394.80149   -501473.43747  21721003.4514   21720999.3934
       216.0664
  -8752542.84049  -6786531.29747  21662814.3734   21662812.5414
      5266.0404
 04  9  2 15 25 59.9980000  0  7G 1G11G14G15G19G22G25
  -8256510.52049  -6423656.10547  22467316.1474   22467315.6584
      5268.7694
  -7803942.10249  -6053265.79347  21554551.4124   21554548.4204
      4511.2224
  -1928648.17649  -1495897.48848  20033906.6394   20033903.3614
       832.7054
   1568723.96149   1213652.78147  22137496.3574   22137495.1504
     -1260.8864
   -404433.61349   -314896.72347  22712808.9984   22712804.9554
       -82.6414
   -646587.69549   -503961.42247  21720395.7794   21720391.9364
       212.8604
  -8831455.14849  -6848021.39547  21647797.7794   21647796.1194
      5260.8214
 04  9  2 15 26 14.9980000  0  7G 1G11G14G15G19G22G25
  -8335479.18449  -6485190.11747  22452289.5374   22452288.6274
      5264.5784
  -7871503.56249  -6105911.09447  21541695.0224   21541691.3814
      4504.0974
  -1941046.93749  -1505558.86348  20031547.3344   20031544.0454
       826.5844
   1587701.86349   1228440.72747  22141107.3264   22141106.5334
     -1265.1934
   -403117.51649   -313871.23047  22713058.7174   22713055.6744
       -87.7404
   -649732.47349   -506411.91847  21719797.3574   21719793.4554
       209.6524
  -8910288.84849  -6909450.23447  21632796.0764   21632794.6664
      5255.5804
 04  9  2 15 26 29.9980000  0  7G 1G11G14G15G19G22G25
  -8414383.64549  -6546674.10947  22437274.6154   22437273.0224
      5260.2974
  -7938956.75849  -6158472.02347  21528858.7724   21528855.5884
      4496.8804
  -1953352.96149  -1515147.98448  20029205.3114   20029202.2724
       820.4024
   1606745.22749   1243279.68047  22144731.3114   22144730.5534
     -1269.5584
   -401723.99249   -312785.40247  22713323.9904   22713320.4864
       -92.9024
   -652828.10549   -508824.11747  21719208.2094   21719204.3504
       206.3764
  -8989042.51249  -6970816.71147  21617810.0534   21617808.0924
      5250.2444
 04  9  2 15 26 44.9980000  0  7G 1G11G14G15G19G22G25
  -8493228.89849  -6608111.95347  22422270.2254   22422269.3264
      5256.3504
  -8006306.32049  -6210952.19547  21516042.6934   21516039.6664
      4489.9714
  -1965571.46949  -1524668.91048  20026880.2094   20026877.1784
       814.5674
   1625848.60549   1258165.39847  22148366.7254   22148365.4434
     -1273.5594
   -400258.59449   -311643.56647  22713602.9364   22713599.2524
       -97.6934
   -655879.70349   -511201.99647  21718627.8184   21718623.7754
       203.4404
  -9067720.80949  -7032124.46547  21602838.0844   21602836.5334
      5245.2204
 04  9  2 15 26 59.9980000  0  7G 1G11G14G15G19G22G25
  -8572011.57049  -6669501.03547  22407279.3654   22407277.5764
      5252.1784
  -8073548.84049  -6263348.97347  21503246.8344   21503243.3384
      4482.8354
  -1977699.43749  -1534119.28548  20024572.4824   20024569.1784
       808.5314
   1645014.99249   1273100.20347  22152013.8574   22152012.9594
     -1277.7594
   -398718.41049   -310443.44947  22713896.1624   22713892.5764
      -102.6794
   -658883.90649   -513542.95347  21718056.0064   21718052.0254
       200.2804
  -9146320.02049  -7093370.59047  21587881.0224   21587879.2644
      5239.9474
 04  9  2 15 27 14.9980000  0  7G 1G11G14G15G19G22G25
  -8650732.42649  -6730841.94947  22392299.0454   22392297.5294
      5248.0574
  -8140684.90249  -6315662.78947  21490471.2874   21490468.0024
      4475.7384
  -1989737.96149  -1543499.96148  20022281.6934   20022278.7524
       802.5684
   1664243.33649   1288083.29747  22155672.7484   22155671.9044
     -1281.8904
   -397104.60949   -309185.97747  22714203.5144   22714200.1394
      -107.5874
   -661841.59049   -515847.65247  21717492.9904   21717489.2174
       197.1794
  -9224840.78949  -7154555.58647  21572938.9364   21572937.4084
      5234.7184
 04  9  2 15 27 29.9980000  0  7G 1G11G14G15G19G22G25
  -8729389.44949  -6792133.12547  22377330.8424   22377329.1544
      5243.8024
  -8207712.34049  -6367891.95347  21477716.3814   21477712.8894
      4468.4964
  -2001685.58249  -1552809.80148  20020007.8654   20020004.9004
       796.5084
   1683535.15249   1303115.84847  22159343.5924   22159342.9714
     -1286.1214
   -395415.87949   -307870.10247  22714525.3034   22714521.2874
      -112.5824
   -664750.99649   -518114.73847  21716939.2794   21716935.6044
       193.9604
  -9303281.10949  -7215677.90247  21558012.1234   21558010.6474
      5229.3554
 04  9  2 15 27 44.9980000  0  7G 1G11G14G15G19G22G25
  -8807984.15249  -6853375.73447  22362374.8424   22362373.1544
      5239.6474
  -8274632.57049  -6420037.58647  21464981.7564   21464978.6314
      4461.3494
  -2013544.02049  -1562050.15248  20017751.5294   20017748.5064
       790.5634
   1702888.59849   1318196.41447  22163027.0764   22163026.1274
     -1290.2304
   -393654.09049   -306497.31647  22714860.1314   22714856.3574
      -117.4534
   -667613.77749   -520345.50047  21716394.8344   21716390.9164
       190.8524
  -9381642.14849  -7276738.43447  21543100.7954   21543098.8934
      5224.0694
 04  9  2 15 27 59.9980000  0  7G 1G11G14G15G19G22G25
  -8886515.74249  -6914569.17247  22347431.2324   22347429.2754
      5235.4394
  -8341444.80149  -6472099.06647  21452267.9364   21452264.5804
      4454.1494
  -2025312.84849  -1571220.67648  20015512.1004   20015509.0224
       784.5894
   1722304.02049   1333325.27347  22166721.9754   22166720.7484
     -1294.3614
   -391819.05949   -305067.44947  22715208.9044   22715205.4824
      -122.3354
   -670429.29749   -522539.43447  21715858.9594   21715855.1624
       187.7014
  -9459922.86349  -7337736.38747  21528204.3504   21528202.4634
      5218.7144
 04  9  2 15 28 14.9980000  0  7G 1G11G14G15G19G22G25
  -8964983.57849  -6975712.91047  22332498.9674   22332497.4864
      5231.1894
  -8408148.15649  -6524075.70347  21439574.8654   21439571.4944
      4446.8904
  -2036991.72749  -1580321.10548  20013289.6394   20013286.4754
       778.5924
   1741781.55149   1348502.53547  22170428.0294   22170427.3774
     -1298.5024
   -389910.55149   -303580.34847  22715572.5144   22715568.8464
      -127.2344
   -673196.99249   -524696.09847  21715332.6394   21715328.6074
       184.5134
  -9538122.46149  -7398671.11347  21513323.2564   21513321.3224
      5213.3074
 04  9  2 15 28 29.9980000  0  7G 1G11G14G15G19G22G25
  -9043389.84049  -7036808.69147  22317578.2094   22317577.0454
      5227.0844
  -8474744.69549  -6575969.10547  21426901.6474   21426898.5494
      4439.7694
  -2048583.20749  -1589353.44148  20011083.8424   20011081.0494
       772.7654
   1761318.71149   1363726.26247  22174146.2954   22174144.9514
     -1302.4774
   -387931.07849   -302037.92647  22715949.6704   22715945.6194
      -131.9654
   -675919.16049   -526817.28547  21714814.3504   21714810.2644
       181.4784
  -9616242.94549  -7459544.21147  21498457.4824   21498455.7014
      5208.0324
 04  9  2 15 28 44.9970000  0  7G 1G11G14G15G19G22G25
  -9121725.84449  -7097849.71147  22302671.9154   22302670.4464
      5222.4004
  -8541226.39849  -6627773.03947  21414250.8294   21414247.4274
      4432.1144
  -2060083.58649  -1598314.78548  20008895.0794   20008892.0874
       766.6924
   1780917.19149   1378997.76647  22177875.7124   22177874.5674
     -1306.5654
   -385878.08249   -300438.22347  22716340.0634   22716336.6734
      -136.8664
   -678592.29749   -528900.27047  21714306.0244   21714301.5834
       178.2094
  -9694275.57849  -7520348.85247  21483608.4704   21483606.4544
      5202.1764
 04  9  2 15 28 59.9970000  0  7G 1G11G14G15G19G22G25
  -9200003.32049  -7158845.13347  22287776.1494   22287774.3374
      5218.4984
  -8607603.22349  -6679495.24247  21401619.8064   21401616.5994
      4425.1224
  -2071495.85249  -1607207.47348  20006723.4854   20006720.3604
       760.8184
   1800578.06349   1394317.89147  22181617.1654   22181616.1854
     -1310.7254
   -383752.96149   -298782.31247  22716744.4464   22716740.5404
      -141.6754
   -681218.14549   -530946.40647  21713805.6424   21713801.9314
       175.0574
  -9772231.80949  -7581093.94947  21468773.6884   21468772.0214
      5197.0824
 04  9  2 15 29 14.9970000  0  7G 1G11G14G15G19G22G25
  -9278216.30949  -7219790.30147  22272892.6654   22272890.7594
      5214.1994
  -8673869.94149  -6731131.64547  21389009.2594   21389006.1304
      4417.7814
  -2082818.81249  -1616030.56648  20004569.2354   20004566.0754
       754.8644
   1820300.24249   1409685.78147  22185369.9624   22185368.8564
     -1314.8124
   -381555.62549   -297070.12947  22717162.1424   22717159.3104
      -146.4894
   -683796.04349   -532955.18447  21713315.3534   21713311.7004
       171.8604
  -9850105.37949  -7641774.64147  21453955.0324   21453953.0954
      5191.5714
 04  9  2 15 29 29.9970000  0  7G 1G11G14G15G19G22G25
  -9356368.15249  -7280687.82047  22258020.3684   22258019.0484
      5210.1234
  -8740029.61349  -6782684.63347  21376419.4624   21376416.0284
      4410.6454
  -2094056.20749  -1624786.98448  20002430.5874   20002427.2904
       749.1604
   1840080.01249   1425098.53547  22189134.1654   22189133.0634
     -1318.6514
   -379289.86349   -295304.63747  22717593.1884   22717590.0134
      -151.0514
   -686329.32049   -534929.18447  21712833.4464   21712829.3844
       168.8854
  -9927899.43449  -7702393.37547  21439151.7284   21439149.6064
      5186.2704
 04  9  2 15 29 44.9970000  0  7G 1G11G14G15G19G22G25
  -9434457.60949  -7341536.75047  22243160.9464   22243158.8414
      5205.9644
  -8806080.98849  -6834153.23447  21363850.2674   21363847.1534
      4403.4254
  -2105207.17649  -1633476.06248  20000308.6654   20000305.6694
       743.3984
   1859918.21549   1440556.84847  22192908.9704   22192908.3764
     -1322.5474
   -376954.95349   -293485.25847  22718038.0954   22718034.6614
      -155.6614
   -688816.98849   -536867.65247  21712359.8924   21712355.7784
       165.8454
 -10005612.58649  -7762949.05947  21424363.1734   21424361.1494
      5180.8774
 04  9  2 15 29 59.9970000  0  7G 1G11G14G15G19G22G25
  -9512482.35949  -7402335.23047  22228313.0954   22228311.4504
      5201.6504
  -8872021.42249  -6885535.39147  21351302.7904   21351299.1464
      4396.0294
  -2116269.68749  -1642096.20748  19998203.3994   19998200.3644
       737.5014
   1879816.79749   1456062.18847  22196695.7434   22196694.4274
     -1326.5724
   -374549.07049   -291610.58647  22718495.5014   22718491.9664
      -160.3924
   -691256.69949   -538768.74247  21711895.6964   21711891.5994
       162.6474
 -10083242.20349  -7823439.65647  21409590.5174   21409588.8564
      5175.3084
 04  9  2 15 30 14.9970000  0  7G 1G11G14G15G19G22G25
  -9590443.34449  -7463084.03147  22213477.7434   22213476.0324
      5197.3994
  -8937851.84049  -6936831.82447  21338775.4074   21338771.9424
      4388.6954
  -2127245.00849  -1650648.40648  19996114.8214   19996111.8534
       731.6884
   1899774.38349   1471613.51647  22200493.5404   22200492.7124
     -1330.5064
   -372073.60249   -289681.68447  22718966.7284   22718963.0954
      -165.0314
   -693649.58249   -540633.35247  21711440.4464   21711436.4354
       159.5264
 -10160788.98849  -7883865.70347  21394833.4934   21394832.2354
      5169.7864
 04  9  2 15 30 29.9970000  0  7G 1G11G14G15G19G22G25
  -9668341.48449  -7523783.87147  22198653.9784   22198652.4584
      5193.2094
  -9003573.01649  -6988043.12147  21326268.9854   21326265.6144
      4381.4124
  -2138134.37949  -1659133.64548  19994042.8604   19994039.4664
       725.9584
   1919789.65249   1487209.78147  22204301.8844   22204300.9464
     -1334.3514
   -369529.98049   -287699.68447  22719450.8134   22719447.6224
      -169.5754
   -695996.67249   -542462.27347  21710993.9544   21710989.9034
       156.4734
 -10238253.89549  -7944227.95347  21380092.8134   21380090.9934
      5164.3274
 04  9  2 15 30 44.9970000  0  7G 1G11G14G15G19G22G25
  -9746175.71549  -7584433.91447  22183842.8064   22183841.8414
      5188.9494
  -9069183.54349  -7039168.21547  21313783.9934   21313780.3254
      4374.0354
  -2148937.18049  -1667551.41848  19991986.9074   19991983.7744
       720.1874
   1939863.34049   1502851.59047  22208122.3844   22208121.1964
     -1338.2464
   -366917.60249   -285664.10547  22719947.6034   22719944.7784
      -174.1594
   -698297.07449   -544254.81247  21710556.2044   21710552.0214
       153.3604
 -10315635.46549  -8004525.26647  21365367.3294   21365365.6924
      5158.7714
 04  9  2 15 30 59.9970000  0  7G 1G11G14G15G19G22G25
  -9823948.56249  -7645036.10947  22169043.4854   22169041.4544
      5184.8574
  -9134686.01249  -7090209.10547  21301319.0484   21301315.8964
      4366.8314
  -2159656.35949  -1675904.03548  19989947.2514   19989943.8024
       714.6124
   1959992.48049   1518536.58647  22211952.9544   22211952.3294
     -1341.9434
   -364239.62149   -283577.41047  22720458.1494   22720454.5754
      -178.5324
   -700553.38749   -546013.00047  21710126.9154   21710122.8534
       150.4214
 -10392936.15649  -8064759.55147  21350657.3374   21350656.1184
      5153.3794
 04  9  2 15 31 14.9970000  0  7G 1G11G14G15G19G22G25
  -9901657.41849  -7705588.44947  22154255.7354   22154254.5484
      5180.5904
  -9200077.78549  -7141163.73447  21288875.5484   21288871.9704
      4359.4524
  -2170289.42249  -1684189.53948  19987924.0564   19987920.9154
       708.8714
   1980179.27749   1534266.51247  22215794.1814   22215793.4424
     -1345.7864
   -361493.73449   -281437.78947  22720980.4784   22720976.9744
      -183.0594
   -702763.19549   -547734.95347  21709706.3534   21709702.6224
       147.3214
 -10470152.95349  -8124928.47347  21335963.5484   21335961.7784
      5147.7864
 04  9  2 15 31 29.9970000  0  7G 1G11G14G15G19G22G25
  -9979303.86749  -7766092.16047  22139479.6734   22139478.4894
      5176.4304
  -9265360.13749  -7192033.09447  21276452.8994   21276449.4354
      4352.1574
  -2180838.31249  -1692409.46148  19985916.6494   19985913.4784
       703.2594
   2000421.71549   1550039.80147  22219646.2744   22219645.5524
     -1349.4964
   -358682.14849   -279246.97747  22721515.7434   22721512.1884
      -187.4394
   -704928.27749   -549422.05147  21709294.3924   21709290.2244
       144.3394
 -10547287.24649  -8185033.09847  21321285.3214   21321283.6494
      5142.2864
 04  9  2 15 31 44.9970000  0  7G 1G11G14G15G19G22G25
 -10056886.57449  -7826546.20747  22124716.1424   22124715.2164
      5172.1804
  -9330531.72349  -7242816.14547  21264050.7514   21264047.5444
      4344.7724
  -2191302.14549  -1700563.10248  19983925.3604   19983921.9464
       697.5894
   2020720.75449   1565857.18847  22223509.0484   22223508.1814
     -1353.2694
   -355804.05949   -277004.33647  22722063.5094   22722059.6814
      -191.8734
   -707047.36749   -551073.30947  21708890.8214   21708887.3764
       141.2734
 -10624337.62149  -8245072.33647  21306623.1814   21306621.5634
      5136.6924
 04  9  2 15 31 59.9970000  0  7G 1G11G14G15G19G22G25
 -10134404.35249  -7886949.65247  22109964.9314   22109963.8334
      5167.8524
  -9395591.19549  -7293511.83247  21251670.4234   21251667.2284
      4337.2984
  -2201680.07449  -1708649.80948  19981950.3924   19981947.6224
       691.8624
   2041077.15249   1581719.28547  22227382.6424   22227382.0604
     -1357.0934
   -352858.63749   -274709.23047  22722623.6034   22722619.9894
      -196.3614
   -709119.32049   -552687.83647  21708496.7354   21708492.8684
       138.1304
 -10701302.75449  -8305045.14847  21291976.8764   21291975.4974
      5131.0094
 04  9  2 15 32 14.9970000  0  7G 1G11G14G15G19G22G25
 -10211860.21149  -7947304.84447  22095225.8534   22095224.2004
      5163.7244
  -9460541.27749  -7344122.29347  21239310.7904   21239307.3334
      4330.0054
  -2211975.51249  -1716672.23448  19979991.2744   19979988.1534
       686.3624
   2061487.58249   1597623.48047  22231266.7044   22231266.0564
     -1360.6954
   -349849.45749   -272364.44947  22723197.1034   22723192.6184
      -200.6124
   -711147.35949   -554268.14147  21708110.9934   21708107.1264
       135.2034
 -10778185.40249  -8364953.69547  21277346.8684   21277345.3104
      5125.5104
 04  9  2 15 32 29.9970000  0  7G 1G11G14G15G19G22G25
 -10289253.52349  -8007611.30947  22080498.0244   22080496.4274
      5159.5544
  -9525381.27049  -7394646.96147  21226972.0404   21226968.9114
      4322.6664
  -2222188.05149  -1724630.06648  19978048.0954   19978044.7434
       680.8364
   2081952.23849   1613569.91447  22235160.9624   22235160.2244
     -1364.3104
   -346776.43049   -269969.91047  22723780.7904   22723777.6964
      -204.8684
   -713130.98049   -555813.83647  21707733.5564   21707729.7084
       132.2414
 -10854984.66049  -8424797.25447  21262732.4544   21262730.9354
      5119.9514
 04  9  2 15 32 44.9970000  0  7G 1G11G14G15G19G22G25
 -10366583.45749  -8067868.38747  22065782.7904   22065781.5604
      5155.3294
  -9590110.16849  -7445085.06647  21214654.5564   21214651.3254
      4315.2604
  -2232317.24649  -1732522.94548  19976120.4074   19976117.1064
       675.2804
   2102471.68449   1629559.05547  22239065.5094   22239064.6034
     -1367.9634
   -343639.09449   -267525.26647  22724378.0404   22724374.9034
      -209.1564
   -715069.38749   -557324.30947  21707364.3604   21707361.0794
       129.2274
 -10931699.38349  -8484574.94947  21248134.1034   21248132.4544
      5114.3154
 04  9  2 15 32 59.9970000  0  7G 1G11G14G15G19G22G25
 -10443847.30149  -8128073.96947  22051080.1814   22051078.4464
      5150.9234
  -9654725.21549  -7495434.45747  21202358.9314   21202355.7554
      4307.6704
  -2242360.73849  -1740349.05548  19974209.1264   19974206.3294
       669.5664
   2123048.11349   1645592.59847  22242981.5014   22242980.6964
     -1371.7624
   -340435.16049   -265028.71947  22724988.0484   22724984.8994
      -213.5964
   -716960.06649   -558797.58647  21707004.7124   21707000.9234
       126.0454
 -11008326.76649  -8544284.57847  21233552.5174   21233550.4194
      5108.4924
 04  9  2 15 33 14.9970000  0  7G 1G11G14G15G19G22G25
 -10521050.93749  -8188232.63347  22036388.7744   22036387.5094
      5146.9094
  -9719232.13749  -7545699.59047  21190083.5954   21190080.3374
      4300.4614
  -2252324.75849  -1748113.23048  19972312.9624   19972310.1424
       664.2684
   2143675.21549   1661665.63347  22246906.6884   22246904.9664
     -1375.1404
   -337171.26249   -262485.45347  22725608.5404   22725605.5714
      -217.5934
   -718809.12949   -560238.43047  21706653.0634   21706649.0484
       123.2714
 -11084872.55149  -8603930.62547  21218986.4544   21218984.6264
      5103.0524
 04  9  2 15 33 29.9970000  0  7G 1G11G14G15G19G22G25
 -10598190.94549  -8248341.71947  22021709.5954   22021708.0674
      5142.6674
  -9783627.37549  -7595877.69547  21177829.6654   21177826.4584
      4293.0164
  -2262206.20349  -1755813.06648  19970432.7744   19970429.6104
       658.7634
   2164356.06349   1677780.53147  22250842.0484   22250841.3254
     -1378.7234
   -333844.35549   -259893.07447  22726242.4154   22726238.5284
      -221.7944
   -720613.14849   -561644.17647  21706309.8534   21706305.4314
       120.2684
 -11161333.11349  -8663510.26647  21204436.3764   21204434.6654
      5097.3714
 04  9  2 15 33 44.9970000  0  7G 1G11G14G15G19G22G25
 -10675267.34049  -8308401.23847  22007042.8764   22007041.1304
      5138.4264
  -9847910.78549  -7645968.67247  21165596.9464   21165593.7084
      4285.5614
  -2272005.47749  -1763448.87148  19968567.8134   19968565.1694
       653.2854
   2185090.20749   1693936.95747  22254787.8604   22254786.7944
     -1382.2764
   -330454.93449   -257251.98847  22726886.5954   22726883.8724
      -225.9614
   -722372.31249   -563014.98047  21705974.7044   21705970.9114
       117.2784
 -11237708.33649  -8723023.40247  21189902.3604   21189900.6614
      5091.6824
 04  9  2 15 33 59.9970000  0  7G 1G11G14G15G19G22G25
 -10752278.19949  -8368409.69147  21992387.7204   21992386.6494
      5134.0574
  -9912080.35549  -7695970.93447  21153386.1034   21153382.8994
      4277.9714
  -2281720.96549  -1771019.38748  19966719.2284   19966716.2164
       647.6994
   2205879.19149   1710136.12147  22258744.0014   22258742.8024
     -1385.9324
   -327001.52749   -254561.05147  22727544.5954   22727540.8334
      -230.2274
   -724084.80549   -564349.39547  21705649.2354   21705645.0174
       114.1664
 -11313995.91449  -8782468.25047  21175385.6344   21175383.7554
      5085.8394
 04  9  2 15 34 14.9970000  0  7G 1G11G14G15G19G22G25
 -10829223.99249  -8428367.43747  21977744.6494   21977743.9854
      5129.7204
  -9976136.44149  -7745884.76647  21141196.3604   21141193.2744
      4270.4064
  -2291353.37549  -1778525.17248  19964886.2044   19964883.3374
       642.1614
   2226722.16849   1726377.36747  22262709.8064   22262708.8884
     -1389.5324
   -323485.07049   -251820.98447  22728213.8454   22728209.6304
      -234.4304
   -725751.13349   -565647.86747  21705331.9854   21705328.2164
       111.0894
 -11390196.22749  -8841845.10547  21160885.2514   21160883.6654
      5080.0214
 04  9  2 15 34 29.9970000  0  7G 1G11G14G15G19G22G25
 -10906106.55149  -8488275.91447  21963114.9784   21963113.6854
      5125.5044
 -10040080.61749  -7795711.39847  21129028.6264   21129024.6964
      4262.9454
  -2300904.89849  -1785967.92248  19963068.4314   19963065.6814
       636.7684
   2247616.83649   1742658.87547  22266686.0714   22266685.2784
     -1392.9784
   -319907.84849   -249033.56247  22728894.1654   22728891.0364
      -238.4824
   -727373.37549   -566911.97347  21705023.3064   21705019.4624
       108.1494
 -11466310.91849  -8901155.22747  21146401.1184   21146399.3924
      5074.3134
 04  9  2 15 34 44.9970000  0  7G 1G11G14G15G19G22G25
 -10982925.96549  -8548135.18047  21948496.9074   21948495.6534
      5121.2944
 -10103912.95349  -7845450.87947  21116881.2744   21116878.1034
      4255.4894
  -2310376.02049  -1793348.02348  19961266.1574   19961263.5754
       631.4084
   2268562.77749   1758980.35247  22270672.4784   22270671.3374
     -1396.3964
   -316270.60549   -246199.37547  22729586.6184   22729583.5564
      -242.4834
   -728951.75049   -568141.89147  21704722.6574   21704719.3214
       105.2254
 -11542339.81249  -8960398.50047  21131933.1814   21131931.0284
      5068.5934
 04  9  2 15 34 59.9970000  0  7G 1G11G14G15G19G22G25
 -11059681.92249  -8607945.00447  21933890.6654   21933889.3104
      5117.0644
 -10167632.94149  -7895102.82447  21104756.1184   21104752.9114
      4247.9994
  -2319766.79749  -1800665.52348  19959479.4234   19959476.5244
       626.0524
   2289559.89149   1775341.71147  22274666.9464   22274666.9934
     -1399.8084
   -312573.39849   -243318.46947  22730290.3764   22730287.2714
      -246.4804
   -730486.11749   -569337.52347  21704430.7744   21704427.1494
       102.2914
 -11618282.41449  -9019574.52747  21117481.7984   21117479.7434
      5062.8404
 04  9  2 15 35 14.9970000  0  7G 1G11G14G15G19G22G25
 -11136373.40649  -8667704.59047  21919296.9544   21919295.4154
      5112.7664
 -10231239.52349  -7944666.39547  21092652.1264   21092648.9034
      4240.4394
  -2329076.52349  -1807919.86748  19957707.6734   19957704.8374
       620.6484
   2310608.89149   1791743.48847  22278673.3764   22278673.1494
     -1403.2674
   -308815.73049   -240390.43747  22731005.1264   22731002.1224
      -250.5114
   -731975.44149   -570498.05147  21704147.6264   21704143.8964
        99.2884
 -11694137.48849  -9078682.35947  21103046.7124   21103045.1384
      5057.0054
 04  9  2 15 35 29.9970000  0  7G 1G11G14G15G19G22G25
 -11212999.46549  -8727413.18747  21904715.1964   21904713.9934
      5108.4044
 -10294731.47349  -7994140.64547  21080569.9074   21080566.8804
      4232.7974
  -2338304.60249  -1815110.59048  19955951.6814   19955948.6814
       615.2054
   2331710.25049   1808186.06647  22282688.7284   22282688.2004
     -1406.7574
   -304997.15249   -237414.96547  22731731.3684   22731728.5244
      -254.5724
   -733418.93449   -571622.87147  21703872.9934   21703869.2354
        96.2334
 -11769903.84849  -9137721.05547  21088628.7284   21088627.3844
      5051.0914
 04  9  2 15 35 44.9970000  0  7G 1G11G14G15G19G22G25
 -11289560.02049  -8787070.75447  21890146.0174   21890145.0874
      5104.0374
 -10358108.52349  -8043525.35947  21068509.6884   21068506.2474
      4225.1374
  -2347451.28549  -1822237.87548  19954211.0564   19954208.1694
       609.7794
   2352863.65249   1824669.19547  22286714.0244   22286713.5014
     -1410.2274
   -301118.07049   -234392.33247  22732470.1104   22732466.7314
      -258.6054
   -734816.68049   -572712.04347  21703606.9934   21703603.2314
        93.1834
 -11845581.28549  -9196690.46147  21074228.2284   21074225.9544
      5045.1634
 04  9  2 15 35 59.9970000  0  7G 1G11G14G15G19G22G25
 -11366057.57049  -8846679.21947  21875589.1424   21875587.9384
      5099.8374
 -10421373.11749  -8092822.44947  21056470.8134   21056467.4934
      4217.6404
  -2356519.30549  -1829303.87548  19952485.5174   19952482.5244
       604.5354
   2374066.24649   1841190.64147  22290749.1884   22290748.5484
     -1413.5064
   -297181.41449   -231324.85247  22733218.6734   22733215.9424
      -262.4444
   -736171.26249   -573767.58647  21703349.2594   21703345.5674
        90.3054
 -11921171.98449  -9255592.28147  21059843.4384   21059841.8884
      5039.3804
 04  9  2 15 36 14.9970000  0  7G 1G11G14G15G19G22G25
 -11442491.19549  -8906237.87947  21861044.3684   21861043.2714
      5095.5754
 -10484524.19949  -8142031.08647  21044453.5794   21044450.2284
      4210.0724
  -2365508.23049  -1836308.24248  19950775.1734   19950771.9974
       599.2624
   2395318.55549   1857750.84047  22294793.2594   22294792.3844
     -1416.8214
   -293186.81649   -228212.20747  22733979.3134   22733975.9624
      -266.3074
   -737481.84849   -574788.84847  21703099.7044   21703096.1224
        87.3724
 -11996674.98049  -9314425.76647  21045476.0014   21045474.3174
      5033.5334
 04  9  2 15 36 29.9970000  0  7G 1G11G14G15G19G22G25
 -11518858.68049  -8965745.00447  21846512.3604   21846511.2394
      5091.1664
 -10547559.39149  -8191149.41847  21032458.4854   21032454.7714
      4202.3464
  -2374416.16049  -1843249.49648  19949079.9464   19949077.2474
       593.8624
   2416622.33649   1874351.17247  22298847.1344   22298846.1144
     -1420.2524
   -289132.49649   -225053.02747  22734750.5094   22734748.1494
      -270.2884
   -738746.35949   -575774.20347  21702859.7674   21702855.3884
        84.3014
 -12072087.88349  -9373189.04347  21031125.2904   21031123.4664
      5027.5274
 04  9  2 15 36 44.9970000  0  7G 1G11G14G15G19G22G25
 -11595162.39549  -9025202.42247  21831991.5954   21831990.7674
      5086.9144
 -10610480.94149  -8240179.19947  21020484.7904   21020481.6304
      4194.7704
  -2383245.64849  -1850129.62548  19947399.7284   19947396.8994
       588.6334
   2437974.93849   1890989.51247  22302910.6344   22302909.8174
     -1423.5074
   -285021.30149   -221849.53547  22735532.8994   22735529.8494
      -274.0804
   -739967.24649   -576725.55947  21702627.1964   21702623.3414
        81.3924
 -12147412.74249  -9431883.71547  21016791.6034   21016789.6694
      5021.6574
 04  9  2 15 36 59.9970000  0  7G 1G11G14G15G19G22G25
 -11671402.60249  -9084610.36747  21817483.9074   21817482.9034
      5082.6804
 -10673289.03549  -8289120.56647  21008532.6654   21008529.4544
      4187.2064
  -2391997.35949  -1856949.15248  19945734.0714   19945731.0524
       583.4474
   2459375.55149   1907665.29347  22306982.7204   22306982.0674
     -1426.7084
   -280854.06649   -218602.36747  22736326.5404   22736323.0484
      -277.8164
   -741144.99249   -577643.30947  21702402.7904   21702399.0444
        78.5164
 -12222649.62149  -9490509.83647  21002474.3764   21002472.5834
      5015.7924
 04  9  2 15 37 14.9970000  0  7G 1G11G14G15G19G22G25
 -11747577.31249  -9143967.27347  21802987.9784   21802987.1304
      5078.3144
 -10735981.52749  -8337971.85947  20996602.6964   20996599.0754
      4179.4994
  -2400669.68049  -1863706.81648  19944084.1034   19944081.0564
       578.1554
   2480825.87949   1924379.78947  22311064.2594   22311063.7004
     -1430.0224
   -276629.13749   -215310.23447  22737129.7984   22737126.5874
      -281.6624
   -742277.64549   -578525.91447  21702187.4074   21702183.3924
        75.5104
 -12297796.25049  -9549065.62147  20988174.0874   20988172.4194
      5009.7754
 04  9  2 15 37 29.9970000  0  7G 1G11G14G15G19G22G25
 -11823690.67649  -9203276.37147  21788504.1184   21788503.1184
      5074.2244
 -10798562.40249  -8386736.17647  20984694.0014   20984690.6774
      4172.0584
  -2409267.10549  -1870406.10948  19942447.9234   19942444.9314
       573.1624
   2502321.40249   1941129.50047  22315155.6494   22315154.4464
     -1433.0354
   -272351.32849   -211976.93047  22737944.5874   22737940.9624
      -285.1874
   -743369.49649   -579376.72747  21701979.8604   21701975.6144
        72.7904
 -12372856.77349  -9607554.32047  20973890.8064   20973888.9384
      5004.0354
 04  9  2 15 37 44.9970000  0  7G 1G11G14G15G19G22G25
 -11899741.34449  -9262536.62147  21774032.3604   21774031.2314
      5070.0454
 -10861030.23049  -8435412.41047  20972806.4624   20972803.2284
      4164.5224
  -2417788.59449  -1877046.24248  19940826.4314   19940823.3374
       568.0994
   2523863.12949   1957915.21547  22319254.0324   22319253.7594
     -1436.1154
   -268019.68749   -208601.65247  22738768.7984   22738765.0284
      -288.7764
   -744419.31249   -580194.78547  21701780.0484   21701776.1884
        69.9884
 -12447829.61749  -9665974.68747  20959623.8214   20959621.9424
      4998.1904
 04  9  2 15 37 59.9970000  0  7G 1G11G14G15G19G22G25
 -11975726.54349  -9321745.85947  21759573.2984   21759571.5524
      5065.6804
 -10923382.02749  -8483998.22747  20960941.4624   20960938.3644
      4156.7864
  -2426231.62949  -1883625.24248  19939219.7984   19939216.7354
       562.8694
   2545453.39149   1974738.73847  22323363.1344   22323363.0834
     -1439.3514
   -263631.88349   -205182.62947  22739603.9464   22739600.2204
      -292.5204
   -745424.40649   -580978.00047  21701588.2434   21701584.8214
        67.0064
 -12522711.74249  -9724324.37947  20945374.7434   20945372.6534
      4992.1424
 04  9  2 15 38 14.9970000  0  7G 1G11G14G15G19G22G25
 -12051645.64849  -9380903.59047  21745125.7674   21745124.4704
      5061.2744
 -10985617.02749  -8532493.03947  20949098.7284   20949095.3494
      4149.0004
  -2434595.90249  -1890142.86748  19937628.2284   19937624.7394
       557.6184
   2567092.40249   1991600.25447  22327480.6424   22327480.3064
     -1442.6014
   -259187.79349   -201719.72747  22740449.2594   22740446.0714
      -296.2734
   -746384.29349   -581725.98447  21701406.2354   21701402.2044
        63.9924
 -12597502.25449  -9782602.68047  20931142.4314   20931140.1574
      4986.0344
 04  9  2 15 38 29.9970000  0  7G 1G11G14G15G19G22G25
 -12127499.56649  -9440010.53147  21730691.6734   21730690.3644
      5056.9284
 -11047735.99649  -8580897.42647  20937277.9154   20937274.2634
      4141.2654
  -2442882.64849  -1896600.07448  19936051.3134   19936047.8564
       552.4504
   2588778.83649   2008498.72747  22331607.8064   22331607.0634
     -1445.7624
   -254688.85949   -198214.09847  22741306.0874   22741301.9274
      -299.9294
   -747299.92649   -582439.48447  21701231.9784   21701227.8924
        61.0424
 -12672201.89549  -9840810.16847  20916927.4544   20916925.4784
      4979.9764
 04  9  2 15 38 44.9970000  0  7G 1G11G14G15G19G22G25
 -12203287.30549  -9499065.90247  21716269.8214   21716268.1304
      5052.5164
 -11109737.82849  -8629210.54747  20925479.1884   20925475.9704
      4133.4554
  -2451091.29349  -1902996.43748  19934489.2204   19934485.6774
       547.2434
   2610513.35949   2025434.66447  22335743.1494   22335743.3564
     -1448.9684
   -250134.41849   -194665.21147  22742171.4784   22742169.2044
      -303.6294
   -748170.49249   -583117.87147  21701066.1964   21701062.5324
        58.0384
 -12746809.35949  -9898945.83647  20902730.1814   20902728.0914
      4973.8314
 04  9  2 15 38 59.9970000  0  7G 1G11G14G15G19G22G25
 -12279011.35249  -9558071.64147  21701859.7744   21701858.2164
      5048.2704
 -11171624.92249  -8677434.25847  20913702.6104   20913699.3454
      4125.8064
  -2459224.58649  -1909334.07448  19932941.3684   19932938.5874
       542.2204
   2632293.05149   2042405.80947  22339888.6264   22339888.0094
     -1451.9794
   -245527.51649   -191075.44147  22743048.8214   22743045.7674
      -307.1274
   -748998.64149   -583763.20347  21700908.5094   21700904.6464
        55.2104
 -12821327.12149  -9957011.60247  20888549.8604   20888547.9504
      4967.8514
 04  9  2 15 39 14.9970000  0  7G 1G11G14G15G19G22G25
 -12354671.16449  -9617027.33247  21687462.0324   21687461.2204
      5043.9884
 -11233396.63749  -8725568.07047  20901947.8374   20901944.4274
      4118.1144
  -2467282.41049  -1915612.91048  19931408.2514   19931405.1964
       537.1884
   2654118.12549   2059412.31647  22344041.5954   22344041.0714
     -1455.0054
   -240868.18749   -187444.81647  22743935.7594   22743932.1854
      -310.6224
   -749783.89849   -584375.11347  21700758.9464   21700755.5054
        52.3514
 -12895754.39549 -10015006.85547  20874386.3534   20874384.9234
      4961.8184
 04  9  2 15 39 29.9970000  0  7G 1G11G14G15G19G22G25
 -12430263.96149  -9675930.79347  21673077.4314   21673076.0214
      5039.5204
 -11295050.00449  -8773609.66047  20890215.6424   20890212.0994
      4110.2244
  -2475262.25049  -1921830.97348  19929889.5714   19929886.7474
       531.9894
   2675990.84849   2076455.96547  22348202.9704   22348203.6224
     -1458.1824
   -236154.00449   -183771.44947  22744831.8214   22744828.9384
      -314.2794
   -750523.53549   -584951.47347  21700618.3534   21700614.7824
        49.3094
 -12970088.27749 -10072929.34447  20860241.2354   20860239.3374
      4955.5924
 04  9  2 15 39 44.9970000  0  7G 1G11G14G15G19G22G25
 -12505791.88349  -9734783.71147  21658704.8134   21658703.6534
      5035.1954
 -11356587.07849  -8821560.62147  20878505.3924   20878501.9704
      4102.4724
  -2483166.57849  -1927990.19948  19928385.7354   19928382.4664
       526.9554
   2697908.71549   2093534.75047  22352374.8214   22352374.2354
     -1461.1914
   -231387.60549   -180057.41047  22745739.2284   22745735.8374
      -317.7604
   -751219.84449   -585494.07447  21700486.1104   21700482.2044
        46.4214
 -13044330.63749 -10130780.50847  20846113.3604   20846111.6924
      4949.4914
 04  9  2 15 39 59.9960000  0  7G 1G11G14G15G19G22G25
 -12581250.98849  -9793583.00047  21644345.3404   21644344.0434
      5030.6074
 -11418004.57049  -8869418.41047  20866817.9734   20866814.7854
      4094.4994
  -2490996.31249  -1934091.30148  19926895.8564   19926892.5664
       521.9824
   2719868.92249   2110646.55947  22356552.7074   22356553.4144
     -1464.0144
   -226570.90649   -176304.17647  22746656.3244   22746652.4224
      -321.1134
   -751873.97349   -586003.80547  21700361.4814   21700357.6844
        43.6094
 -13118477.27049 -10188557.08247  20832003.8714   20832001.7894
      4943.1094
 04  9  2 15 40 14.9960000  0  7G 1G11G14G15G19G22G25
 -12656648.20349  -9852334.05547  21629997.6914   21629996.3364
      5026.4814
 -11479307.46149  -8917186.90647  20855152.3244   20855149.2314
      4086.8594
  -2498749.59449  -1940132.82448  19925420.0514   19925417.3204
       516.8854
   2741877.11749   2127795.74247  22360741.0044   22360741.0944
     -1467.2134
   -221700.70749   -172509.23447  22747582.2774   22747579.3164
      -324.6804
   -752483.02049   -586478.41447  21700245.6214   21700241.9224
        40.6034
 -13192534.88349 -10246264.29747  20817910.8714   20817909.2274
      4937.1744
 04  9  2 15 40 29.9960000  0  7G 1G11G14G15G19G22G25
 -12731977.57449  -9911032.25847  21615663.1604   21615661.7234
      5021.9584
 -11540490.74249  -8964862.19547  20843509.8324   20843506.5514
      4078.8854
  -2506425.41049  -1946113.98448  19923959.4574   19923956.3094
       511.7214
   2763932.35249   2144981.60247  22364938.2774   22364937.7194
     -1470.3494
   -216776.84049   -168672.48447  22748519.4104   22748516.5984
      -328.2584
   -753046.13349   -586917.21947  21700138.7544   21700134.6914
        37.5414
 -13266497.50849 -10303897.48847  20803836.6454   20803834.7664
      4930.8424
 04  9  2 15 40 44.9960000  0  7G 1G11G14G15G19G22G25
 -12807240.13349  -9969678.39147  21601340.5824   21601339.4884
      5017.5044
 -11601555.25849  -9012444.93047  20831889.4814   20831886.5664
      4070.9684
  -2514025.07449  -1952035.80948  19922513.4574   19922510.5474
       506.6444
   2786033.18849   2162202.97347  22369143.7854   22369143.3204
     -1473.3894
   -211800.78549   -164795.06247  22749467.4344   22749463.4534
      -331.7374
   -753564.50849   -587321.16447  21700039.6764   21700036.2424
        34.5584
 -13340365.79749 -10361457.18447  20789779.6134   20789778.1294
      4924.5534
 04  9  2 15 40 59.9960000  0  7G 1G11G14G15G19G22G25
 -12882436.31649 -10028272.80547  21587031.7464   21587029.9694
      5013.0794
 -11662501.15249  -9059935.25047  20820292.2154   20820288.6454
      4063.0604
  -2521549.30149  -1957898.85548  19921081.4024   19921078.7584
       501.6154
   2808178.76249   2179459.21947  22373358.2934   22373357.9534
     -1476.3724
   -206773.46149   -160877.68747  22750423.9184   22750420.2584
      -335.1554
   -754038.71949   -587690.70347  21699949.7314   21699945.7934
        31.6144
 -13414140.08649 -10418943.62147  20775740.9344   20775738.6454
      4918.2864
 04  9  2 15 41 14.9960000  0  7G 1G11G14G15G19G22G25
 -12957566.32849 -10086815.65247  21572734.6604   21572733.4574
      5008.6674
 -11723328.61749  -9107333.27047  20808717.1524   20808713.6094
      4055.1644
  -2528998.63349  -1963703.54348  19919663.8244   19919661.0044
       496.6224
   2830368.50049   2196749.87947  22377581.3634   22377580.3564
     -1479.3164
   -201695.60249   -156920.93747  22751389.6214   22751386.6134
      -338.5244
   -754469.00449   -588026.00847  21699867.9104   21699864.3524
        28.6864
 -13487820.39849 -10476356.83247  20761720.1764   20761718.3014
      4912.0214
 04  9  2 15 41 29.9960000  0  7G 1G11G14G15G19G22G25
 -13032628.38749 -10145305.55947  21558450.8094   21558450.0394
      5004.1374
 -11784035.76649  -9154637.53947  20797164.6454   20797161.4844
      4047.1434
  -2536371.64849  -1969448.75848  19918261.0274   19918257.8244
       491.5344
   2852603.85949   2214076.08247  22381812.7704   22381811.0984
     -1482.3574
   -196565.71949   -152923.66847  22752365.7074   22752363.0634
      -341.9924
   -754853.69949   -588325.79747  21699794.5744   21699790.6174
        25.6464
 -13561404.64549 -10533695.18447  20747717.1844   20747715.5474
      4905.6164
 04  9  2 15 41 44.9960000  0  7G 1G11G14G15G19G22G25
 -13107625.17249 -10203744.59847  21544179.5904   21544178.2154
      4999.7864
 -11844625.19949  -9201850.08647  20785634.9184   20785631.5904
      4039.2964
  -2543671.42649  -1975136.90648  19916871.7154   19916868.9494
       486.6524
   2874881.77749   2231435.44947  22386051.5514   22386050.9494
     -1485.1954
   -191387.20349   -148888.50447  22753351.8794   22753348.0664
      -345.2344
   -755195.66449   -588592.28547  21699729.6914   21699726.0434
        22.7984
 -13634895.40649 -10590960.69947  20733732.4964   20733730.6254
      4899.3844
 04  9  2 15 41 59.9960000  0  7G 1G11G14G15G19G22G25
 -13182558.30549 -10262134.03147  21529920.6454   21529918.8164
      4995.5424
 -11905098.32049  -9248972.00047  20774127.4264   20774124.1064
      4031.5414
  -2550899.78149  -1980769.40248  19915496.3404   19915493.5274
       481.8904
   2897200.22349   2248826.39147  22390298.3484   22390298.3954
     -1487.8964
   -186161.95749   -144816.91447  22754346.6454   22754342.8364
      -348.3504
   -755496.55949   -588826.77047  21699672.0354   21699668.7504
        20.0604
 -13708294.13349 -10648154.49247  20719765.2544   20719763.2894
      4893.2484
 04  9  2 15 42 14.9960000  0  7G 1G11G14G15G19G22G25
 -13257425.41849 -10320472.02747  21515673.7154   21515672.0474
      4991.1414
 -11965452.64549  -9296001.34847  20762642.1684   20762638.6484
      4023.6224
  -2558054.69949  -1986344.67248  19914134.8324   19914132.0314
       476.9954
   2919561.19149   2266250.47747  22394554.0984   22394553.7384
     -1490.7314
   -180888.23449   -140707.53947  22755349.5274   22755346.3714
      -351.5824
   -755754.11349   -589027.48447  21699622.6844   21699619.5634
        17.1704
 -13781598.14549 -10705274.48447  20705815.8794   20705814.3094
      4886.9344
 04  9  2 15 42 29.9960000  0  7G 1G11G14G15G19G22G25
 -13332224.55149 -10378757.05547  21501439.8484   21501438.4184
      4986.6094
 -12025686.09849  -9342936.50047  20751180.1064   20751176.8794
      4015.5644
  -2565134.48849  -1991861.40648  19912787.5664   19912784.7194
       471.9864
   2941966.24249   2283708.92247  22398817.6604   22398817.0234
     -1493.6704
   -175564.48449   -136559.19547  22756362.8954   22756359.8404
      -354.9174
   -755966.47349   -589192.98047  21699582.6914   21699579.5234
        14.1574
 -13854805.34449 -10762319.03947  20691885.3014   20691883.4304
      4880.4804
 04  9  2 15 42 44.9960000  0  7G 1G11G14G15G19G22G25
 -13406955.76649 -10436989.14847  21487218.9104   21487217.4344
      4982.0814
 -12085798.52749  -9389777.35547  20739741.1064   20739737.7114
      4007.4954
  -2572139.61349  -1997319.95348  19911454.7074   19911451.7464
       467.0084
   2964414.93849   2301201.34846  22403089.1294   22403089.0594
     -1496.5804
   -170191.27749   -132372.30947  22757384.7934   22757381.8444
      -358.2144
   -756133.81649   -589323.40247  21699551.2544   21699547.5164
        11.1564
 -13927915.58249 -10819288.03947  20677972.7314   20677970.5514
      4874.0164
 04  9  2 15 42 59.9960000  0  7G 1G11G14G15G19G22G25
 -13481621.78949 -10495170.45347  21473010.4344   21473009.0824
      4977.7354
 -12145792.54749  -9436525.94547  20728324.7544   20728321.5704
      3999.6014
  -2579073.01649  -2002722.61348  19910135.2234   19910132.3364
       462.2274
   2986904.08249   2318725.28947  22407368.9964   22407368.6804
     -1499.2764
   -164771.76649   -128149.33247  22758416.0824   22758413.0554
      -361.3014
   -756258.92649   -589420.91047  21699526.7704   21699523.9024
         8.3414
 -14000931.34849 -10876183.41847  20664078.3794   20664076.1954
      4867.7184
 04  9  2 15 43 14.9960000  0  7G 1G11G14G15G19G22G25
 -13556220.83249 -10553299.55547  21458814.8324   21458813.5124
      4973.2704
 -12205666.34049  -9483180.85247  20716931.0044   20716927.7624
      3991.5864
  -2585933.23849  -2008068.25448  19908829.9024   19908826.8204
       457.3484
   3009435.18449   2336281.95747  22411657.0124   22411655.9654
     -1502.0734
   -159304.58649   -123889.23847  22759456.5824   22759453.6524
      -364.4794
   -756340.15249   -589484.21947  21699511.9184   21699507.9574
         5.4154
 -14073850.63349 -10933003.62947  20650201.9264   20650200.3164
      4861.2864
 04  9  2 15 43 29.9960000  0  7G 1G11G14G15G19G22G25
 -13630753.85549 -10611377.22347  21444631.7384   21444630.2074
      4968.8684
 -12265420.67249  -9529742.66847  20705560.2934   20705557.2544
      3983.6224
  -2592721.66049  -2013357.94948  19907537.7464   19907535.4024
       452.5614
   3032006.89849   2353870.27047  22415952.2314   22415951.6804
     -1504.7814
   -153791.30149   -119593.20747  22760506.1524   22760502.7074
      -367.5524
   -756378.59849   -589514.19947  21699504.5434   21699500.9774
         2.5634
 -14146674.34449 -10989749.35547  20636344.0664   20636342.1844
      4854.9144
 04  9  2 15 43 44.9960000  0  7G 1G11G14G15G19G22G25
 -13705220.84849 -10669403.42647  21430461.2624   21430459.9104
      4964.4664
 -12325055.47749  -9576211.34447  20694212.0124   20694208.6954
      3975.6544
  -2599438.64549  -2018591.97348  19906260.0594   19906257.1644
       447.7994
   3054618.84449   2371489.91847  22420254.6374   22420254.8714
     -1507.4634
   -148232.37149   -115261.58247  22761563.2704   22761560.5664
      -370.5954
   -756374.37949   -589510.93447  21699505.3014   21699501.6174
        -0.2814
 -14219402.09849 -11046420.32447  20622504.8244   20622502.5354
      4848.5174
 04  9  2 15 43 59.9960000  0  7G 1G11G14G15G19G22G25
 -13779619.59049 -10727376.45347  21416303.3014   21416302.3364
      4959.9164
 -12384568.40649  -9622585.05947  20682887.0354   20682883.8594
      3967.5294
  -2606082.14549  -2023768.73848  19904995.7934   19904992.9344
       442.9004
   3077272.82849   2389142.32847  22424566.2234   22424565.5784
     -1510.2664
   -142625.97749   -110893.01247  22762630.3164   22762627.4104
      -373.7604
   -756325.35549   -589472.76247  21699514.8014   21699510.9924
        -3.2684
 -14292031.58649 -11103014.71147  20608683.5514   20608681.6484
      4841.9664
 04  9  2 15 44 14.9960000  0  7G 1G11G14G15G19G22G25
 -13853953.48449 -10785298.96147  21402157.8484   21402156.5744
      4955.5934
 -12443962.70349  -9668866.33247  20671584.4734   20671581.5514
      3959.6204
  -2612655.95349  -2028891.19548  19903744.6684   19903742.0434
       438.2544
   3099965.10549   2406824.57446  22428883.6134   22428883.7234
     -1512.8184
   -136976.06249   -106490.49647  22763704.7314   22763703.1724
      -376.6614
   -756234.98449   -589402.36347  21699531.6064   21699528.0274
        -6.0254
 -14364565.91449 -11159534.94947  20594880.8324   20594878.9414
      4835.6224
 04  9  2 15 44 29.9960000  0  7G 1G11G14G15G19G22G25
 -13928221.59849 -10843170.19947  21388025.2624   21388023.9924
      4951.2084
 -12503237.22749  -9715054.27347  20660305.0044   20660302.1644
      3951.6354
  -2619159.31249  -2033958.76248  19902507.0984   19902504.3484
       433.5574
   3122696.17649   2424537.05546  22433209.0664   22433209.4924
     -1515.4054
   -131282.03549   -102053.63747  22764789.4574   22764786.3874
      -379.6024
   -756102.50449   -589299.15647  21699556.6764   21699553.6604
        -8.8324
 -14437003.98849 -11215980.19547  20581096.0904   20581093.9414
      4829.2054
 04  9  2 15 44 44.9960000  0  7G 1G11G14G15G19G22G25
 -14002423.73849 -10900990.02747  21373904.8404   21373903.4494
      4946.8094
 -12562391.63349  -9761148.61747  20649048.3164   20649045.6884
      3943.6274
  -2625592.37949  -2038971.55148  19901283.0124   19901280.2384
       428.8714
   3145465.92249   2442279.65647  22437543.1994   22437542.2504
     -1517.9834
   -125544.20749    -97582.64147  22765881.4494   22765878.2114
      -382.5224
   -755927.74249   -589163.01247  21699590.2074   21699586.8984
       -11.6514
 -14509345.46549 -11272350.15647  20567329.8014   20567327.9344
      4822.7654
 04  9  2 15 44 59.9960000  0  7G 1G11G14G15G19G22G25
 -14076558.67249 -10958757.49247  21359797.5204   21359796.9224
      4942.3294
 -12621424.71949  -9807148.43047  20637814.6994   20637811.7544
      3935.5394
  -2631954.35949  -2043928.94948  19900072.5354   19900069.3984
       424.1324
   3168275.17249   2460053.07446  22441882.3874   22441883.2464
     -1520.6174
   -119761.90649    -93076.98847  22766982.1524   22766978.2234
      -385.4874
   -755709.65649   -588993.09847  21699632.1994   21699628.4384
       -14.5394
 -14581588.96949 -11328643.77747  20553582.2934   20553580.6644
      4816.2344
 04  9  2 15 45 14.9960000  0  7G 1G11G14G15G19G22G25
 -14150625.40649 -11016471.82047  21345702.9964   21345702.2274
      4937.7824
 -12680335.46149  -9853052.90247  20626604.5124   20626601.6914
      3927.3834
  -2638244.53149  -2048830.39148  19898875.4734   19898872.6334
       419.3454
   3191124.47349   2477857.64846  22446231.2544   22446230.9534
     -1523.2874
   -113934.60549    -88536.25447  22768090.6764   22768087.4454
      -388.4874
   -755447.38349   -588788.75047  21699681.9104   21699678.1684
       -17.4854
 -14653733.34049 -11384860.15247  20539853.7704   20539851.8914
      4809.6254
 04  9  2 15 45 29.9960000  0  7G 1G11G14G15G19G22G25
 -14224623.85249 -11074132.93047  21331621.6994   21331620.7034
      4933.2304
 -12739123.40649  -9898861.69547  20615417.5984   20615414.2624
      3919.1964
  -2644463.13749  -2053676.07448  19897692.0744   19897688.8324
       414.5744
   3214013.57849   2495693.28146  22450586.9264   22450586.4264
     -1525.9404
   -108062.60549    -83960.70747  22769207.9414   22769204.9454
      -391.4674
   -755140.91449   -588549.96147  21699740.4184   21699736.4734
       -20.4314
 -14725778.21949 -11440999.00847  20526144.1134   20526142.1374
      4802.9924
 04  9  2 15 45 44.9960000  0  7G 1G11G14G15G19G22G25
 -14298556.05549 -11131742.43047  21317553.0434   21317551.6954
      4928.8144
 -12797790.53549  -9944576.34447  20604253.5514   20604250.4814
      3911.1424
  -2650612.50849  -2058467.80148  19896521.8714   19896519.0204
       409.9584
   3236940.01249   2513557.98846  22454949.8564   22454949.8634
     -1528.4294
   -102148.43049    -79352.29347  22770333.6684   22770330.0394
      -394.2784
   -754792.32849   -588278.35247  21699806.5514   21699802.6214
       -23.2394
 -14797725.33649 -11497061.68047  20512453.3794   20512450.9224
      4796.4744
 04  9  2 15 45 59.9960000  0  7G 1G11G14G15G19G22G25
 -14372421.27349 -11189299.72347  21303496.7854   21303495.3364
      4924.3484
 -12856336.08649  -9990196.25047  20593112.8244   20593109.8094
      3903.0374
  -2656692.20749  -2063205.24248  19895365.0824   19895362.1564
       405.3134
   3259904.18849   2531452.09046  22459320.6604   22459318.9814
     -1530.9454
    -96191.86349    -74710.84447  22771466.6214   22771464.5124
      -397.1044
   -754401.02049   -587973.46147  21699881.1454   21699877.3484
       -26.0874
 -14869573.86749 -11553047.53547  20498780.7154   20498778.6844
      4789.9024
 04  9  2 15 46 14.9960000  0  7G 1G11G14G15G19G22G25
 -14446219.83249 -11246805.08647  21289453.8874   21289452.1524
      4919.9044
 -12914760.05549 -10035721.43047  20581994.5904   20581992.3244
      3894.9314
  -2662702.86349  -2067888.87948  19894220.9414   19894218.1414
       400.7104
   3282905.41849   2549375.07846  22463696.5204   22463696.5434
     -1533.4154
    -90193.72749    -70037.01247  22772608.1994   22772605.5204
      -399.8764
   -753967.42649   -587635.62147  21699963.3094   21699960.0904
       -28.9064
 -14941323.92249 -11608956.65647  20485127.2704   20485125.0124
      4783.3374
 04  9  2 15 46 29.9960000  0  7G 1G11G14G15G19G22G25
 -14519952.10549 -11304258.78947  21275422.8164   21275420.9814
      4915.4854
 -12973062.76649 -10081152.12147  20570900.3484   20570897.4024
      3886.8474
  -2668645.13749  -2072519.23847  19893090.5664   19893087.4494
       396.1524
   3305943.00049   2567326.40646  22468080.7934   22468080.0744
     -1535.8394
    -84154.82449    -65331.39547  22773758.3714   22773754.9654
      -402.5934
   -753492.02749   -587265.20347  21700053.9964   21700050.3244
       -31.6934
 -15012975.69149 -11664789.18447  20471492.1914   20471490.2114
      4776.7854
 04  9  2 15 46 44.9960000  0  7G 1G11G14G15G19G22G25
 -14593615.65249 -11361658.94147  21261405.1134   21261403.2814
      4910.9034
 -13031241.63749 -10126486.30547  20559829.4884   20559826.4184
      3878.5914
  -2674516.93449  -2077094.67648  19891973.0354   19891970.4104
       391.4534
   3329018.92249   2585307.60946  22472471.8164   22472471.4064
     -1538.3954
    -78073.12149    -60592.44947  22774914.9104   22774911.9304
      -405.4474
   -752972.55149   -586860.44547  21700152.9814   21700149.2814
       -34.6324
 -15084526.53149 -11720543.07447  20457876.7314   20457874.4774
      4770.0564
 04  9  2 15 46 59.9960000  0  7G 1G11G14G15G19G22G25
 -14667210.28549 -11419005.40247  21247400.2774   21247398.8204
      4906.3094
 -13089296.37149 -10171723.76247  20548781.8484   20548778.8244
      3870.3164
  -2680318.28949  -2081615.22348  19890869.2934   19890866.1764
       386.7574
   3352133.13349   2603318.64146  22476869.5434   22476870.1604
     -1540.9474
    -71948.96549    -55820.40247  22776080.6294   22776077.1884
      -408.2774
   -752408.71949   -586421.11747  21700260.0594   21700256.0434
       -37.5894
 -15155976.00849 -11776217.98047  20444280.2854   20444278.0704
      4763.2984
 04  9  2 15 47 14.9960000  0  7G 1G11G14G15G19G22G25
 -14740737.25049 -11476299.13747  21233408.8164   21233407.0434
      4901.7984
 -13147228.19149 -10216865.44947  20537757.5594   20537754.7854
      3862.1214
  -2686050.84849  -2086082.16448  19889778.0124   19889775.4414
       382.1714
   3375283.90249   2621358.13746  22481276.7234   22481275.9814
     -1543.3854
    -65784.04749    -51016.60547  22777253.2384   22777250.7774
      -410.9954
   -751802.08649   -585948.43047  21700375.7774   21700371.7854
       -40.4424
 -15227325.25449 -11831814.77347  20430702.9344   20430700.8324
      4756.6164
 04  9  2 15 47 29.9960000  0  7G 1G11G14G15G19G22G25
 -14814194.93749 -11533538.87147  21219430.0824   21219428.4024
      4897.1794
 -13205035.40649 -10261910.03547  20526757.5594   20526754.4884
      3853.8144
  -2691713.29349  -2090494.46948  19888700.6994   19888697.8094
       377.4964
   3398472.53949   2639427.14846  22485688.6764   22485688.3564
     -1545.9094
    -59577.04749    -46180.03147  22778434.0824   22778432.0704
      -413.8004
   -751151.09049   -585441.19147  21700499.4104   21700495.6914
       -43.4004
 -15298572.49249 -11887332.09047  20417145.0594   20417142.7074
      4749.8164
 04  9  2 15 47 44.9960000  0  7G 1G11G14G15G19G22G25
 -14887583.83249 -11590725.01647  21205464.2464   21205462.7854
      4892.5934
 -13262718.22749 -10306857.69147  20515780.7774   20515777.5784
      3845.5214
  -2697306.37549  -2094852.73048  19887636.3014   19887633.6024
       372.8724
   3421698.10249   2657524.94546  22490108.6524   22490108.2774
     -1548.3714
    -53329.13349    -41311.55947  22779624.0044   22779620.9264
      -416.5284
   -750456.28549   -584899.80947  21700631.7314   21700628.2934
       -46.3204
 -15369718.02749 -11942770.15247  20403606.4184   20403604.2384
      4743.0364
 04  9  2 15 47 59.9960000  0  7G 1G11G14G15G19G22G25
 -14960904.91449 -11647858.31647  21191511.8404   21191510.6294
      4888.0724
 -13320277.58649 -10351709.14547  20504827.5594   20504824.6844
      3837.2914
  -2702831.44549  -2099157.99248  19886585.1294   19886581.9534
       368.3384
   3444959.22349   2675650.44546  22494535.1064   22494534.3484
     -1550.7414
    -47041.77049    -36412.34447  22780820.2464   22780817.3834
      -419.1584
   -749718.71149   -584325.10547  21700771.9264   21700768.5434
       -49.1724
 -15440762.55949 -11998129.52047  20390087.4264   20390084.9454
      4736.3024
 04  9  2 15 48 14.9960000  0  7G 1G11G14G15G19G22G25
 -15034158.28949 -11704938.84847  21177572.5204   21177571.2814
      4883.5584
 -13377713.48849 -10396464.39547  20493897.9734   20493894.8134
      3829.0604
  -2708288.86349  -2103410.53547  19885546.5984   19885543.3484
       363.8284
   3468255.46149   2693803.30546  22498968.2234   22498968.1524
     -1553.0834
    -40715.54749    -31482.85247  22782024.4414   22782021.5864
      -421.7484
   -748938.60549   -583717.25447  21700920.6914   21700917.0164
       -52.0074
 -15511705.98449 -12053410.08647  20376586.9734   20376584.7664
      4729.5624
 04  9  2 15 48 29.9960000  0  7G 1G11G14G15G19G22G25
 -15107345.71949 -11761968.00447  21163645.0904   21163644.0394
      4879.1624
 -13435027.48849 -10441124.66447  20482991.5354   20482988.2664
      3820.9334
  -2713680.62949  -2107611.92248  19884520.2074   19884517.4184
       359.4514
   3491584.69149   2711981.86746  22503407.6994   22503407.3014
     -1555.2824
    -34352.57449    -26524.75447  22783235.2314   22783232.1914
      -424.1984
   -748117.82449   -583077.70747  21701076.3954   21701072.9924
       -54.7194
 -15582549.83249 -12108613.07047  20363106.1064   20363104.0634
      4722.9234
 04  9  2 15 48 44.9960000  0  7G 1G11G14G15G19G22G25
 -15180466.02049 -11818944.85247  21149731.0514   21149729.4344
      4874.6874
 -13492218.31249 -10485688.94947  20472108.3714   20472105.2344
      3812.7224
  -2719005.91849  -2111761.51248  19883507.0984   19883504.3634
       355.0194
   3514947.73049   2730186.77747  22507853.5354   22507853.5864
     -1557.5364
    -27952.11349    -21537.40647  22784452.1294   22784450.0314
      -426.6974
   -747255.32849   -582405.65647  21701240.9654   21701237.0904
       -57.5004
 -15653292.87949 -12163737.51247  20349644.0744   20349641.9104
      4716.2034
 04  9  2 15 48 59.9960000  0  7G 1G11G14G15G19G22G25
 -15253518.82449 -11875869.09447  21135829.1454   21135827.9024
      4870.1874
 -13549285.42649 -10530156.82847  20461248.9494   20461246.0944
      3804.4744
  -2724264.66049  -2115859.24647  19882506.4104   19882503.4264
       350.5834
   3538344.46949   2748417.93046  22512304.9344   22512305.9654
     -1559.7834
    -21514.26249    -16520.94947  22785677.9414   22785674.9454
      -429.1904
   -746350.84449   -581700.88747  21701413.1374   21701409.4574
       -60.2994
 -15723934.37549 -12218782.81647  20336201.1134   20336198.9814
      4709.4334
 04  9  2 15 49 14.9960000  0  7G 1G11G14G15G19G22G25
 -15326505.13349 -11932741.53947  21121940.2934   21121939.0514
      4865.7544
 -13606229.82049 -10574529.08647  20450413.0594   20450409.8404
      3796.2934
  -2729458.15649  -2119906.14147  19881517.8484   19881514.9814
       346.2334
   3561773.69549   2766674.40647  22516763.9104   22516764.2584
     -1561.9484
    -15040.62949    -11476.59047  22786909.6294   22786907.1024
      -431.5764
   -745405.44949   -580964.23447  21701592.8094   21701589.7664
       -63.0264
 -15794475.28149 -12273749.74247  20322777.8954   20322775.6294
      4702.7274
 04  9  2 15 49 29.9960000  0  7G 1G11G14G15G19G22G25
 -15399424.32849 -11989561.68447  21108064.2314   21108063.5824
      4861.2804
 -13663050.65249 -10618805.07047  20439599.9414   20439596.9104
      3788.0554
  -2734586.07449  -2123901.92648  19880542.5514   19880539.2584
       341.8614
   3585235.55949   2784956.30547  22521228.5274   22521228.9144
     -1564.1244
     -8530.83649     -6404.07047  22788148.3564   22788146.0554
      -433.9864
   -744418.59049   -580195.28547  21701781.1454   21701777.0904
       -65.7914
 -15864914.80949 -12328637.67247  20309373.5354   20309371.5864
      4695.9684
 04  9  2 15 49 44.9960000  0  7G 1G11G14G15G19G22G25
 -15472274.85549 -12046328.31247  21094201.3874   21094200.0314
      4856.7024
 -13719746.27349 -10662983.47747  20428811.2074   20428808.0824
      3779.7084
  -2739647.16849  -2127845.64847  19879579.1994   19879576.4104
       337.4064
   3608731.19549   2803264.54347  22525700.1214   22525699.9494
     -1566.3764
     -1984.00049     -1302.68447  22789394.2154   22789392.2314
      -436.4564
   -743388.83249   -579392.89147  21701977.2774   21701973.1454
       -68.6514
 -15935251.20349 -12383445.23847  20295989.0434   20295987.1064
      4689.0934
 04  9  2 15 49 59.9960000  0  7G 1G11G14G15G19G22G25
 -15545057.07449 -12103041.71147  21080351.4104   21080350.3164
      4852.1484
 -13776316.99649 -10707064.56647  20418046.3714   20418043.4344
      3771.3824
  -2744642.16449  -2131737.86748  19878628.8714   19878625.9264
       333.0004
   3632259.98849   2821598.60947  22530177.6134   22530177.5864
     -1568.5864
      4599.03949      3826.91047  22790647.5204   22790645.6334
      -438.8694
   -742316.62149   -578557.42647  21702180.5824   21702177.2274
       -71.4814
 -16005484.60949 -12438172.54747  20282623.8484   20282622.0824
      4682.2274
 04  9  2 15 50 14.9960000  0  7G 1G11G14G15G19G22G25
 -15617769.56249 -12159700.78147  21066514.4184   21066513.2854
      4847.4994
 -13832761.27049 -10751047.10947  20407305.4884   20407302.2774
      3762.9524
  -2749569.89549  -2135577.68048  19877690.9964   19877687.9814
       328.5154
   3655823.02049   2839959.35547  22534661.4494   22534661.0434
     -1570.8694
     11219.52349      8985.68047  22791906.8484   22791904.9964
      -441.3664
   -741200.67649   -577687.88747  21702393.4104   21702389.7584
       -74.3964
 -16075613.31649 -12492818.27347  20269278.9104   20269276.8404
      4675.2474
 04  9  2 15 50 29.9960000  0  7G 1G11G14G15G19G22G25
 -15690411.73849 -12216305.05947  21052691.2384   21052689.8914
      4842.8124
 -13889078.43049 -10794930.61747  20396588.3874   20396585.1644
      3754.4774
  -2754430.15649  -2139364.90248  19876766.0434   19876763.2624
       324.0174
   3679420.40249   2858346.87947  22539152.3484   22539151.5044
     -1573.1594
     17877.33649     14173.55547  22793174.3404   22793171.6174
      -443.8544
   -740040.51649   -576783.89547  21702613.8164   21702610.1454
       -77.3444
 -16145636.62549 -12547381.86747  20255954.0594   20255951.9264
      4668.2214
 04  9  2 15 50 44.9960000  0  7G 1G11G14G15G19G22G25
 -15762985.10249 -12272855.71147  21038881.2854   21038879.9454
      4838.2244
 -13945269.73849 -10838716.06247  20385895.4964   20385892.4654
      3746.0874
  -2759224.65249  -2143100.89147  19875853.6214   19875850.6844
       319.6334
   3703050.16049   2876759.62946  22543648.6764   22543648.5204
     -1575.3174
     24570.64149     19389.06646  22794448.4884   22794445.4384
      -446.2204
   -738837.72749   -575846.68047  21702843.0124   21702839.5234
       -80.1864
 -16215555.77749 -12601864.30947  20242649.1064   20242646.8204
      4661.2774
 04  9  2 15 50 59.9960000  0  6G 1G11G14G15G22G25
 -15835487.92649 -12329351.41047  21025084.2314   21025082.6954
      4833.5224
 -14001333.48849 -10882402.09847  20375226.9184   20375224.0124
      3737.5834
  -2763951.98049  -2146784.53548  19874954.2314   19874951.4614
       315.1554
   3726713.76649   2895198.75847  22548151.2464   22548151.5784
     -1577.5744
   -737590.59449   -574874.90247  21703080.2384   21703076.5824
       -83.1424
 -16285368.97749 -12656264.18747  20229363.5204   20229361.7314
      4654.2134
 04  9  2 15 51 14.9950000  0  6G 1G11G14G15G22G25
 -15907917.44949 -12385789.98847  21011301.3044   21011299.9804
      4828.6354
 -14057267.82449 -10925987.30147  20364583.0624   20364579.8514
      3728.9564
  -2768614.18049  -2150417.43448  19874066.8744   19874064.1874
       310.8134
   3750407.30549   2913661.21546  22552659.6084   22552659.8004
     -1579.5694
   -736301.41449   -573870.37947  21703325.8434   21703322.0424
       -85.9454
 -16355073.50849 -12710579.38347  20216099.4914   20216097.2734
      4646.9694
 04  9  2 15 51 29.9950000  0  6G 1G11G14G15G22G25
 -15980284.00449 -12442179.48447  20997529.9914   20997529.2454
      4824.4374
 -14113080.74249 -10969477.88747  20353962.1554   20353958.8624
      3720.8614
  -2773212.77349  -2154000.76647  19873191.8194   19873188.8274
       306.5734
   3774132.83249   2932148.57846  22557175.9684   22557174.9054
     -1581.7024
   -734970.79349   -572833.55947  21703578.7804   21703575.4724
       -88.7084
 -16424679.10949 -12764817.50447  20202853.8194   20202851.7534
      4640.3734
 04  9  2 15 51 44.9950000  0  6G 1G11G14G15G22G25
 -16052581.94149 -12498515.53147  20983772.1554   20983771.3194
      4819.8634
 -14168767.60549 -11012870.25047  20343365.2024   20343362.4294
      3712.4584
  -2777747.07849  -2157534.00447  19872329.2264   19872326.3784
       302.2874
   3797889.27349   2950660.06646  22561696.2884   22561695.3354
     -1583.7634
   -733598.15649   -571763.99247  21703839.9684   21703836.3474
       -91.5094
 -16494180.03149 -12818974.03947  20189628.1554   20189625.9294
      4633.3954
 04  9  2 15 51 59.9950000  0  6G 1G11G14G15G22G25
 -16124807.90649 -12554795.48847  20970028.4294   20970026.8194
      4815.0644
 -14224324.97749 -11056161.71547  20332793.0464   20332790.4644
      3703.8254
  -2782213.86749  -2161014.62548  19871479.1484   19871476.6124
       297.7864
   3821679.59849   2969197.92646  22566222.9834   22566222.5304
     -1586.0224
   -732180.18449   -570659.10247  21704110.0464   21704106.3044
       -94.5324
 -16563572.60549 -12873046.15647  20176423.2964   20176420.9954
      4626.1724
 04  9  2 15 52 14.9950000  0  6G 1G11G14G15G22G25
 -16196962.56249 -12611019.88747  20956297.8824   20956296.6014
      4810.3104
 -14279753.34849 -11099352.65247  20322245.6794   20322242.7304
      3695.2254
  -2786614.13349  -2164443.41848  19870641.7574   19870638.9834
       293.3514
   3845502.76249   2987761.37946  22570756.8744   22570756.2104
     -1588.2114
   -730717.64149   -569519.47347  21704388.2414   21704384.9644
       -97.5034
 -16632857.47349 -12927034.34847  20163238.8434   20163236.9564
      4618.9914
 04  9  2 15 52 29.9950000  0  6G 1G11G14G15G22G25
 -16269047.69549 -12667190.10247  20942580.3984   20942579.1054
      4805.6764
 -14335054.50049 -11142444.46547  20311722.0624   20311719.0584
      3686.7434
  -2790950.00849  -2167822.03548  19869816.7804   19869813.9374
       289.0584
   3869356.39549   3006348.58646  22575296.0934   22575295.8044
     -1590.2424
   -729212.45349   -568346.62147  21704674.4134   21704670.8624
      -100.3464
 -16702036.31649 -12980939.92647  20150074.4134   20150072.5774
      4611.9234
 04  9  2 15 52 44.9950000  0  6G 1G11G14G15G22G25
 -16341061.36349 -12723304.64147  20928876.5074   20928875.0304
      4800.9114
 -14390226.23449 -11185435.43047  20301223.1554   20301220.3554
      3678.1164
  -2795219.89549  -2171149.24247  19869004.1554   19869001.5384
       284.6594
   3893242.24249   3024960.88346  22579841.3124   22579841.4804
     -1592.3904
   -727662.77349   -567139.10947  21704969.8664   21704966.1754
      -103.3124
 -16771106.93449 -13034761.16847  20136930.5624   20136928.7764
      4604.7084
 04  9  2 15 52 59.9950000  0  6G 1G11G14G15G22G25
 -16413004.91449 -12779364.53547  20915186.4914   20915184.8394
      4796.2374
 -14445269.92249 -11228326.62147  20290748.4834   20290745.6244
      3669.5794
  -2799425.36749  -2174426.24648  19868204.2734   19868201.1404
       280.3654
   3917158.61749   3043596.96946  22584392.1484   22584392.3624
     -1594.4254
   -726069.89549   -565897.92247  21705273.0774   21705269.2574
      -106.1924
 -16840070.51249 -13088499.00447  20123807.3744   20123805.6084
      4597.5724
 04  9  2 15 53 14.9950000  0  6G 1G11G14G15G22G25
 -16484878.12149 -12835369.62147  20901509.3434   20901508.0974
      4791.5474
 -14500185.23849 -11271117.78147  20280298.5074   20280295.6554
      3661.0214
  -2803566.48049  -2177653.09848  19867416.0854   19867412.9604
       276.0744
   3941105.41449   3062256.75846  22588949.2574   22588948.9874
     -1596.4534
   -724433.83249   -564623.09047  21705583.9604   21705580.8004
      -109.0714
 -16908926.63749 -13142153.10947  20110704.5544   20110702.3864
      4590.4084
 04  9  2 15 53 29.9950000  0  5G 1G11G14G22G25
 -16556680.96949 -12891319.88347  20887845.5854   20887844.2064
      4786.8574
 -14554971.96949 -11313808.74647  20269873.0694   20269869.9094
      3652.4494
  -2807643.55149  -2180830.05148  19866640.1634   19866637.1594
       271.8054
   -722754.53949   -563314.58247  21705903.6714   21705900.2844
      -111.9534
 -16977675.19549 -13195723.39147  20097621.8354   20097620.4094
      4583.2374
 04  9  2 15 53 44.9950000  0  5G 1G11G14G22G25
 -16628413.94949 -12947215.69547  20874195.1874   20874193.7654
      4782.1994
 -14609630.49249 -11356399.80947  20259472.0074   20259469.0934
      3643.9024
  -2811657.27049  -2183957.64147  19865876.6484   19865873.4134
       267.5814
   -721032.60549   -561972.83647  21706231.4214   21706227.6634
      -114.7964
 -17046316.21549 -13249209.88347  20084560.1084   20084558.3044
      4576.0684
 04  9  2 15 53 59.9950000  0  5G 1G11G14G22G25
 -16700076.39549 -13003056.55147  20860558.4834   20860557.2064
      4777.4964
 -14664160.03149 -11398890.35947  20249095.3514   20249092.2224
      3635.3034
  -2815607.40249  -2187035.67647  19865124.4444   19865122.0074
       263.3424
   -719267.51649   -560597.46547  21706567.0544   21706564.1124
      -117.6734
 -17114848.95349 -13302612.00447  20071518.8514   20071516.7184
      4568.8494
 04  9  2 15 54 14.9950000  0  5G 1G11G14G22G25
 -16771667.67649 -13058841.95747  20846935.1404   20846933.4444
      4772.7524
 -14718559.89149 -11441279.86347  20238743.6554   20238740.4914
      3626.6574
  -2819493.44149  -2190063.77048  19864385.2104   19864381.8864
       259.0694
   -717458.72349   -559188.04747  21706911.1554   21706907.6904
      -120.5864
 -17183272.67649 -13355929.17647  20058498.0624   20058496.1674
      4561.5824
 04  9  2 15 54 29.9950000  0  5G 1G11G14G22G25
 -16843187.32849 -13114571.53947  20833324.9054   20833323.4054
      4767.9774
 -14772829.48049 -11483567.86347  20228416.3274   20228413.2374
      3617.9734
  -2823315.26249  -2193041.82847  19863658.2024   19863655.0814
       254.7884
   -715605.84049   -557744.26647  21707264.3044   21707260.9804
      -123.5264
 -17251586.71949 -13409160.87547  20045498.4994   20045496.2144
      4554.2704
 04  9  2 15 54 44.9950000  0  5G 1G11G14G22G25
 -16914635.45349 -13170245.39147  20819728.7964   20819727.8434
      4763.2084
 -14826968.69549 -11525754.26647  20218113.6794   20218111.0304
      3609.2814
  -2827073.31249  -2195970.19547  19862942.8124   19862940.0504
       250.5374
   -713709.13349   -556266.32847  21707624.9214   21707621.4054
      -126.4474
 -17319790.95349 -13462307.02347  20032519.7654   20032517.5384
      4546.9494
 04  9  2 15 54 59.9950000  0  5G 1G11G14G22G25
 -16986011.25849 -13225862.89147  20806146.5074   20806145.1124
      4758.3874
 -14880976.73849 -11567838.46147  20207836.6324   20207833.6444
      3600.5364
  -2830767.05149  -2198848.44547  19862240.1874   19862236.9914
       246.2494
   -711767.83249   -554753.66047  21707994.3434   21707990.6944
      -129.4204
 -17387884.50049 -13515366.91047  20019561.7654   20019559.7024
      4539.5704
 04  9  2 15 55 14.9950000  0  5G 1G11G14G22G25
 -17057315.64549 -13281424.73447  20792577.6714   20792576.6594
      4753.6264
 -14934854.31649 -11609820.99247  20197583.7884   20197580.9724
      3591.8394
  -2834397.57449  -2201677.43747  19861549.0384   19861546.1284
       242.0354
   -709783.00449   -553207.05947  21708372.5234   21708368.6754
      -132.3224
 -17455867.98849 -13568341.04347  20006624.9764   20006622.8084
      4532.2334
 04  9  2 15 55 29.9950000  0  5G 1G11G14G22G25
 -17128549.26249 -13336931.44947  20779022.6714   20779021.1484
      4748.9084
 -14988602.12549 -11651702.40647  20187355.9524   20187352.8944
      3583.1874
  -2837965.92649  -2204457.98447  19860870.2734   19860867.2764
       237.8904
   -707755.33649   -551627.08647  21708757.5464   21708754.8744
      -135.1784
 -17523741.88749 -13621229.77747  19993708.9914   19993707.0194
      4524.9274
 04  9  2 15 55 44.9950000  0  5G 1G11G14G22G25
 -17199711.55149 -13392382.57047  20765480.8514   20765479.7374
      4744.1534
 -15042219.40249 -11693482.10247  20177152.9524   20177150.0154
      3574.4854
  -2841471.77749  -2207189.83647  19860202.8354   19860199.8434
       233.7234
   -705684.34849   -550013.35547  21709152.3124   21709148.6714
      -138.0664
 -17591505.37149 -13674032.48047  19980814.0074   19980811.5584
      4517.5664
 04  9  2 15 55 59.9950000  0  5G 1G11G14G22G25
 -17270805.15649 -13447780.16847  20751952.3984   20751951.0194
      4739.5744
 -15095708.61349 -11735162.01247  20166974.4684   20166971.2764
      3565.9474
  -2844918.05149  -2209875.25847  19859547.1554   19859544.2734
       229.7524
   -703572.72749   -548367.96147  21709553.7804   21709550.2304
      -140.7754
 -17659160.92249 -13726751.07847  19967939.5154   19967937.6284
      4510.3704
 04  9  2 15 56 14.9950000  0  5G 1G11G14G22G25
 -17341829.50849 -13503123.81247  20738436.9294   20738435.4404
      4734.9574
 -15149069.12549 -11776741.63747  20156820.3274   20156817.3664
      3557.3674
  -2848304.40649  -2212513.99247  19858902.5934   19858899.8044
       225.7574
   -701420.00849   -546690.55947  21709963.3194   21709960.4994
      -143.5154
 -17726707.92249 -13779385.08247  19955085.7414   19955083.5344
      4503.1334
 04  9  2 15 56 29.9950000  0  6G 1G20G11G14G22G25
 -17412784.33249 -13558413.27747  20724934.3514   20724932.9524
      4730.3224
   -198637.49259   -142141.07856  22665476.4764   22665473.6484

 -15202300.50049 -11818220.62947  20146690.6164   20146687.6484
      3548.7584
  -2851630.89549  -2215106.07847  19858270.0544   19858266.7304
       221.7664
   -699225.95749   -544980.92647  21710380.9834   21710377.7334
      -146.2704
 -17794145.84049 -13831934.09847  19942252.8124   19942250.7414
      4495.8614
 04  9  2 15 56 44.9950000  0  6G 1G20G11G14G22G25
 -17483670.09449 -13613648.93047  20711445.3824   20711444.0654
      4725.7174
   -279202.32449   -204918.87946  22650145.0774   22650142.0624
      5370.9894
 -15255403.24649 -11859599.40247  20136585.6484   20136582.3474
      3540.1834
  -2854898.33249  -2217652.14847  19857647.8434   19857645.1904
       217.8294
   -696991.15649   -543239.55547  21710806.7184   21710803.3744
      -148.9874
 -17861474.94949 -13884398.32848  19929440.1944   19929438.2494
      4488.6074
 04  9  2 15 56 59.9950000  0  6G 1G20G11G14G22G25
 -17554488.22349 -13668831.87947  20697968.8984   20697967.6404
      4721.2094
   -359764.79749   -267694.83246  22634814.4834   22634811.8194
      5370.8324
 -15308378.64849 -11900878.94547  20126504.4134   20126501.6834
      3531.6934
  -2858108.43449  -2220153.53147  19857036.9294   19857034.2264
       214.0074
   -694717.22749   -541467.69547  21711239.5854   21711235.1904
      -151.5954
 -17928696.63749 -13936778.84447  19916648.6014   19916646.3984
      4481.4464
 04  9  2 15 57 14.9950000  0  6G 1G20G11G14G22G25
 -17625236.57849 -13723960.45747  20684506.2884   20684504.6164
      4716.5574
   -440322.73849   -330467.26646  22619485.4914   22619481.7804
      5370.5294
 -15361224.52349 -11942057.54347  20116448.1164   20116445.3004
      3523.0584
  -2861259.35549  -2222608.81247  19856437.4604   19856434.4994
       210.0614
   -692402.08249   -539663.70347  21711680.1634   21711676.6054
      -154.3434
 -17995808.52049 -13989073.80547  19903877.2804   19903875.4334
      4474.1264
 04  9  2 15 57 29.9950000  0  6G 1G20G11G14G22G25
 -17695916.75849 -13779035.92247  20671056.0854   20671054.3864
      4712.0124
   -520877.75049   -393237.39146  22604155.9834   22604153.2574
      5370.3344
 -15413942.28549 -11983136.32847  20106416.5774   20106413.8864
      3514.5174
  -2864352.85249  -2225019.34047  19855848.7804   19855846.0854
       206.2334
   -690047.42249   -537828.92647  21712127.8514   21712124.5154
      -156.9774
 -18062811.86749 -14041284.19147  19891127.4134   19891124.8744
      4466.8904
 04  9  2 15 57 44.9950000  0  6G 1G20G11G14G22G25
 -17766525.56249 -13834055.76247  20657620.0304   20657618.0654
      4707.2544
   -601426.57849   -456002.71946  22588828.4134   22588825.3434
      5369.9224
 -15466528.75449 -12024112.79747  20096409.8584   20096407.0154
      3505.7654
  -2867386.08649  -2227382.91047  19855271.6944   19855268.8824
       202.2164
   -687650.12949   -535960.93747  21712584.2734   21712580.6054
      -159.8204
 -18129703.45749 -14093407.49247  19878398.6404   19878396.2884
      4459.4394
 04  9  2 15 57 59.9950000  0  6G 1G20G11G14G22G25
 -17837067.74649 -13889023.69147  20644196.1944   20644194.5654
      4702.8124
   -681973.89549   -518766.85246  22573500.0544   22573497.5074
      5369.8214
 -15518988.36749 -12064990.41847  20086426.8744   20086424.0034
      3497.3084
  -2870364.09449  -2229703.45347  19854704.9834   19854702.3944
       198.5344
   -685215.00849   -534063.46947  21713047.7264   21713044.1324
      -162.3414
 -18196487.81649 -14145447.23848  19865689.4054   19865687.5154
      4452.2914
 04  9  2 15 58 14.9950000  0  6G 1G20G11G14G22G25
 -17907541.94949 -13943938.64547  20630785.5234   20630783.8744
      4698.2804
   -762518.25049   -581528.68746  22558172.6874   22558170.7144
      5369.6244
 -15571319.83249 -12105768.19147  20076468.6084   20076465.6444
      3488.7644
  -2873285.63749  -2231979.99247  19854148.9374   19854146.2334
       194.7704
   -682740.79749   -532135.53147  21713518.3354   21713515.0074
      -164.9474
 -18263163.52749 -14197402.32848  19853001.4294   19852999.4604
      4445.0474
 04  9  2 15 58 29.9950000  0  6G 1G20G11G14G22G25
 -17977947.46949 -13998800.09047  20617387.5384   20617386.4804
      4693.7014
   -843058.78949   -644287.53146  22542847.0544   22542844.3514
      5369.3694
 -15623522.16049 -12146445.33247  20066534.9834   20066532.0114
      3480.1554
  -2876150.37549  -2234212.26647  19853604.0464   19853601.2734
       190.9834
   -680226.84049   -530176.63347  21713996.7414   21713993.6554
      -167.5974
 -18329729.44149 -14249271.85948  19840334.6244   19840332.5194
      4437.7284
 04  9  2 15 58 44.9950000  0  6G 1G20G11G14G22G25
 -18048281.28149 -14053605.64847  20604003.5774   20604001.6484
      4688.9214
   -923592.63349   -707041.19946  22527521.4524   22527519.3824
      5368.9234
 -15675592.53949 -12187019.65647  20056626.4054   20056622.9374
      3471.3594
  -2878955.69549  -2236398.25047  19853070.1944   19853067.3824
       187.0214
   -677670.34849   -528184.58247  21714483.4294   21714479.9874
      -170.4334
 -18396182.62949 -14301053.54747  19827688.9374   19827686.6944
      4430.2134
 04  9  2 15 58 59.9950000  0  6G 1G20G11G14G22G25
 -18118545.83249 -14108357.23847  20590632.3744   20590630.6944
      4684.3034
  -1004122.13349   -769791.42646  22512197.2574   22512194.7574
      5368.6334
 -15727533.21149 -12227492.91447  20046742.0624   20046739.1984
      3462.7114
  -2881704.17649  -2238539.93447  19852547.1944   19852544.2694
       183.2324
   -675073.69949   -526161.24647  21714977.4834   21714974.2494
      -173.1104
 -18462525.30949 -14352749.13747  19815064.5154   19815062.3514
      4422.8454
 04  9  2 15 59 14.9950000  0  6G 1G20G11G14G22G25
 -18188738.98449 -14163053.19147  20577275.1164   20577273.7534
      4679.5434
  -1084645.02749   -832536.53946  22496874.4444   22496871.9094
      5368.1934
 -15779341.87949 -12267863.30947  20036883.0154   20036880.1754
      3453.9114
  -2884393.94549  -2240635.86347  19852034.9914   19852032.5934
       179.3184
   -672434.83649   -524105.02047  21715479.9914   21715476.3514
      -175.9244
 -18528755.04749 -14404356.70747  19802461.0384   19802458.9914
      4415.3164
 04  9  2 15 59 29.9950000  0  6G 1G20G11G14G22G25
 -18258863.19149 -14217695.42647  20563930.8984   20563929.4764
      4674.9474
  -1165163.70349   -895278.35946  22481552.3354   22481549.5814
      5367.9124
 -15831020.82849 -12308132.62147  20027049.3274   20027046.1794
      3445.2634
  -2887027.84449  -2242688.26647  19851534.0234   19851531.2964
       175.5934
   -669756.35949   -522017.91447  21715988.7884   21715985.7694
      -178.5654
 -18594874.11749 -14455878.05147  19789879.0154   19789876.7264
      4407.9384
 04  9  2 15 59 44.9950000  0  6G 1G20G11G14G22G25
 -18328917.71949 -14272283.35947  20550599.7414   20550598.4914
      4670.3024
  -1245677.45749   -958016.33646  22466231.1084   22466229.0774
      5367.5844
 -15882569.34849 -12348300.30147  20017240.0074   20017237.0034
      3436.5684
  -2889605.22749  -2244696.62947  19851043.4214   19851040.9874
       171.8264
   -667037.56249   -519899.39847  21716506.2574   21716503.0814
      -181.2534
 -18660881.51249 -14507312.37547  19777318.4214   19777316.2494
      4400.4934
 04  9  2 15 59 59.9950000  0  6G 1G20G11G14G22G25
 -18398901.23049 -14326815.95747  20537282.3904   20537281.2574
      4665.5674
  -1326184.78149  -1020749.31646  22450911.1554   22450908.8784
      5367.1554
 -15933985.99649 -12388365.22747  20007455.6404   20007452.4484
      3427.7774
  -2892125.21949  -2246660.27347  19850564.0624   19850561.2734
       167.9994
   -664277.19949   -517748.48847  21717031.7654   21717028.7574
      -184.0244
 -18726775.77749 -14558658.54348  19764779.0074   19764776.6014
      4392.9514
 04  9  2 16  0 14.9950000  0  6G 1G20G11G14G22G25
 -18468817.19549 -14381295.92247  20523977.9294   20523976.6404
      4661.0644
  -1406689.23449  -1083480.04346  22435591.6014   22435589.1014
      5366.9644
 -15985274.01649 -12428329.92247  19997695.8514   19997692.8234
      3419.2014
  -2894591.48049  -2248582.04747  19850094.7104   19850091.9094
       164.4174
   -661478.86349   -515568.00447  21717563.9994   21717561.0694
      -186.5564
 -18792560.40649 -14609919.28548  19752260.5774   19752258.5074
      4385.6424
 04  9  2 16  0 29.9950000  0  6G 1G20G11G14G22G25
 -18538663.17249 -14435721.34847  20510686.7334   20510685.2224
      4656.3984
  -1487188.24249  -1146206.55546  22420272.8904   22420270.7374
      5366.6014
 -16036430.96949 -12468192.48447  19987961.1404   19987958.0154
      3410.4644
  -2897001.89149  -2250460.30147  19849636.0384   19849632.9524
       160.6944
   -658640.19149   -513356.07847  21718104.9834   21718101.4954
      -189.2454
 -18858232.80149 -14661092.57048  19739763.5774   19739761.0304
      4378.1604
 04  9  2 16  0 44.9950000  0  6G 1G20G11G14G22G25
 -18608437.44549 -14490090.90247  20497409.1944   20497407.4214
      4651.6184
  -1567680.03549  -1208927.42646  22404955.9834   22404953.8474
      5366.1204
 -16087455.01649 -12507951.48847  19978251.5934   19978248.6284
      3401.6034
  -2899354.86349  -2252293.79747  19849188.4524   19849185.4294
       156.8654
   -655759.52349   -511111.43047  21718652.4994   21718650.1244
      -192.0454
 -18923790.98449 -14712176.86348  19727288.4134   19727286.0814
      4370.5464
 04  9  2 16  0 59.9950000  0  6G 1G20G11G14G22G25
 -18678137.65249 -14544402.75047  20484145.5694   20484144.1444
      4646.6804
  -1648162.10949  -1271640.73046  22389640.7104   22389638.4874
      5365.4724
 -16138343.75449 -12547605.05547  19968567.2734   19968564.3394
      3392.5834
  -2901648.45749  -2254081.02047  19848751.9294   19848748.7964
       152.9064
   -652834.69949   -508832.37147  21719209.7574   21719206.1754
      -194.9884
 -18989232.51649 -14763170.25848  19714835.2884   19714832.9914
      4362.7694
 04  9  2 16  1 14.9950000  0  6G 1G20G11G14G22G25
 -18747767.79349 -14598659.99247  20470895.6944   20470893.8664
      4642.0094
  -1728638.52049  -1334349.60546  22374326.5384   22374324.3124
      5365.0944
 -16189101.11349 -12587156.24247  19958908.5854   19958905.5384
      3383.8244
  -2903886.72749  -2255825.14147  19848326.2414   19848323.1674
       149.2184
   -649869.63749   -506521.96547  21719773.5624   21719770.2104
      -197.6714
 -19054561.02349 -14814075.57848  19702403.6874   19702401.1484
      4355.2344
 04  9  2 16  1 29.9950000  0  6G 1G20G11G14G22G25
 -18817328.03949 -14652862.77347  20457658.7264   20457657.0504
      4637.3504
  -1809109.25849  -1397054.06646  22359013.4834   22359011.4724
      5364.7164
 -16239727.12949 -12626605.09447  19949274.8664   19949271.7964
      3375.0684
  -2906070.25849  -2257526.60547  19847910.4914   19847907.8434
       145.5694
   -646864.64149   -504180.43047  21720345.5774   21720342.1834
      -200.3334
 -19119776.48049 -14864892.80948  19689993.5234   19689991.3084
      4347.6974
 04  9  2 16  1 44.9950000  0  6G 1G20G11G14G22G25
 -18886818.66849 -14707011.30547  20444435.1794   20444433.4644
      4632.7094
  -1889574.56649  -1459754.30946  22343701.0694   22343699.2024
      5364.3544
 -16290222.02749 -12665951.77747  19939666.1484   19939662.9014
      3366.3274
  -2908199.60249  -2259185.84047  19847505.0934   19847502.4214
       141.9564
   -643820.10249   -501808.09447  21720925.1404   21720921.9604
      -202.9694
 -19184879.09049 -14915622.10948  19677605.0694   19677602.5194
      4340.1744
 04  9  2 16  1 59.9950000  0  6G 1G20G11G14G22G25
 -18956237.87549 -14761104.19147  20431224.6944   20431223.6364
      4627.9474
  -1970032.57049  -1522448.84046  22328390.8664   22328388.5544
      5363.8674
 -16340583.87149 -12705194.77747  19930082.5234   19930079.7064
      3357.4564
  -2910273.14849  -2260801.60247  19847110.5694   19847107.7964
       138.2364
   -640734.34049   -499403.62547  21721512.0694   21721508.5464
      -205.7174
 -19249866.90249 -14966261.95747  19665238.0154   19665235.7414
      4332.5214
 04  9  2 16  2 14.9950000  0  6G 1G20G11G14G22G25
 -19025585.74649 -14815141.48047  20418028.5624   20418027.0074
      4623.1914
  -2050483.34049  -1585137.75046  22313081.5304   22313079.2534
      5363.3854
 -16390812.71949 -12744334.13747  19920524.5464   19920521.3514
      3348.5904
  -2912291.25449  -2262374.16447  19846726.5464   19846723.9994
       134.5404
   -637607.41449   -496967.09447  21722107.5384   21722103.6054
      -208.4624
 -19314739.91449 -15016812.34448  19652893.1874   19652891.0584
      4324.8674
 04  9  2 16  2 29.9940000  0  6G 1G20G11G14G22G25
 -19094855.61349 -14869117.98847  20404846.7754   20404845.5924
      4617.9914
  -2130919.36349  -1647815.16446  22297775.2294   22297773.1194
      5362.4024
 -16440902.89849 -12783365.45347  19910992.5964   19910989.4634
      3339.3454
  -2914252.04349  -2263902.06647  19846353.3154   19846350.8154
       130.7194
   -634437.60249   -494497.12147  21722710.1584   21722706.6824
      -211.3214
 -19379491.42249 -15067268.06247  19640571.4554   19640569.0294
      4316.7674
 04  9  2 16  2 44.9940000  0  6G 1G20G11G14G22G25
 -19164058.25849 -14923042.12147  20391678.0254   20391676.2954
      4613.5104
  -2211352.87549  -1710490.63346  22282469.3544   22282466.7484
      5362.2344
 -16490862.75449 -12822295.21547  19901485.2684   19901482.3114
      3330.6574
  -2916157.56649  -2265386.90247  19845990.6664   19845988.2754
       127.0354
   -631226.12949   -491994.70747  21723321.7444   21723318.0574
      -214.0984
 -19444131.68449 -15117637.09048  19628271.1114   19628268.6234
      4309.3514
 04  9  2 16  2 59.9940000  0  6G 1G20G11G14G22G25
 -19233189.65649 -14976910.72347  20378522.5184   20378521.2324
      4608.7604
  -2291778.98849  -1773160.31646  22267164.6274   22267161.5614
      5361.7414
 -16540689.33649 -12861121.12547  19892003.7364   19892000.6904
      3321.7724
  -2918008.48449  -2266829.18747  19845638.6354   19845636.2794
       123.3954
   -627973.77749   -489460.44547  21723940.4944   21723937.1934
      -216.8234
 -19508656.58249 -15167916.22348  19615991.9794   19615990.0454
      4301.6604
 04  9  2 16  3 14.9940000  0  6G 1G20G11G14G22G25
 -19302249.77049 -15030723.78947  20365381.0724   20365379.4554
      4604.0084
  -2372197.63749  -1835824.20346  22251861.2364   22251858.6004
      5361.2434
 -16590382.53149 -12899843.09847  19882547.5104   19882544.5224
      3312.8804
  -2919805.14149  -2268229.18747  19845296.7684   19845293.8544
       119.7774
   -624680.71949   -486894.44547  21724567.0804   21724563.8574
      -219.5374
 -19573065.83649 -15218105.24647  19603735.4714   19603733.1274
      4293.9504
 04  9  2 16  3 29.9940000  0  6G 1G20G11G14G22G25
 -19371239.45349 -15084481.97347  20352252.4324   20352251.0254
      4599.3124
  -2452609.61349  -1898482.87946  22236559.2214   22236556.6274
      5360.7984
 -16639943.04349 -12938461.68447  19873116.3074   19873113.2754
      3304.0344
  -2921548.52049  -2269587.68447  19844965.1114   19844962.4164
       116.2254
   -621347.80949   -484297.39847  21725201.3304   21725197.9004
      -222.1944
 -19637360.19549 -15268204.73848  19591500.6504   19591498.3424
      4286.2914
 04  9  2 16  3 44.9940000  0  6G 1G20G11G14G22G25
 -19440158.69549 -15138185.26647  20339137.8544   20339136.5654
      4594.6164
  -2533014.76249  -1961136.23046  22221258.8614   22221256.3974
      5360.3434
 -16689370.91449 -12976976.91447  19863710.6974   19863707.5294
      3295.1914
  -2923238.97349  -2270904.93447  19844643.0724   19844640.7604
       112.6974
   -617975.15649   -481669.38347  21725842.9474   21725839.7724
      -224.8434
 -19701539.56649 -15318214.63748  19579287.7834   19579285.3774
      4278.6254
 04  9  2 16  3 59.9940000  0  6G 1G20G11G14G22G25
 -19509007.63749 -15191833.78547  20326036.2994   20326034.7874
      4589.9294
  -2613413.19149  -2023784.35946  22205959.2524   22205956.4904
      5359.8954
 -16738666.14549 -13015388.78547  19854329.7914   19854326.7214
      3286.3494
  -2924876.86749  -2272181.21947  19844331.6274   19844328.7754
       109.1934
   -614562.98449   -479010.58247  21726492.4004   21726489.1474
      -227.4784
 -19765603.88349 -15368134.87548  19567096.4554   19567093.9594
      4270.9544
 04  9  2 16  4 14.9940000  0  6G 1G20G11G14G22G25
 -19577783.93049 -15245425.68747  20312948.4084   20312946.8774
      4585.0864
  -2693802.32849  -2086425.23046  22190662.1904   22190659.0254
      5359.2764
 -16787826.35249 -13053695.44547  19844974.7834   19844972.1784
      3277.3474
  -2926460.02749  -2273414.86747  19844030.5184   19844028.1354
       105.5444
   -611108.89549   -476319.10947  21727149.8154   21727146.9754
      -230.2734
 -19829550.53949 -15417963.43748  19554928.1194   19554925.7174
      4263.1104
 04  9  2 16  4 29.9940000  0  6G 1G20G11G14G22G25
 -19646487.23449 -15298960.71947  20299874.7444   20299873.1624
      4580.2204
  -2774181.93049  -2149058.69946  22175366.4714   22175363.2834
      5358.6404
 -16836850.93749 -13091896.42247  19835646.0024   19835643.0964
      3268.3064
  -2927988.35249  -2274605.78547  19843739.8544   19843736.8654
       101.8884
   -607612.78549   -473594.88747  21727815.0804   21727811.9824
      -233.0744
 -19893379.22349 -15467700.06248  19542781.9404   19542779.7054
      4255.2464
 04  9  2 16  4 44.9940000  0  6G 1G20G11G14G22G25
 -19715115.94549 -15352437.62547  20286815.2754   20286813.7644
      4575.2474
  -2854550.32449  -2211683.41046  22160072.3934   22160069.7484
      5357.8934
 -16885738.36349 -13129990.52747  19826342.9084   19826340.1114
      3259.1624
  -2929460.59449  -2275752.99647  19843459.6044   19843456.6314
        98.1494
   -604073.00849   -470836.65247  21728489.0574   21728485.7014
      -235.9854
 -19957088.07049 -15517343.31648  19530657.9324   19530656.2914
      4247.2574
 04  9  2 16  4 59.9940000  0  6G 1G20G11G14G22G25
 -19783674.86749 -15405860.15647  20273769.0804   20273767.0764
      4570.5954
  -2934912.32849  -2274303.15646  22144779.6824   22144777.7014
      5357.4674
 -16934493.40649 -13167981.47747  19817065.4474   19817062.2874
      3250.3364
  -2930881.85249  -2276860.48047  19843188.9404   19843186.2094
        94.7514
   -600494.52349   -468048.25047  21729169.7054   21729166.5844
      -238.5664
 -20020681.77049 -15566896.84448  19518556.7754   19518554.5294
      4239.5804
 04  9  2 16  5 14.9940000  0  6G 1G20G11G14G22G25
 -19852162.23049 -15459226.91447  20260736.1354   20260734.7724
      4565.8244
  -3015266.02049  -2336916.41846  22129489.5184   22129486.5144
      5356.9134
 -16983114.26249 -13205867.86347  19807813.0724   19807809.9204
      3241.3904
  -2932250.64549  -2277927.07847  19842928.8614   19842925.8034
        91.2534
   -596875.57849   -465228.32047  21729858.0884   21729855.3774
      -241.2634
 -20084158.35949 -15616359.11748  19506477.6584   19506475.5024
      4231.7734
 04  9  2 16  5 29.9940000  0  6G 1G20G11G14G22G25
 -19920579.62149 -15512539.15247  20247716.7604   20247715.1314
      4561.1594
  -3095612.83249  -2399524.32446  22114199.8544   22114197.1434
      5356.4544
 -17031602.30549 -13243650.76247  19798586.3384   19798582.9044
      3232.5364
  -2933568.69549  -2278954.14147  19842677.9324   19842675.0104
        87.8704
   -593217.93049   -462378.24247  21730554.7834   21730551.2364
      -243.8434
 -20147519.12549 -15665731.13748  19494420.5574   19494418.1474
      4224.0514
 04  9  2 16  5 44.9940000  0  6G 1G20G11G14G22G25
 -19988925.48449 -15565795.66047  20234710.9084   20234709.4434
      4556.3914
  -3175951.13749  -2462125.59846  22098911.8384   22098909.7094
      5355.8874
 -17079955.93449 -13281328.91447  19789384.7604   19789381.9364
      3223.5754
  -2934834.63349  -2279940.60547  19842436.5964   19842434.0414
        84.3964
   -589520.03949   -459496.78947  21731258.1274   21731254.5724
      -246.5264
 -20210762.41449 -15715011.61348  19482385.8304   19482383.4474
      4216.2194
 04  9  2 16  5 59.9940000  0  6G 1G20G11G14G22G25
 -20057197.97349 -15618994.98847  20221719.0334   20221717.3384
      4551.4994
  -3256279.09849  -2524718.81246  22083626.5494   22083623.7444
      5355.1974
 -17128173.27049 -13318900.87147  19780209.1744   19780206.4514
      3214.4894
  -2936046.96949  -2280885.29747  19842206.2914   19842203.4794
        80.8224
   -585780.12949   -456582.60947  21731969.3774   21731967.0334
      -249.3274
 -20273886.39849 -15764199.12948  19470373.4634   19470371.4474
      4208.2664
 04  9  2 16  6 14.9940000  0  6G 1G20G11G14G22G25
 -20125397.35949 -15672137.35247  20208741.2524   20208739.5334
      4546.6264
  -3336596.85249  -2587304.07446  22068342.3224   22068339.8694
      5354.5174
 -17176254.42649 -13356366.71147  19771059.6354   19771056.7954
      3205.4104
  -2937206.25449  -2281788.64547  19841985.4864   19841982.9474
        77.2864
   -581998.66049   -453636.03947  21732688.6194   21732686.3504
      -252.0984
 -20336891.04749 -15813293.65648  19458384.0414   19458381.8734
      4200.3104
 04  9  2 16  6 29.9940000  0  6G 1G20G11G14G22G25
 -20193523.97349 -15725223.01647  20195776.8934   20195775.7094
      4541.7744
  -3416904.76249  -2649881.66847  22053060.0654   22053057.8424
      5353.8614
 -17224199.63349 -13393726.62147  19761936.1584   19761933.1504
      3196.3474
  -2938312.95349  -2282651.02747  19841774.9864   19841772.3504
        73.7804
   -578175.98849   -450657.35947  21733416.9714   21733413.8224
      -254.8454
 -20399776.56649 -15862295.35548  19446417.1354   19446415.2794
      4192.3684
 04  9  2 16  6 44.9940000  0  6G 1G20G11G14G22G25
 -20261577.56249 -15778251.77347  20182826.6274   20182825.4514
      4536.9064
  -3497202.28949  -2712451.16447  22037779.9634   22037777.4044
      5353.1684
 -17272008.60949 -13430980.37547  19752838.3774   19752834.9794
      3187.2654
  -2939367.05549  -2283472.41847  19841574.2834   19841571.6664
        70.2734
   -574311.84449   -447646.37547  21734152.3934   21734149.3774
      -257.6104
 -20462542.60249 -15911203.94948  19434473.6044   19434471.4794
      4184.4024
 04  9  2 16  6 59.9940000  0  6G 1G20G11G14G22G25
 -20329558.60949 -15831224.00047  20169890.6434   20169889.3154
      4532.0704
  -3577489.83249  -2775012.87147  22022501.4084   22022499.3224
      5352.5034
 -17319681.73849 -13468128.27347  19743766.4004   19743763.9324
      3178.2094
  -2940369.36749  -2284253.44947  19841383.9474   19841380.7324
        66.8214
   -570406.84849   -444603.53147  21734895.3074   21734892.4244
      -260.3334
 -20525189.41849 -15960019.64548  19422552.2994   19422549.7484
      4176.4544
 04  9  2 16  7 14.9940000  0  6G 1G20G11G14G22G25
 -20397465.73849 -15884138.63747  20156968.1824   20156966.9634
      4527.1424
  -3657765.95749  -2837565.68447  22007225.1974   22007223.3224
      5351.7424
 -17367217.58249 -13505169.19947  19734720.6114   19734717.5184
      3169.0564
  -2941318.72349  -2284993.21147  19841203.2914   19841200.3504
        63.2904
   -566459.70349   -441527.87547  21735646.4474   21735643.2644
      -263.1434
 -20587715.47749 -16008741.24248  19410654.2294   19410651.7644
      4168.4044
 04  9  2 16  7 29.9940000  0  6G 1G20G11G14G22G25
 -20465301.71149 -15936997.81647  20144059.1584   20144057.7054
      4522.3984
  -3738033.45349  -2900111.78547  21991951.1504   21991949.1784
      5351.1664
 -17414618.77349 -13542105.19547  19725700.5654   19725697.7564
      3160.0794
  -2942218.14149  -2285694.07447  19841031.8934   19841028.8154
        59.9614
   -562473.30149   -438421.62547  21736405.0964   21736402.0024
      -265.7604
 -20650123.35549 -16057370.75448  19398778.3854   19398775.7134
      4160.5254
 04  9  2 16  7 44.9940000  0  6G 1G20G11G14G22G25
 -20533066.30149 -15989801.38747  20131164.3154   20131162.6434
      4517.6394
  -3818291.91049  -2962650.82446  21976678.3614   21976676.6584
      5350.5644
 -17461885.10249 -13578936.10947  19716706.1744   19716703.1474
      3151.0894
  -2943067.64149  -2286356.03147  19840870.1114   19840867.0764
        56.6334
   -558447.35249   -435284.55947  21737171.5104   21737167.7604
      -268.3974
 -20712412.56649 -16105907.79748  19386924.9244   19386922.3894
      4152.6144
 04  9  2 16  7 59.9940000  0  6G 1G20G11G14G22G25
 -20600758.34449 -16042548.41847  20118282.9164   20118281.5024
      4512.8034
  -3898540.18749  -3025181.93046  21961407.8464   21961405.9204
      5349.8854
 -17509015.36349 -13615660.99647  19707737.4794   19707734.5374
      3142.0174
  -2943866.37149  -2286978.43447  19840718.2684   19840715.0764
        53.2494
   -554380.92249   -432115.93747  21737945.0414   21737941.9714
      -271.0954
 -20774582.03949 -16154351.53148  19375094.3384   19375091.8774
      4144.6324
 04  9  2 16  8 14.9940000  0  6G 1G20G11G14G22G25
 -20668377.81249 -16095238.89847  20105415.1434   20105413.5924
      4507.9654
  -3978778.03549  -3087704.92246  21946138.8544   21946136.8264
      5349.1904
 -17556009.28949 -13652279.64147  19698794.8154   19698792.2134
      3132.9284
  -2944614.44949  -2287561.36347  19840576.2444   19840572.6394
        49.8724
   -550273.97349   -428915.75047  21738726.4634   21738723.8034
      -273.7974
 -20836631.34049 -16202701.62948  19363286.5884   19363284.4904
      4136.6204
 04  9  2 16  8 29.9940000  0  6G 1G20G11G14G22G25
 -20735923.81649 -16147872.13347  20092561.6274   20092560.1784
      4503.0674
  -4059004.50049  -3150219.03546  21930872.5254   21930870.1114
      5348.4314
 -17602865.92249 -13688791.31247  19689878.7914   19689875.1394
      3123.7764
  -2945311.23449  -2288104.33247  19840443.2994   19840440.1974
        46.4524
   -546125.64549   -425683.30147  21739515.7604   21739512.7724
      -276.5554
 -20898559.48849 -16250957.32448  19351501.8464   19351500.0334
      4128.5434
 04  9  2 16  8 44.9940000  0  6G 1G20G11G14G22G25
 -20803398.14549 -16200449.52747  20079721.9004   20079720.1864
      4498.2894
  -4139221.28549  -3212725.60947  21915608.2604   21915605.6624
      5347.7864
 -17649586.98449 -13725197.34447  19680987.4244   19680984.4634
      3114.7384
  -2945958.73049  -2288608.88347  19840320.1434   19840317.1904
        43.1664
   -541937.76649   -422420.05547  21740313.5334   21740309.6704
      -279.1924
 -20960368.29749 -16299120.03148  19339740.2444   19339738.2644
      4120.5874
 04  9  2 16  8 59.9940000  0  6G 1G20G11G14G22G25
 -20870801.80149 -16252971.84847  20066895.0494   20066893.5614
      4493.5774
  -4219429.35249  -3275225.38747  21900344.5024   21900342.7294
      5347.2044
 -17696173.56649 -13761498.57847  19672122.6504   19672119.5844
      3105.7724
  -2946558.26249  -2289076.05947  19840206.0414   19840202.9284
        39.9694
   -537711.47349   -419126.87947  21741117.5574   21741114.6114
      -281.7534
 -21022058.54349 -16347190.33648  19328000.9004   19327998.8694
      4112.6834
 04  9  2 16  9 14.9940000  0  6G 1G20G11G14G22G25
 -20938133.28149 -16305437.92647  20054082.5024   20054081.0374
      4488.7654
  -4299627.09049  -3337717.13347  21885083.4474   21885081.2444
      5346.5164
 -17742624.16849 -13797693.85947  19663283.2524   19663280.5024
      3096.7074
  -2947108.57449  -2289504.89547  19840101.4554   19840098.8034
        36.6884
   -533445.46149   -415802.73447  21741928.7604   21741926.4164
      -284.4014
 -21083628.55549 -16395166.96548  19316284.7604   19316282.5254
      4104.6674
 04  9  2 16  9 29.9940000  0  6G 1G20G11G14G22G25
 -21005395.07849 -16357849.69547  20041283.1194   20041281.6624
      4484.1204
  -4379816.87149  -3400202.64547  21869823.9404   21869821.8934
      5345.9854
 -17788941.20349 -13833785.06647  19654469.3074   19654466.5804
      3087.8024
  -2947612.43749  -2289897.53147  19840005.2684   19840002.9634
        33.5914
   -529142.25849   -412449.62947  21742747.3774   21742745.1394
      -286.8804
 -21145080.57049 -16443051.64848  19304590.6974   19304588.4084
      4096.8014
 04  9  2 16  9 44.9940000  0  6G 1G20G11G14G22G25
 -21072585.85949 -16410206.14847  20028497.0494   20028495.4404
      4479.3854
  -4459997.30549  -3462680.89146  21854565.5804   21854563.5804
      5345.3624
 -17835123.16849 -13869771.01647  19645681.3224   19645678.2794
      3078.7984
  -2948068.62949  -2290253.01647  19839918.5024   19839916.0964
        30.4134
   -524800.53549   -409066.49647  21743574.0964   21743571.1044
      -289.4484
 -21206413.16449 -16490843.27348  19292919.4004   19292917.6074
      4088.8404
 04  9  2 16  9 59.9940000  0  6G 1G20G11G14G22G25
 -21139704.66049 -16462506.50447  20015724.7604   20015723.1664
      4474.5874
  -4540167.34049  -3525151.03547  21839310.5724   21839307.8814
      5344.6694
 -17881169.07449 -13905650.94947  19636919.1354   19636915.9864
      3069.7274
  -2948476.52349  -2290570.87147  19839840.9324   19839838.2994
        27.1934
   -520419.37949   -405652.64547  21744408.2444   21744404.9754
      -292.0774
 -21267625.19549 -16538540.94948  19281271.1584   19281269.0574
      4080.8024
 04  9  2 16 10 14.9940000  0  6G 1G20G11G14G22G25
 -21206751.91849 -16514751.10547  20002966.3464   20002964.6274
      4469.8174
  -4620327.32849  -3587613.34847  21824056.3154   21824054.1904
      5343.9994
 -17927079.25449 -13941425.12147  19628182.6274   19628179.6234
      3060.6794
  -2948836.74249  -2290851.57847  19839772.7134   19839769.7484
        24.0154
   -515999.27749   -402208.44147  21745249.3934   21745245.9364
      -294.6734
 -21328716.99249 -16586144.93748  19269645.5964   19269643.8734
      4072.7864
 04  9  2 16 10 29.9940000  0  6G 1G20G11G14G22G25
 -21273729.94949 -16566941.76647  19990220.6354   19990219.1074
      4465.2024
  -4700479.43049  -3650069.53147  21808804.2444   21808801.4714
      5343.4734
 -17972855.95749 -13977095.28147  19619471.5334   19619468.8114
      3051.7804
  -2949151.79349  -2291097.08247  19839712.8544   19839709.3854
        21.0034
   -511542.67249   -398735.78147  21746097.3224   21746093.9044
      -297.1074
 -21389690.74649 -16633656.94948  19258042.9324   19258040.5964
      4064.9174
 04  9  2 16 10 44.9940000  0  6G 1G20G11G14G22G25
 -21340635.08249 -16619075.63747  19977489.0334   19977487.2054
      4460.3424
  -4780619.92249  -3712516.66046  21793553.6584   21793551.4204
      5342.6994
 -18018495.39149 -14012658.48847  19610786.8854   19610783.7564
      3042.6294
  -2949418.32849  -2291304.78547  19839662.1114   19839658.9754
        17.7694
   -507045.98049   -395231.90247  21746953.1974   21746949.4674
      -299.7794
 -21450542.52749 -16681073.91048  19246463.3154   19246461.0334
      4056.7854
 04  9  2 16 10 59.9940000  0  6G 1G20G11G14G22G25
 -21407467.87149 -16671153.12547  19964770.6824   19964769.3384
      4455.5194
  -4860749.23049  -3774955.07847  21778305.4084   21778303.0534
      5341.9544
 -18063997.95749 -14048115.03947  19602127.6354   19602125.1504
      3033.5044
  -2949637.05549  -2291475.23847  19839620.4324   19839617.2874
        14.5824
   -502509.79349   -391697.24647  21747816.3224   21747812.8894
      -302.4124
 -21511272.85949 -16728396.24248  19234906.5254   19234904.4434
      4048.6894
 04  9  2 16 11 14.9940000  0  6G 1G20G11G14G22G25
 -21474229.84049 -16723175.43047  19952066.6434   19952064.9204
      4450.7984
  -4940868.74249  -3837385.85547  21763059.1434   21763056.5294
      5341.3014
 -18109365.23049 -14083466.16847  19593495.0804   19593492.1114
      3024.4854
  -2949809.66049  -2291609.74647  19839587.3774   19839584.6584
        11.5074
   -497935.70349   -388133.05147  21748686.2524   21748683.3154
      -304.9394
 -21571883.06249 -16775624.96148  19223372.9164   19223371.0224
      4040.6804
 04  9  2 16 11 29.9940000  0  6G 1G20G11G14G22G25
 -21540920.03149 -16775141.80547  19939376.0804   19939374.2094
      4446.0134
  -5020977.43749  -3899808.20747  21747815.0024   21747812.5254
      5340.5804
 -18154596.23449 -14118711.10947  19584887.4324   19584884.2954
      3015.4004
  -2949935.55549  -2291707.85947  19839563.3384   19839560.7724
         8.3934
   -493322.76249   -384538.59847  21749564.2364   21749561.9514
      -307.5294
 -21632371.97749 -16822759.17248  19211862.0804   19211860.2054
      4032.5944
 04  9  2 16 11 44.9940000  0  6G 1G20G11G14G22G25
 -21607537.63349 -16827051.62147  19926699.1274   19926697.3074
      4441.1734
  -5101074.33649  -3962221.35947  21732573.0334   21732570.9594
      5339.7934
 -18199690.13749 -14153849.21947  19576306.6274   19576303.6074
      3006.2604
  -2950014.06649  -2291769.05547  19839548.2834   19839546.0574
         5.2344
   -488670.25449   -380913.29747  21750449.9634   21750446.6664
      -310.1674
 -21692738.71949 -16869798.18448  19200374.5254   19200372.7484
      4024.4494
 04  9  2 16 11 59.9940000  0  6G 1G20G11G14G22G25
 -21674081.39849 -16878903.89847  19914036.2444   19914034.7254
      4436.2514
  -5181158.12949  -4024624.31247  21717333.7054   21717330.9044
      5338.9204
 -18244645.46149 -14188879.34847  19567752.1044   19567748.8694
      2997.0224
  -2950044.22349  -2291792.56247  19839543.1974   19839540.6474
         2.0104
   -483977.08649   -377256.32047  21751343.1974   21751339.9514
      -312.8784
 -21752981.90649 -16916740.92248  19188910.7524   19188908.9284
      4016.2134
 04  9  2 16 12 14.9940000  0  6G 1G20G11G14G22G25
 -21740553.09849 -16930700.02047  19901386.9004   19901385.6664
      4431.4474
  -5261230.54349  -4087018.40247  21702096.5024   21702094.2684
      5338.1614
 -18289463.95349 -14223802.85547  19559223.0334   19559220.1354
      2987.8994
  -2950028.02749  -2291779.96147  19839546.0884   19839543.3774
        -1.0804
   -479245.07049   -373569.05947  21752243.7054   21752240.2604
      -315.4684
 -21813103.11749 -16963588.61348  19177470.2524   19177468.1544
      4008.0814
 04  9  2 16 12 29.9940000  0  6G 1G20G11G14G22G25
 -21806954.42249 -16982441.30547  19888751.4714   19888749.7444
      4426.7554
  -5341292.96149  -4149404.68747  21686861.1904   21686859.1434
      5337.4954
 -18334147.26649 -14258621.02347  19550720.4164   19550717.0574
      2978.8874
  -2949967.24649  -2291732.61347  19839557.5724   19839554.8654
        -4.0524
   -474475.85249   -369852.81647  21753151.0104   21753148.1044
      -317.9484
 -21873103.84849 -17010342.42248  19166052.4084   19166050.4004
      4000.0494
 04  9  2 16 12 44.9940000  0  6G 1G20G11G14G22G25
 -21873283.62949 -17034126.39147  19876129.1974   19876127.3614
      4421.9474
  -5421343.70349  -4211781.87947  21671627.9634   21671625.9084
      5336.7164
 -18378693.72349 -14293332.55547  19542243.4244   19542239.8574
      2969.7644
  -2949860.62149  -2291649.53947  19839577.6274   19839574.8974
        -7.1084
   -469667.86349   -366106.36347  21754065.6504   21754062.9754
      -320.5334
 -21932982.30549 -17057000.94948  19154657.8074   19154656.0144
      3991.8974
 04  9  2 16 12 59.9940000  0  6G 1G20G11G14G22G25
 -21939541.46949 -17085755.86347  19863520.8224   19863519.4404
      4417.1894
  -5501383.43049  -4274150.49646  21656396.8694   21656394.1824
      5335.9824
 -18423103.90649 -14327937.89547  19533792.3224   19533789.4404
      2960.6794
  -2949709.07449  -2291531.46147  19839606.8544   19839603.6274
       -10.1034
   -464821.92649   -362330.34447  21754988.1974   21754985.2444
      -323.0624
 -21992739.10549 -17103564.68448  19143286.6354   19143284.6154
      3983.7874
 04  9  2 16 13 14.9940000  0  6G 1G20G11G14G22G25
 -22005725.32449 -17137327.69147  19850926.3614   19850924.8934
      4412.2574
  -5581409.29749  -4336508.31647  21641168.5104   21641165.7364
      5335.0584
 -18467375.10949 -14362434.94147  19525367.8854   19525364.7564
      2951.4144
  -2949510.07849  -2291376.41047  19839644.3384   19839641.6824
       -13.2664
   -459935.40649   -358522.69947  21755917.7364   21755915.1824
      -325.7684
 -22052371.38749 -17150031.38348  19131938.9474   19131936.8574
      3975.4854
 04  9  2 16 13 29.9940000  0  6G 1G20G11G14G22G25
 -22071835.75449 -17188842.30947  19838345.8074   19838344.3934
      4407.3624
  -5661421.87949  -4398855.77747  21625942.7364   21625939.9634
      5334.1724
 -18511507.90249 -14396824.14147  19516969.5334   19516966.4634
      2942.1864
  -2949264.53149  -2291185.09847  19839691.2524   19839688.1934
       -16.3704
   -455008.96149   -354683.95747  21756855.8224   21756852.7684
      -328.4304
 -22111879.61749 -17196401.42648  19120615.0654   19120612.8854
      3967.2154
 04  9  2 16 13 44.9930000  0  6G 1G20G11G14G22G25
 -22137869.27049 -17240296.98047  19825780.4584   19825779.0094
      4402.2344
  -5741416.59449  -4461189.31247  21610719.9584   21610717.2824
      5332.9814
 -18555500.30549 -14431103.93747  19508598.1614   19508595.2554
      2932.8274
  -2948973.48049  -2290958.31247  19839746.2784   19839743.7674
       -19.4034
   -450044.06249   -350815.23047  21757800.2554   21757797.2044
      -330.9934
 -22171260.68449 -17242672.38748  19109315.1534   19109312.9424
      3958.7384
 04  9  2 16 13 59.9930000  0  6G 1G20G11G14G22G25
 -22203832.11349 -17291696.59447  19813227.9504   19813226.6464
      4397.5234
  -5821401.52749  -4523515.24246  21595499.6774   21595496.6344
      5332.3294
 -18599355.54349 -14465276.85247  19500252.9274   19500249.7714
      2923.6834
  -2948634.66849  -2290694.32847  19839811.2554   19839808.4114
       -22.5874
   -445037.51249   -346914.07447  21758752.7164   21758750.3454
      -333.7704
 -22230519.82449 -17288848.33248  19098038.7324   19098036.5444
      3950.6094
 04  9  2 16 14 14.9930000  0  6G 1G20G11G14G22G25
 -22269723.34449 -17343040.39847  19800689.1144   19800687.9274
      4392.7494
  -5901374.62549  -4585831.93746  21580281.1384   21580278.5604
      5331.5404
 -18643074.11349 -14499343.28147  19491933.4354   19491930.3994
      2914.5714
  -2948251.82449  -2290396.01647  19839883.9504   19839881.2944
       -25.5234
   -439993.15249   -342983.44147  21759713.7394   21759710.1104
      -336.2914
 -22289656.30149 -17334928.69948  19086785.4894   19086783.4824
      3942.4324
 04  9  2 16 14 29.9930000  0  6G 1G20G11G14G22G25
 -22335541.88749 -17394327.56647  19788164.1694   19788162.7824
      4387.9034
  -5981334.71949  -4648138.49247  21565065.1074   21565062.0874
      5330.6734
 -18686654.89549 -14533302.32847  19483640.1854   19483637.3884
      2905.3854
  -2947824.01649  -2290062.66447  19839965.4274   19839962.4464
       -28.5214
   -434910.02749   -339022.58647  21760680.4744   21760677.3334
      -338.8754
 -22348668.85949 -17380912.50448  19075555.4504   19075553.2244
      3934.1714
 04  9  2 16 14 44.9930000  0  6G 1G20G11G14G22G25
 -22401287.40649 -17445557.82847  19775653.1614   19775651.6304
      4383.0354
  -6061281.28549  -4710434.50446  21549851.8334   21549849.0834
      5329.7714
 -18730097.37949 -14567153.62547  19475373.5754   19475370.4624
      2896.1664
  -2947351.10549  -2289694.18447  19840055.2324   19840052.3644
       -31.5274
   -429787.73449   -335031.22747  21761655.4584   21761652.0914
      -341.4864
 -22407557.09049 -17426799.42648  19064349.5214   19064347.7944
      3925.8824
 04  9  2 16 14 59.9930000  0  6G 1G20G11G14G22G25
 -22466960.40249 -17496731.57847  19763156.0604   19763154.6964
      4378.2004
  -6141214.82449  -4772720.37147  21534640.8724   21534638.3494
      5328.9034
 -18773402.01649 -14600897.50447  19467132.5834   19467129.6384
      2886.9764
  -2946833.87949  -2289291.16847  19840153.6304   19840151.1074
       -34.4824
   -424626.89849   -331009.82447  21762637.6384   21762634.1854
      -344.0564
 -22466321.39149 -17472589.78548  19053166.9354   19053164.7044
      3917.6204
 04  9  2 16 15 14.9930000  0  6G 1G20G11G14G22G25
 -22532560.23849 -17547848.32447  19750673.0754   19750671.5484
      4373.3224
  -6221134.48849  -4834995.41046  21519432.4974   21519430.2204
      5327.9784
 -18816568.19149 -14634533.49247  19458919.0674   19458915.7244
      2877.7454
  -2946271.87949  -2288853.25847  19840260.6924   19840258.0174
       -37.4674
   -419426.92249   -326957.94147  21763626.7944   21763623.8214
      -346.6654
 -22524960.99649 -17518282.96948  19042008.0524   19042006.0714
      3909.3074
 04  9  2 16 15 29.9930000  0  6G 1G20G11G14G22G25
 -22598086.59049 -17598907.80947  19738203.5834   19738202.1814
      4368.4234
  -6301039.86749  -4897259.34847  21504227.1924   21504224.3764
      5327.0254
 -18859595.47749 -14668061.25047  19450730.8884   19450727.8534
      2868.4864
  -2945665.03949  -2288380.41447  19840376.1774   19840373.4354
       -40.4564
   -414187.62549   -322875.40647  21764624.3494   21764620.4974
      -349.2864
 -22583475.41449 -17563878.61348  19030873.2164   19030871.0134
      3900.9614
 04  9  2 16 15 44.9930000  0  6G 1G20G11G14G22G25
 -22663542.28149 -17649912.23047  19725747.9194   19725746.3294
      4363.7134
  -6380933.75449  -4959514.30147  21489023.8254   21489021.3994
      5326.2594
 -18902486.75049 -14701483.02747  19442568.8494   19442566.0324
      2859.4184
  -2945016.36749  -2287874.96947  19840499.8644   19840497.1734
       -43.2454
   -408911.76249   -318764.37147  21765627.8644   21765624.7554
      -351.7244
 -22641867.21949 -17609378.71148  19019761.7784   19019759.3374
      3892.7874
 04  9  2 16 15 59.9930000  0  6G 1G20G11G14G22G25
 -22728927.25849 -17700861.55147  19713305.5054   19713304.1464
      4358.9984
  -6460815.85549  -5021760.09047  21473822.3414   21473820.5564
      5325.4734
 -18945241.84049 -14734798.68747  19434432.8254   19434429.6894
      2850.3394
  -2944326.07449  -2287337.09047  19840631.0364   19840628.4314
       -46.0204
   -403599.36349   -314624.87147  21766639.3104   21766635.4464
      -354.1604
 -22700136.30149 -17654783.18748  19008673.4894   19008671.2514
      3884.6054
 04  9  2 16 16 14.9930000  0  6G 1G20G11G14G22G25
 -22794239.78549 -17751754.41847  19700876.9744   19700875.4744
      4354.1684
  -6540684.47349  -5083995.36746  21458624.3724   21458621.8334
      5324.5744
 -18987858.98049 -14768006.85547  19426323.1464   19426319.9424
      2841.1434
  -2943592.58649  -2286765.55947  19840770.7474   19840767.8174
       -48.8994
   -398248.85549   -310455.68447  21767656.8174   21767654.4034
      -356.7014
 -22758280.96149 -17700090.71148  18997608.7244   18997606.6344
      3876.3114
 04  9  2 16 16 29.9930000  0  6G 1G20G11G14G22G25
 -22859480.07049 -17802590.99247  19688462.2474   19688460.6924
      4349.3524
  -6620539.41049  -5146219.98847  21443428.2004   21443426.0644
      5323.6634
 -19030338.17649 -14801107.53547  19418239.6384   19418236.2514
      2831.9464
  -2942816.27049  -2286160.64847  19840918.4194   19840915.7674
       -51.7544
   -392860.42649   -306256.95347  21768682.8644   21768680.0444
      -359.2294
 -22816301.08649 -17745301.19548  18986567.8724   18986565.7514
      3868.0084
 04  9  2 16 16 44.9930000  0  6G 1G20G11G14G22G25
 -22924648.27349 -17853371.39547  19676060.9974   19676059.2474
      4344.5474
  -6700380.93749  -5208434.15247  21428234.5284   21428232.8884
      5322.7684
 -19072679.85549 -14834101.06247  19410182.1224   19410179.0564
      2822.7794
  -2941997.63749  -2285522.77747  19841074.0134   19841071.6894
       -54.5764
   -387434.48849   -302028.97747  21769715.3804   21769712.2784
      -361.7294
 -22874196.83649 -17790414.75848  18975550.7554   18975548.5484
      3859.7174
 04  9  2 16 16 59.9930000  0  6G 1G20G11G14G22G25
 -22989743.46549 -17904094.91447  19663673.8724   19663672.0404
      4339.6794
  -6780207.95749  -5270637.02347  21413044.0914   21413042.4504
      5321.8014
 -19114882.88749 -14866986.54747  19402151.0134   19402148.1574
      2813.5354
  -2941135.89849  -2284851.30947  19841238.2474   19841235.6184
       -57.4494
   -381970.09049   -297771.04747  21770754.8174   21770752.0644
      -364.2934
 -22931967.07449 -17835430.52048  18964557.5054   18964555.2944
      3851.3494
 04  9  2 16 17 14.9930000  0  6G 1G20G11G14G22G25
 -23054767.45349 -17954762.94547  19651299.7714   19651298.3644
      4334.9334
  -6860022.09449  -5332829.84047  21397856.5284   21397854.1264
      5320.9424
 -19156949.07449 -14899765.39547  19394146.5994   19394142.8644
      2804.4134
  -2940233.09049  -2284147.84047  19841409.7164   19841407.8684
       -60.1874
   -376468.97349   -293484.50447  21771802.0834   21771798.4624
      -366.7414
 -22989613.48049 -17880349.79348  18953587.5444   18953585.3604
      3843.0944
 04  9  2 16 17 29.9930000  0  6G 1G20G11G14G22G25
 -23119718.25449 -18005373.94547  19638940.1924   19638938.4974
      4330.0534
  -6939821.20349  -5395010.95347  21382670.9194   21382668.7244
      5319.9414
 -19198876.37149 -14932436.03147  19386167.9824   19386164.6104
      2795.1534
  -2939287.39849  -2283410.96147  19841590.0054   19841587.3104
       -63.0464
   -370929.23049   -289167.84847  21772856.3174   21772852.7324
      -369.3164
 -23047133.92249 -17925170.91448  18942641.8644   18942639.5174
      3834.6964
 04  9  2 16 17 44.9930000  0  6G 1G20G11G14G22G25
 -23184595.85949 -18055927.91447  19626594.5674   19626592.7984
      4325.1744
  -7019605.25849  -5457180.32847  21367488.1534   21367486.8064
      5318.9374
 -19240664.62149 -14964998.30547  19378215.8574   19378212.8964
      2785.8834
  -2938299.07849  -2282640.85247  19841778.2004   19841775.4854
       -65.8884
   -365351.04349   -284821.23847  21773917.1924   21773914.3574
      -371.8794
 -23104528.26249 -17969893.76648  18931720.1924   18931717.7324
      3826.2894
 04  9  2 16 17 59.9930000  0  6G 1G20G11G14G22G25
 -23249400.21949 -18106424.80947  19614262.5754   19614261.0174
      4320.2914
  -7099374.11349  -5519337.87147  21352308.9354   21352306.9584
      5317.9244
 -19282313.93449 -14997452.31647  19370289.9824   19370286.6144
      2776.6214
  -2937268.22349  -2281837.60547  19841974.1074   19841971.8214
       -68.7244
   -359734.35249   -280444.64547  21774986.4744   21774982.9624
      -374.4464
 -23161796.25449 -18014518.17248  18920822.3804   18920819.9114
      3817.8664
 04  9  2 16 18 14.9930000  0  6G 1G20G11G14G22G25
 -23314132.59049 -18156865.61347  19601944.6854   19601942.8764
      4315.4914
  -7179128.82849  -5581484.38747  21337132.2944   21337130.4504
      5316.9814
 -19323825.39849 -15029798.92647  19362390.8104   19362387.8374
      2767.4314
  -2936196.33249  -2281002.39147  19842178.1694   19842175.3374
       -71.4594
   -354080.49249   -276039.05947  21776062.6534   21776059.0644
      -376.9244
 -23218939.07049 -18059045.03548  18909948.7164   18909946.2324
      3809.5214
 04  9  2 16 18 29.9930000  0  6G 1G20G11G14G22G25
 -23378790.79749 -18207248.61747  19589640.9424   19589639.1224
      4310.5474
  -7258867.07049  -5643618.07847  21321958.7554   21321956.3844
      5315.8834
 -19365196.84849 -15062036.42247  19354518.3724   19354514.9584
      2758.0974
  -2935081.46549  -2280133.67647  19842390.7394   19842387.8964
       -74.3244
   -348387.43449   -271602.94147  21777145.4584   21777142.1264
      -379.5374
 -23275954.41449 -18103472.57048  18899098.7714   18899096.6694
      3801.0234
 04  9  2 16 18 44.9930000  0  6G 1G20G11G14G22G25
 -23443377.07849 -18257575.57447  19577350.1304   19577348.6614
      4305.7524
  -7338591.00849  -5705740.61347  21306787.4824   21306785.7864
      5314.9294
 -19406430.47749 -15094166.52747  19346671.4354   19346668.5754
      2748.9094
  -2933926.07049  -2279233.37947  19842610.5674   19842607.9424
       -77.0264
   -342657.43049   -267138.03947  21778236.4974   21778232.8644
      -382.0004
 -23332844.48449 -18147802.48848  18888272.9744   18888270.8064
      3792.6714
 04  9  2 16 18 59.9930000  0  6G 1G20G11G14G22G25
 -23507889.62149 -18307845.08647  19565073.7084   19565072.3294
      4300.8364
  -7418298.66849  -5767850.47747  21291619.6614   21291617.8684
      5313.8444
 -19447524.34449 -15126187.73047  19338851.9274   19338848.5444
      2739.5914
  -2932728.46549  -2278300.19547  19842838.4274   19842835.7394
       -79.8404
   -336888.66449   -262642.91447  21779333.7244   21779330.7474
      -384.5844
 -23389607.21949 -18192033.18748  18877471.5524   18877469.3724
      3784.1824
 04  9  2 16 19 14.9930000  0  6G 1G20G11G14G22G25
 -23572330.98849 -18358059.12147  19552810.9894   19552809.8924
      4296.0914
  -7497992.50049  -5829949.55147  21276454.7244   21276452.8174
      5312.9224
 -19488481.08649 -15158102.07847  19331057.8964   19331054.8294
      2730.4494
  -2931491.47349  -2277336.32447  19843073.7394   19843070.8144
       -82.4664
   -331083.82449   -258119.70747  21780438.3334   21780435.8804
      -386.9894
 -23446245.11749 -18236166.60248  18866693.4824   18866691.2124
      3775.8604
 04  9  2 16 19 29.9930000  0  6G 1G20G11G14G22G25
 -23636700.05149 -18408216.82047  19540562.0054   19540560.6614
      4291.2714
  -7577671.27749  -5892036.90247  21261292.2474   21261290.0244
      5311.9184
 -19529299.57849 -15189908.70747  19323290.5994   19323287.2904
      2721.2334
  -2930214.07849  -2276340.96547  19843316.8884   19843314.1464
       -85.1604
   -325241.84049   -253567.56647  21781549.7864   21781548.2124
      -389.4664
 -23502756.85249 -18280201.71548  18855939.6774   18855937.2944
      3767.4494
 04  9  2 16 19 44.9930000  0  6G 1G20G11G14G22G25
 -23700995.94549 -18458317.51247  19528326.8254   19528325.6184
      4286.3934
  -7657333.94949  -5954111.70347  21246132.8174   21246130.8454
      5310.8454
 -19569978.85249 -15221606.84847  19315549.1854   19315546.5914
      2711.9524
  -2928895.62549  -2275313.62147  19843567.9274   19843565.1224
       -87.8974
   -319361.82449   -248985.76647  21782669.5214   21782666.6104
      -392.0014
 -23559141.45749 -18324137.77348  18845210.0994   18845207.6614
      3758.9744
 04  9  2 16 19 59.9930000  0  6G 1G20G11G14G22G25
 -23765221.30149 -18508363.23447  19516105.0834   19516103.8724
      4281.6904
  -7736982.93749  -6016175.84047  21230976.0364   21230973.8844
      5309.9334
 -19610521.37949 -15253198.43047  19307834.3174   19307831.3024
      2702.8354
  -2927539.00049  -2274256.52747  19843825.7164   19843823.1264
       -90.4424
   -313446.52349   -244376.48847  21783795.2164   21783792.1074
      -394.3534
 -23615401.49649 -18367976.76248  18834504.1774   18834501.7084
      3750.6694
 04  9  2 16 20 14.9930000  0  6G 1G20G11G14G22G25
 -23829375.18749 -18558353.27047  19503896.8574   19503895.5994
      4276.9264
  -7816617.19949  -6078228.49647  21215822.4274   21215819.7394
      5308.9514
 -19650926.36749 -15284682.84447  19300145.7714   19300142.9544
      2693.6664
  -2926143.50049  -2273169.14547  19844091.4114   19844088.5524
       -93.0334
   -307495.03149   -239738.99246  21784927.3574   21784924.5094
      -396.7664
 -23671535.87149 -18411717.83248  18823822.1464   18823819.7244
      3742.2924
 04  9  2 16 20 29.9930000  0  6G 1G20G11G14G22G25
 -23893457.91049 -18608287.85247  19491702.5674   19491700.9274
      4272.1824
  -7896236.98849  -6140269.87947  21200671.1464   21200668.8494
      5307.9864
 -19691194.06249 -15316060.27347  19292483.2244   19292479.7744
      2684.5134
  -2924709.60949  -2272051.84047  19844364.3884   19844361.8214
       -95.5934
   -301507.74649   -235073.62547  21786066.4744   21786063.5994
      -399.1524
 -23727544.87149 -18455361.19948  18813164.0214   18813161.6774
      3733.9334
 04  9  2 16 20 44.9930000  0  6G 1G20G11G14G22G25
 -23957466.54349 -18658164.70347  19479522.2634   19479520.6774
      4267.2424
  -7975839.22349  -6202297.58247  21185523.5994   21185521.2514
      5306.8164
 -19731321.56649 -15347328.46947  19284846.8494   19284843.5834
      2675.1674
  -2923234.60249  -2270902.50047  19844644.9824   19844642.5564
       -98.3344
   -295481.86749   -230378.16447  21787213.3254   21787210.7434
      -401.7254
 -23783425.38349 -18498904.45348  18802530.3494   18802527.9154
      3725.3674
 04  9  2 16 20 59.9930000  0  6G 1G20G11G14G22G25
 -24021402.33249 -18707984.79347  19467355.3104   19467353.6854
      4262.3864
  -8055425.00849  -6264312.46947  21170378.7004   21170376.5524
      5305.7194
 -19771310.12149 -15378488.38347  19277237.3494   19277234.2124
      2665.9044
  -2921720.04349  -2269722.33647  19844933.2164   19844930.8494
      -100.9714
   -289418.72349   -225653.67647  21788367.4034   21788364.4114
      -404.2104
 -23839178.62949 -18542348.53948  18791920.8574   18791918.5674
      3716.8834
 04  9  2 16 21 14.9930000  0  6G 1G20G11G14G22G25
 -24085265.57849 -18757748.35247  19455202.7004   19455201.1734
      4257.5504
  -8134994.49249  -6326314.66047  21155237.4504   21155234.6894
      5304.6324
 -19811160.01249 -15409540.25447  19269654.2394   19269651.2784
      2656.6594
  -2920166.37149  -2268511.69147  19845228.8884   19845226.5364
      -103.5784
   -283318.68049   -220900.43047  21789527.8104   21789525.2674
      -406.6704
 -23894804.78949 -18585693.58648  18781335.5284   18781333.1614
      3708.4114
 04  9  2 16 21 29.9930000  0  6G 1G20G11G14G22G25
 -24149057.34049 -18807456.21547  19443063.7324   19443061.7594
      4252.7844
  -8214548.73849  -6388304.96147  21140098.2634   21140096.3414
      5303.6164
 -19850872.05549 -15440484.71547  19262097.6614   19262094.4934
      2647.4704
  -2918574.88349  -2267271.59047  19845531.8414   19845529.1964
      -106.0994
   -277182.92249   -216119.34847  21790695.4034   21790692.7284
      -409.0514
 -23950304.73849 -18628940.29748  18770774.4034   18770771.9234
      3699.9974
 04  9  2 16 21 44.9930000  0  6G 1G20G11G14G22G25
 -24212776.24249 -18857107.30547  19430938.2244   19430936.6224
      4247.9274
  -8294086.10949  -6450282.12947  21124963.2634   21124960.1854
      5302.4914
 -19890445.06649 -15471320.82847  19254566.8024   19254564.0324
      2638.2014
  -2916944.32449  -2266001.04347  19845841.7084   19845839.6694
      -108.7044
   -271009.99649   -211309.32446  21791869.5284   21791867.3764
      -411.5284
 -24005677.04749 -18672087.54748  18760236.9974   18760234.6814
      3691.4874
 04  9  2 16 21 59.9930000  0  6G 1G20G11G14G22G25
 -24276423.34049 -18906702.43747  19418826.7394   19418824.7784
      4243.1404
  -8373607.45349  -6512246.80147  21109830.3494   21109828.1534
      5301.4234
 -19929879.95349 -15502049.31647  19247062.5134   19247059.2354
      2628.9924
  -2915276.02049  -2264701.07847  19846159.4034   19846156.9314
      -111.2204
   -264801.01649   -206471.23047  21793052.1074   21793049.2674
      -413.9324
 -24060922.52749 -18715135.96948  18749724.2084   18749721.8064
      3683.0324
 04  9  2 16 22 14.9930000  0  6G 1G20G11G14G22G25
 -24339997.07449 -18956240.39847  19406728.9664   19406727.3294
      4238.2494
  -8453111.15249  -6574197.72347  21094701.5994   21094699.1384
      5300.2474
 -19969175.25049 -15532669.04347  19239585.0994   19239581.8884
      2619.6864
  -2913568.52749  -2263370.58247  19846484.6224   19846481.8144
      -113.8334
   -258554.57849   -201603.91447  21794240.6304   21794238.2594
      -416.4294
 -24116039.63749 -18758084.35948  18739235.7004   18739233.5604
      3674.4744
 04  9  2 16 22 29.9930000  0  6G 1G20G11G14G22G25
 -24403498.48849 -19005722.00847  19394645.2864   19394643.5174
      4233.4284
  -8532598.02349  -6636135.53547  21079575.5604   21079572.7714
      5299.1254
 -20008331.84049 -15563180.67647  19232133.7634   19232130.9234
      2610.4394
  -2911822.99249  -2262010.44147  19846816.5914   19846813.9544
      -116.3694
   -252271.70749   -196708.21547  21795435.9354   21795434.3374
      -418.8584
 -24171029.13349 -18800933.31648  18728771.5604   18728769.2004
      3665.9664
 04  9  2 16 22 44.9930000  0  6G 1G20G11G14G22G25
 -24466927.49649 -19055147.21147  19382574.6614   19382573.2434
      4228.6014
  -8612067.89149  -6698060.09047  21064452.7944   21064450.3724
      5297.9914
 -20047349.53949 -15593584.09047  19224708.8494   19224705.8454
      2601.1804
  -2910039.55949  -2260620.77347  19847156.0214   19847153.2434
      -118.8964
   -245952.34449   -191784.08247  21796637.8024   21796635.9704
      -421.2914
 -24225890.83649 -18843682.69948  18718331.9274   18718329.7204
      3657.4474
 04  9  2 16 22 59.9930000  0  6G 1G20G11G14G22G25
 -24530282.40649 -19104514.66447  19370518.8334   19370517.1344
      4223.6614
  -8691518.96949  -6759970.02047  21049333.8024   21049331.2324
      5296.7394
 -20086226.82849 -15623878.08647  19217310.6534   19217307.8414
      2591.8194
  -2908216.75449  -2259200.41847  19847502.9424   19847500.0714
      -121.5204
   -239594.94149   -186830.31247  21797849.1614   21797846.0214
      -423.8274
 -24280623.04749 -18886331.16848  18707916.6534   18707914.4354
      3648.8144
 04  9  2 16 23 14.9930000  0  6G 1G20G11G14G22G25
 -24593565.15249 -19153825.88747  19358476.6074   19358474.7324
      4218.8504
  -8770952.99249  -6821866.64547  21034218.1224   21034215.7324
      5295.6024
 -20124965.59849 -15654064.14847  19209938.8254   19209935.8414
      2582.5854
  -2906356.78549  -2257751.10547  19847856.3884   19847854.1614
      -123.9984
   -233201.40249   -181848.37947  21799065.3024   21799062.8884
      -426.2364
 -24335227.51249 -18928880.09448  18697525.5914   18697523.5404
      3640.2984
 04  9  2 16 23 29.9930000  0  6G 1G20G11G14G22G25
 -24656773.57049 -19203079.19147  19346448.2864   19346446.8804
      4213.8954
  -8850367.66449  -6883748.20347  21019105.9114   21019104.0404
      5294.3114
 -20163563.68049 -15684140.58647  19202593.9034   19202591.0604
      2573.2054
  -2904457.58649  -2256271.23447  19848218.3104   19848215.3174
      -126.6134
   -226769.65649   -176836.67647  21800289.6854   21800286.5914
      -428.7834
 -24389702.06649 -18971327.79748  18687159.6694   18687157.1264
      3631.6374
 04  9  2 16 23 44.9930000  0  6G 1G20G11G14G22G25
 -24719908.45349 -19252275.19547  19334434.3414   19334432.6184
      4208.9924
  -8929763.70749  -6945615.23447  21003997.6074   21003995.1034
      5293.0704
 -20202021.85549 -15714108.00847  19195275.6304   19195272.5954
      2563.8784
  -2902520.26649  -2254761.64847  19848586.9034   19848583.7204
      -129.1554
   -220300.68449   -171795.94147  21801520.3104   21801517.8294
      -431.2654
 -24444047.37549 -19013674.78548  18676818.2634   18676815.9784
      3623.0214
 04  9  2 16 23 59.9930000  0  6G 1G20G11G14G22G25
 -24782969.93749 -19301414.00847  19322433.9354   19322432.0134
      4204.0994
  -9009140.94149  -7007467.62147  20988892.2394   20988890.1614
      5291.8164
 -20240340.17249 -15743966.44147  19187983.9424   19187981.0174
      2554.5544
  -2900545.03549  -2253222.52347  19848962.7324   19848960.1074
      -131.6824
   -213794.55549   -166726.28547  21802758.3724   21802756.0444
      -433.7424
 -24498263.41049 -19055921.04748  18666501.1534   18666498.6344
      3614.4024
 04  9  2 16 24 14.9930000  0  6G 1G20G11G14G22G25
 -24845958.34849 -19350495.87947  19310447.6224   19310446.1144
      4199.2274
  -9088499.59449  -7069305.52047  20973790.9354   20973788.6304
      5290.5774
 -20278518.93749 -15773716.13747  19180719.0834   19180715.6924
      2545.2514
  -2898532.37149  -2251654.23047  19849345.7004   19849342.7204
      -134.1784
   -207251.66849   -161627.97747  21804003.7554   21804000.8604
      -436.1924
 -24552350.40649 -19098066.75448  18656208.7714   18656206.3454
      3605.8004
 04  9  2 16 24 29.9930000  0  6G 1G20G11G14G22G25
 -24908874.33649 -19399521.31647  19298475.3254   19298473.8534
      4194.3994
  -9167840.21949  -7131129.37947  20958693.1304   20958690.4854
      5289.3754
 -20316558.80949 -15803357.60247  19173480.5134   19173477.3964
      2535.9914
  -2896483.12549  -2250057.43047  19849735.5524   19849732.8964
      -136.6164
   -200672.68449   -156501.54347  21805255.9584   21805253.2434
      -438.5994
 -24606308.85949 -19140112.29748  18645940.9504   18645938.3724
      3597.2304
 04  9  2 16 24 44.9930000  0  6G 1G20G11G14G22G25
 -24971717.20749 -19448489.78147  19286516.5674   19286515.0834
      4189.5254
  -9247162.00449  -7192938.55947  20943598.1614   20943595.8254
      5288.1194
 -20354459.02349 -15832890.25047  19166268.1774   19166264.8684
      2526.6814
  -2894396.80949  -2248431.74247  19850132.6694   19850130.4074
      -139.0884
   -194057.13749   -151346.60547  21806514.7084   21806511.7474
      -441.0364
 -24660138.09049 -19182057.14548  18635697.5524   18635694.7594
      3588.6154
 04  9  2 16 24 59.9920000  0  6G 1G20G11G14G22G25
 -25034482.34049 -19497397.67247  19274572.5554   19274571.1604
      4184.3424
  -9326459.00049  -7254728.41847  20928508.7194   20928506.1914
      5286.4664
 -20392216.77749 -15862311.88347  19159083.0244   19159080.0314
      2517.1844
  -2892273.34049  -2246777.10547  19850537.1884   19850534.1684
      -141.5654
   -187404.92649   -146163.10547  21807780.7894   21807777.3674
      -443.4814
 -24713833.91049 -19223898.04348  18625479.1884   18625477.0044
      3579.7214
 04  9  2 16 25 14.9920000  0  6G 1G20G11G14G22G25
 -25097179.05549 -19546252.25047  19262641.9614   19262640.4414
      4179.7814
  -9405742.60249  -7316507.83247  20913421.6724   20913419.1914
      5285.5734
 -20429838.00849 -15891627.13347  19151924.0554   19151920.9144
      2508.0824
  -2890113.66449  -2245094.25847  19850947.8134   19850945.3794
      -143.9784
   -180716.27049   -140951.18447  21809053.1494   21809050.8444
      -445.9104
 -24767404.20749 -19265641.12948  18615285.2814   18615282.7974
      3571.3534
 04  9  2 16 25 29.9920000  0  6G 1G20G11G14G22G25
 -25159801.60249 -19595049.03147  19250725.2424   19250723.7314
      4174.8364
  -9485005.76249  -7378271.32847  20898338.1884   20898335.9384
      5284.2114
 -20467318.66849 -15920832.85547  19144791.4304   19144788.2744
      2498.7114
  -2887916.42649  -2243382.14147  19851365.8754   19851363.5554
      -146.4834
   -173990.06249   -135710.02347  21810333.3524   21810331.3874
      -448.4144
 -24820843.71149 -19307282.29748  18605115.7814   18605113.5394
      3562.6344
 04  9  2 16 25 44.9920000  0  6G 1G20G11G14G22G25
 -25222349.46149 -19643787.61747  19238822.7504   19238820.9654
      4169.8574
  -9564247.82049  -7440018.38747  20883259.3204   20883256.6414
      5282.8044
 -20504658.05949 -15949928.48847  19137686.3054   19137682.9144
      2489.2934
  -2885681.19549  -2241640.41847  19851791.7504   19851789.0984
      -149.0154
   -167225.82449   -130439.23447  21811620.6414   21811618.1414
      -450.9494
 -24874151.87949 -19348821.12948  18594971.7504   18594969.5124
      3553.8784
 04  9  2 16 25 59.9920000  0  6G 1G20G11G14G22G25
 -25284823.59849 -19692468.76247  19226934.4454   19226932.9924
      4164.9424
  -9643469.59049  -7501749.62547  20868183.8914   20868181.4024
      5281.4514
 -20541857.17249 -15978914.81247  19130607.5244   19130604.1334
      2479.9414
  -2883409.20349  -2239870.05547  19852223.5314   19852221.5044
      -151.4664
   -160424.66449   -125139.66847  21812914.5314   21812911.9734
      -453.4114
 -24927329.64849 -19390258.34448  18584852.4144   18584850.1294
      3545.1854
 04  9  2 16 26 14.9920000  0  6G 1G20G11G14G22G25
 -25347226.84849 -19741094.66847  19215059.3284   19215057.7624
      4160.2174
  -9722673.84049  -7563467.21947  20853111.2584   20853108.8914
      5280.2834
 -20578918.89149 -16007794.08247  19123554.9304   19123551.6374
      2470.7814
  -2881103.47349  -2238073.39147  19852662.5634   19852660.3674
      -153.7154
   -153589.34049   -119813.48047  21814215.3284   21814212.9964
      -455.6884
 -24980379.77749 -19431596.10948  18574757.3444   18574755.0824
      3536.6754
 04  9  2 16 26 29.9920000  0  6G 1G20G11G14G22G25
 -25409555.25049 -19789662.24247  19203198.6254   19203197.1454
      4155.2274
  -9801856.35949  -7625167.86347  20838043.4384   20838041.3564
      5278.8354
 -20615839.22749 -16036563.18447  19116528.7424   19116525.9064
      2461.3564
  -2878760.19149  -2236247.47347  19853108.3204   19853106.3634
      -156.2194
   -146716.03149   -114457.69947  21815524.2194   21815520.9814
      -458.2214
 -25033298.23049 -19472831.26648  18564687.2974   18564684.9304
      3527.8974
 04  9  2 16 26 44.9920000  0  6G 1G20G11G14G22G25
 -25471812.00849 -19838174.00047  19191351.8444   19191350.2314
      4150.4514
  -9881020.25049  -7686854.00047  20822978.8134   20822977.0784
      5277.5934
 -20652621.31249 -16065224.55547  19109529.8994   19109526.5004
      2452.1394
  -2876382.84049  -2234395.01647  19853560.6414   19853558.7464
      -158.4904
   -139808.08649   -109074.91447  21816838.1804   21816835.4614
      -460.5304
 -25086087.98449 -19513966.13748  18554641.5634   18554639.3014
      3519.3174
 04  9  2 16 26 59.9920000  0  6G 1G20G11G14G22G25
 -25533994.11349 -19886627.59047  19179518.8754   19179517.3244
      4145.4744
  -9960162.22749  -7748523.07047  20807919.1564   20807916.6454
      5276.1324
 -20689262.12949 -16093775.84847  19102557.0554   19102554.0314
      2442.7214
  -2873968.59449  -2232513.79347  19854020.2114   19854017.7584
      -160.9504
   -132862.52749   -103662.82847  21818159.6564   21818156.5274
      -463.0374
 -25138745.84049 -19554998.23048  18544621.2424   18544618.8794
      3510.5244
 04  9  2 16 27 14.9920000  0  6G 1G20G11G14G22G25
 -25596097.96549 -19935020.19147  19167701.0944   19167699.5084
      4140.2574
 -10039278.60249  -7810172.18047  20792863.6804   20792861.3524
      5274.4254
 -20725758.19149 -16122214.35247  19095611.9534   19095609.0704
      2433.0714
  -2871513.99649  -2230601.14147  19854487.1174   19854485.1644
      -163.6404
   -125875.80549    -98218.66847  21819489.7814   21819486.3324
      -465.7824
 -25191268.24249 -19595924.77048  18534626.6724   18534624.4454
      3501.4934
 04  9  2 16 27 29.9920000  0  6G 1G20G11G14G22G25
 -25658128.01649 -19983355.28947  19155896.7424   19155895.5394
      4135.3374
 -10118373.72349  -7871804.73047  20777812.3364   20777810.1524
      5273.0084
 -20762113.99249 -16150543.55147  19088693.7114   19088690.8484
      2423.7204
  -2869023.68449  -2228660.66047  19854961.0634   19854958.8284
      -166.0214
   -118852.39849    -92745.91047  21820825.6024   21820823.1954
      -468.2274
 -25243659.60549 -19636749.21148  18524656.7504   18524654.3284
      3492.7584
 04  9  2 16 27 44.9920000  0  6G 1G20G11G14G22G25
 -25720087.11749 -20031635.10547  19144106.6564   19144105.1954
      4130.6074
 -10197450.16849  -7933422.73047  20762764.6174   20762762.4184
      5271.7634
 -20798332.32449 -16178765.63347  19081801.9534   19081798.9884
      2414.5554
  -2866500.57049  -2226694.59847  19855441.4064   19855439.2034
      -168.2084
   -111795.14149    -87246.79346  21822168.6334   21822166.3594
      -470.4844
 -25295922.51249 -19677473.54748  18514711.4144   18514708.9774
      3484.1944
 04  9  2 16 27 59.9920000  0  6G 1G20G11G14G22G25
 -25781974.32849 -20079858.90247  19132329.6174   19132328.0944
      4125.8144
 -10276506.90649  -7995025.38747  20747720.8204   20747718.5124
      5270.4494
 -20834412.27349 -16206879.88747  19074936.1094   19074933.1884
      2405.3304
  -2863944.00849  -2224702.49247  19855927.9774   19855925.7234
      -170.4374
   -104703.32449    -81720.75046  21823518.1334   21823515.6024
      -472.7884
 -25348056.03549 -19718097.06648  18504791.0394   18504788.5004
      3475.5684
 04  9  2 16 28 14.9920000  0  6G 1G20G11G14G22G25
 -25843791.14849 -20128027.84047  19120566.3054   19120565.0204
      4121.1214
 -10355545.25049  -8056613.68747  20732680.1564   20732678.0984
      5269.2234
 -20870355.25849 -16234887.42247  19068096.2424   19068093.2274
      2396.1994
  -2861355.66449  -2222685.61347  19856420.2894   19856417.6604
      -172.5564
    -97578.31649    -76168.83646  21824874.1024   21824872.1214
      -475.0014
 -25400061.61349 -19758620.89148  18494894.6644   18494892.1094
      3467.0394
 04  9  2 16 28 29.9920000  0  6G 1G20G11G14G22G25
 -25905534.47749 -20176139.52047  19108817.2584   19108815.5864
      4116.2224
 -10434561.92249  -8118185.10547  20717643.7974   20717641.5204
      5267.7784
 -20906158.12149 -16262785.75847  19061283.2424   19061280.2704
      2386.8584
  -2858732.57449  -2220641.67247  19856919.9384   19856917.4774
      -174.8734
    -90417.11349    -70588.69547  21826237.2034   21826234.7194
      -477.4144
 -25451936.03949 -19799042.51648  18485023.1414   18485020.9064
      3458.2954
 04  9  2 16 28 44.9920000  0  6G 1G20G11G14G22G25
 -25967204.93449 -20224194.41847  19097081.7034   19097080.2814
      4111.3644
 -10513557.43749  -8179740.05547  20702611.3524   20702608.6524
      5266.3684
 -20941821.61349 -16290575.49647  19054496.6954   19054493.8794
      2377.5664
  -2856075.59449  -2218571.31247  19857425.2504   19857422.6494
      -177.1324
    -83220.55949    -64981.01646  21827606.5314   21827603.8484
      -479.7704
 -25503679.81649 -19839362.33648  18475176.6804   18475174.3244
      3449.5854
 04  9  2 16 28 59.9920000  0  6G 1G20G11G14G22G25
 -26028799.95749 -20272190.53947  19085360.3134   19085358.4654
      4106.3354
 -10592529.10249  -8241276.41047  20687583.6414   20687580.8244
      5264.7784
 -20977343.22349 -16318254.68447  19047737.3444   19047734.4304
      2368.1074
  -2853382.27349  -2216472.63347  19857937.8204   19857935.9184
      -179.5554
    -75985.98849    -59343.75846  21828983.2744   21828981.4964
      -482.3054
 -25555290.28949 -19879578.28548  18465355.6024   18465353.0904
      3440.6984
 04  9  2 16 29 14.9920000  0  6G 1G20G11G14G22G25
 -26090324.39149 -20320131.65247  19073652.5864   19073650.7384
      4101.6294
 -10671481.45349  -8302797.71147  20672559.7584   20672556.7624
      5263.4904
 -21012727.72749 -16345827.02747  19041003.4694   19041000.6024
      2358.9674
  -2850657.58649  -2214349.52347  19858456.1494   19858454.2274
      -181.6464
    -68718.36749    -53680.71546  21830366.6334   21830363.7584
      -484.5084
 -25606772.16449 -19919694.03548  18455558.8054   18455556.1214
      3432.1254
 04  9  2 16 29 29.9920000  0  6G 1G20G11G14G22G25
 -26151773.63749 -20368014.17647  19061959.1804   19061957.4734
      4096.6164
 -10750409.84049  -8364300.34047  20657540.1644   20657536.9964
      5261.8924
 -21047970.57449 -16373288.99247  19034297.3674   19034294.3134
      2349.5234
  -2847897.24649  -2212198.62547  19858981.5244   19858979.4884
      -184.0234
    -61413.14149    -47988.35946  21831756.4144   21831753.9104
      -487.0154
 -25658120.97749 -19959706.08648  18445787.4384   18445785.0474
      3423.2544
 04  9  2 16 29 44.9920000  0  6G 1G20G11G14G22G25
 -26213150.66049 -20415840.42247  19050279.4304   19050277.9224
      4091.8024
 -10829316.87549  -8425786.33247  20642524.4924   20642521.5124
      5260.4694
 -21083074.72749 -16400642.87947  19027617.2424   19027614.3284
      2340.2774
  -2845104.30149  -2210022.32047  19859513.0944   19859510.7774
      -186.1964
    -54073.41449    -42269.13746  21833152.7584   21833150.1564
      -489.3154
 -25709339.38749 -19999616.53148  18436040.7664   18436038.3484
      3414.5614
 04  9  2 16 29 59.9920000  0  5G 1G20G11G14G25
 -26274455.29749 -20463610.27048  19038613.5164   19038611.9774
      4086.9764
 -10908202.36349  -8487255.53547  20627513.1094   20627510.2034
      5259.0334
 -21118039.92649 -16427888.49247  19020963.4064   19020960.5824
      2331.0134
  -2842278.72349  -2207820.58647  19860050.8994   19860048.4024
      -188.3724
 -25760427.13749 -20039425.15648  18426319.0864   18426316.8404
      3405.8504
 04  9  2 16 30 14.9920000  0  5G 1G20G11G14G25
 -26335687.17249 -20511323.41047  19026961.7664   19026960.1064
      4082.1254
 -10987065.79349  -8548707.54747  20612506.0784   20612503.1414
      5257.5624
 -21152865.95749 -16455025.66847  19014336.5164   19014333.0274
      2321.7354
  -2839420.28549  -2205593.25047  19860594.6804   19860592.1134
      -190.5624
 -25811383.77749 -20079131.62948  18416622.4454   18416620.1024
      3397.1094
 04  9  2 16 30 29.9920000  0  5G 1G20G11G14G25
 -26396846.09049 -20558979.70347  19015323.4224   19015321.9184
      4077.2614
 -11065906.74249  -8610142.04747  20597502.7274   20597499.9344
      5256.0634
 -21187552.49649 -16482054.14547  19007735.6724   19007732.7384
      2312.4364
  -2836529.00449  -2203340.32047  19861144.8364   19861142.4694
      -192.7524
 -25862208.98449 -20118735.67648  18406950.9774   18406948.6174
      3388.3474
 04  9  2 16 30 44.9920000  0  5G 1G20G11G14G25
 -26457932.45749 -20606579.46547  19003699.0704   19003697.6604
      4072.4244
 -11144725.36349  -8671559.14147  20582504.0634   20582501.4964
      5254.5754
 -21222100.05149 -16508974.32047  19001161.5784   19001158.5434
      2303.1704
  -2833605.44149  -2201062.23447  19861701.4304   19861698.9494
      -194.9044
 -25912903.23449 -20158237.68448  18397304.1094   18397301.4654
      3379.6174
 04  9  2 16 30 59.9920000  0  5G 1G20G11G14G25
 -26518944.70349 -20654121.47347  18992088.8284   18992087.1374
      4067.4834
 -11223519.98049  -8732957.53947  20567509.8834   20567507.2464
      5252.9744
 -21256506.92249 -16535784.87547  18994614.0084   18994610.8594
      2293.7914
  -2830648.18449  -2198757.89147  19862264.1724   19862261.4024
      -197.1514
 -25963464.82849 -20197636.32448  18387682.6094   18387680.1174
      3370.7734
 04  9  2 16 31 14.9920000  0  5G 1G20G11G14G25
 -26579881.62549 -20701604.78547  18980493.0704   18980491.5904
      4062.4614
 -11302289.30149  -8794336.21547  20552520.7744   20552517.7504
      5251.2884
 -21290772.09049 -16562485.00847  18988093.9384   18988090.7234
      2284.3454
  -2827656.31249  -2196426.58247  19862833.3204   19862831.2504
      -199.4584
 -26013892.50849 -20236930.61348  18378086.1564   18378083.6524
      3361.8454
 04  9  2 16 31 29.9920000  0  5G 1G20G11G14G25
 -26640743.53549 -20749029.64847  18968911.3524   18968909.7774
      4057.4614
 -11381033.37949  -8855695.23047  20537535.9774   20537533.6494
      5249.6054
 -21324895.89849 -16589074.99247  18981600.0394   18981597.0474
      2274.9214
  -2824630.11349  -2194068.52347  19863409.3054   19863406.5594
      -201.7474
 -26064186.42649 -20276120.67248  18368515.5164   18368513.1564
      3352.9284
 04  9  2 16 31 44.9920000  0  5G 1G20G11G14G25
 -26701531.58649 -20796396.94547  18957343.5944   18957341.9734
      4052.5374
 -11459753.30549  -8917035.42647  20522556.0704   20522553.5354
      5247.9954
 -21358879.52749 -16615555.75047  18975133.1644   18975130.2154
      2265.5754
  -2821570.96549  -2191684.78947  19863991.5244   19863989.1884
      -203.9434
 -26114347.68749 -20315207.36348  18358970.5394   18358967.7384
      3344.0844
 04  9  2 16 31 59.9920000  0  5G 1G20G11G14G25
 -26762246.28949 -20843707.10547  18945790.2744   18945788.2584
      4047.6474
 -11538449.32849  -8978356.99647  20507580.8524   20507578.4184
      5246.4024
 -21392723.32849 -16641927.54747  18968693.1724   18968690.4144
      2256.2534
  -2818479.55549  -2189275.91447  19864579.4064   19864577.0824
      -206.0944
 -26164376.59449 -20354190.92648  18349450.1644   18349447.6334
      3335.2604
 04  9  2 16 32 14.9920000  0  5G 1G20G11G14G25
 -26822887.26249 -20890959.79747  18934250.5944   18934248.8754
      4042.7324
 -11617120.87149  -9039659.47347  20492610.1334   20492607.6524
      5244.7704
 -21426427.03949 -16668190.18047  18962279.3674   18962276.2384
      2246.9144
  -2815355.76649  -2186841.80547  19865174.3994   19865171.4494
      -208.2534
 -26214272.87549 -20393071.14148  18339955.3674   18339952.8324
      3326.4194
 04  9  2 16 32 29.9920000  0  5G 1G20G11G14G25
 -26883455.23449 -20938155.62147  18922724.8674   18922723.1254
      4037.8654
 -11695768.47749  -9100943.31647  20477643.7424   20477641.7274
      5243.1744
 -21459991.38749 -16694344.22347  18955892.0864   18955889.2704
      2237.6234
  -2812200.34049  -2184383.06247  19865774.6724   19865772.0784
      -210.3624
 -26264037.18049 -20431848.51648  18330485.1414   18330483.0044
      3317.6204
 04  9  2 16 32 44.9920000  0  5G 1G20G11G14G25
 -26943949.16049 -20985293.73047  18911213.2194   18911211.6374
      4032.9284
 -11774390.95349  -9162207.58247  20462682.5314   20462680.1024
      5241.4984
 -21493415.38749 -16720388.90647  18949531.8674   18949528.9654
      2228.2674
  -2809012.48449  -2181899.02747  19866381.6414   19866379.1094
      -212.5244
 -26313668.32049 -20470522.12148  18321040.7974   18321038.5274
      3308.7434
 04  9  2 16 32 59.9920000  0  5G 1G20G11G14G25
 -27004369.17249 -21032374.25847  18899715.5164   18899713.7274
      4028.0014
 -11852988.28149  -9223452.24247  20447726.0704   20447723.8714
      5239.8224
 -21526699.14549 -16746324.30947  18943198.1644   18943195.1214
      2218.9174
  -2805792.47349  -2179389.94147  19866994.2974   19866991.1954
      -214.6674
 -26363166.38349 -20509092.03948  18311621.7974   18311619.2424
      3299.8714
 04  9  2 16 33 14.9920000  0  5G 1G20G11G14G25
 -27064717.39149 -21079398.83247  18888231.6174   18888230.0514
      4023.2154
 -11931562.36349  -9284678.79347  20432773.6644   20432771.4774
      5238.2724
 -21559844.96149 -16772152.21947  18936890.9844   18936887.9414
      2209.7214
  -2802542.57449  -2176857.57447  19867612.4694   19867610.1334
      -216.6604
 -26412533.25849 -20547559.73048  18302227.4774   18302225.0864
      3291.1254
 04  9  2 16 33 29.9920000  0  5G 1G20G11G14G25
 -27124992.57449 -21126366.49647  18876761.7814   18876760.0704
      4018.3464
 -12010111.72349  -9345886.06647  20417826.4304   20417823.8754
      5236.6244
 -21592851.41849 -16797871.53947  18930609.7894   18930606.7344
      2200.4304
  -2799261.58649  -2174300.97347  19868237.2664   19868234.3444
      -218.7334
 -26461767.61749 -20585924.15648  18292858.5084   18292856.0554
      3282.2914
 04  9  2 16 33 44.9920000  0  5G 1G20G11G14G25
 -27185195.31249 -21173277.71547  18865305.5554   18865304.0704
      4013.5164
 -12088636.81249  -9407074.44147  20402883.2974   20402881.2314
      5235.0064
 -21625719.09049 -16823482.71147  18924355.3204   18924352.3324
      2191.1784
  -2795950.28149  -2171720.75447  19868867.1494   19868864.6294
      -220.7544
 -26510870.12149 -20624185.84848  18283514.7274   18283512.1724
      3273.5004
 04  9  2 16 33 59.9920000  0  5G 1G20G11G14G25
 -27245324.20349 -21220131.39147  18853863.2504   18853861.5004
      4008.5934
 -12167136.07449  -9468242.68447  20387945.4614   20387943.4414
      5233.2844
 -21658446.82449 -16848984.84847  18918127.5004   18918124.5944
      2181.8494
  -2792607.53149  -2169116.03147  19869503.0244   19869500.5044
      -222.8504
 -26559839.37949 -20662343.70348  18274195.9844   18274193.6174
      3264.6174
 04  9  2 16 34 14.9920000  0  5G 1G20G11G14G25
 -27305381.21549 -21266929.04748  18842435.0474   18842433.2154
      4003.8014
 -12245611.26649  -9529392.17647  20373012.3204   20373009.8754
      5231.6794
 -21691036.46149 -16874379.37947  18911925.8834   18911923.1684
      2172.6424
  -2789235.45349  -2166488.46147  19870144.6494   19870142.5634
      -224.8054
 -26608677.29749 -20700399.21948  18264902.5554   18264900.2234
      3255.8614
 04  9  2 16 34 29.9920000  0  5G 1G20G11G14G25
 -27365364.43049 -21313669.20347  18831020.5634   18831018.6174
      3998.8814
 -12324060.25049  -9590521.24647  20358084.0004   20358081.5204
      5229.9324
 -21723486.14849 -16899664.85547  18905750.8674   18905747.8484
      2163.3134
  -2785832.24649  -2163836.62147  19870792.7664   19870789.9964
      -226.8804
 -26657381.73849 -20738350.72748  18255634.2194   18255631.8634
      3246.9634
 04  9  2 16 34 44.9920000  0  5G 1G20G11G14G25
 -27425274.91849 -21360352.69147  18819619.9924   18819618.1294
      3994.0334
 -12402483.97749  -9651630.63347  20343160.5704   20343158.0744
      5228.2484
 -21755796.99249 -16924842.13747  18899602.3284   18899599.1724
      2154.0564
  -2782399.17249  -2161161.52047  19871446.0314   19871443.0474
      -228.8724
 -26705953.71549 -20776199.01248  18246391.1024   18246389.0044
      3238.1324
 04  9  2 16 34 59.9920000  0  5G 1G20G11G14G25
 -27485111.12549 -21406978.30148  18808233.5554   18808231.8714
      3989.0804
 -12480880.62949  -9712718.93047  20328242.1024   20328239.8244
      5226.4434
 -21787967.43049 -16949910.02047  18893480.7584   18893477.7154
      2144.6964
  -2778934.75849  -2158461.98847  19872105.3364   19872102.3954
      -230.9614
 -26754391.69549 -20813942.88348  18237173.6564   18237171.4224
      3229.1994
 04  9  2 16 35 14.9920000  0  5G 1G20G11G14G25
 -27544875.62949 -21453548.02748  18796860.6494   18796859.1334
      3984.3004
 -12559252.73049  -9773788.08647  20313328.3284   20313326.1374
      5224.8074
 -21820000.21149 -16974870.63347  18887385.0864   18887382.1254
      2135.5194
  -2775441.80949  -2155740.23047  19872769.5164   19872767.1494
      -232.8634
 -26802698.19149 -20851584.31248  18227981.7504   18227979.5044
      3220.4334
 04  9  2 16 35 29.9920000  0  6G 1G20G11G14G23G25
 -27604568.17249 -21500061.69548  18785501.1334   18785499.7234
      3979.5034
 -12637599.76249  -9834837.71147  20298419.2034   20298417.0204
      5223.1354
 -21851895.01649 -16999723.73047  18881315.3834   18881312.8874
      2126.3204
  -2771920.22749  -2152996.16847  19873439.9534   19873437.3484
      -234.7724
   -196006.75459   -140070.38357  21608041.5004   21608037.5124

 -26850872.89849 -20889123.03148  18218814.2664   18218811.6884
      3211.6474
 04  9  2 16 35 44.9920000  0  6G 1G20G11G14G23G25
 -27664188.54349 -21546519.10948  18774155.9304   18774154.7384
      3974.6914
 -12715921.28549  -9895867.45747  20283515.4614   20283512.7074
      5221.4354
 -21883651.70749 -17024469.20747  18875272.5084   18875269.6094
      2117.1134
  -2768369.90649  -2150229.69947  19874115.4924   19874113.3994
      -236.6884
   -275543.68049   -202047.18447  21592906.3444   21592902.7344
      5302.4624
 -26898915.54749 -20926558.85948  18209671.9694   18209669.6294
      3202.8434
 04  9  2 16 35 59.9920000  0  6G 1G20G11G14G23G25
 -27723738.53549 -21592921.69148  18762824.1804   18762822.5904
      3969.9994
 -12794218.81249  -9956878.51247  20268615.8054   20268613.5044
      5219.8354
 -21915272.01649 -17049108.41047  18869255.4694   18869251.9574
      2108.0214
  -2764792.83649  -2147442.39147  19874796.3364   19874793.5984
      -238.4714
   -355050.58649   -264000.59847  21577776.2114   21577772.9694
      5300.4604
 -26946827.53549 -20963892.86748  18200554.6564   18200552.3444
      3194.1334
 04  9  2 16 36 14.9910000  0  6G 1G20G11G14G23G25
 -27783213.31249 -21639265.66848  18751506.5504   18751504.9994
      3964.9854
 -12872486.16049 -10017866.04747  20253721.8624   20253719.3704
      5217.8234
 -21946753.02749 -17073639.07047  18863264.7764   18863261.4054
      2098.7344
  -2761188.41449  -2144633.76647  19875482.2764   19875479.4294
      -240.2954
   -434521.36349   -325925.85247  21562653.0584   21562650.4334
      5298.0524
 -26994604.93749 -21001122.00448  18191463.0264   18191460.4214
      3185.1604
 04  9  2 16 36 29.9910000  0  6G 1G20G11G14G23G25
 -27842619.27049 -21685556.01248  18740201.7694   18740200.2654
      3960.3974
 -12950732.10949 -10078836.90647  20238832.1124   20238829.6514
      5216.3974
 -21978097.48849 -17098063.33247  18857299.9564   18857297.1364
      2089.6314
  -2757554.78949  -2141802.39147  19876173.8784   19876171.1284
      -242.2424
   -513964.89149   -387829.87947  21547536.2374   21547532.7574
      5296.2354
 -27042252.47749 -21038249.95748  18182395.9644   18182393.5934
      3176.5034
 04  9  2 16 36 44.9910000  0  6G 1G20G11G14G23G25
 -27901956.49649 -21731792.79747  18728910.3944   18728908.7334
      3955.8154
 -13028955.27349 -10139790.02347  20223947.1594   20223944.2224
      5214.8784
 -22009307.39849 -17122382.75047  18851360.9874   18851358.2374
      2080.6614
  -2753896.50849  -2138951.79747  19876869.9874   19876867.4374
      -243.8854
   -593379.95349   -449711.72747  21532423.4484   21532420.2064
      5294.3374
 -27089771.14149 -21075277.47748  18173353.4174   18173351.2414
      3167.9114
 04  9  2 16 36 59.9910000  0  6G 1G20G11G14G23G25
 -27961223.49649 -21777974.87548  18717632.2454   18717630.5664
      3951.1334
 -13107153.89549 -10200724.00047  20209066.5894   20209063.7144
      5213.2414
 -22040381.21549 -17146596.11347  18845447.8624   18845444.5934
      2071.5884
  -2750212.11349  -2136080.85247  19877570.7144   19877568.5464
      -245.6264
   -672764.86749   -511570.09047  21517316.9174   21517313.8234
      5292.3284
 -27137159.31649 -21112203.32848  18164335.7304   18164333.4444
      3159.2124
 04  9  2 16 37 14.9910000  0  6G 1G20G11G14G23G25
 -28020417.50049 -21824100.05947  18706367.9254   18706366.5624
      3946.2674
 -13185325.05549 -10261636.58647  20194190.4094   20194188.1084
      5211.4114
 -22071316.23449 -17170701.33247  18839560.9334   18839558.3194
      2062.3354
  -2746499.04349  -2133187.57047  19878277.0424   19878274.9414
      -247.5384
   -752116.98049   -573402.87147  21502217.0974   21502213.3314
      5290.1414
 -27184414.24649 -21149025.34448  18155343.4564   18155341.0974
      3150.3294
 04  9  2 16 37 29.9910000  0  6G 1G20G11G14G23G25
 -28079540.12149 -21870169.62148  18695117.4644   18695115.5814
      3941.5084
 -13263470.13749 -10322528.86347  20179320.2844   20179317.4564
      5209.6724
 -22102114.11749 -17194699.68747  18833700.4014   18833697.6014
      2053.1924
  -2742758.94549  -2130273.22747  19878988.9954   19878986.9954
      -249.3404
   -831437.70749   -635211.19546  21487122.8784   21487118.7574
      5288.0484
 -27231537.34449 -21185744.64148  18146376.1754   18146373.4564
      3141.5404
 04  9  2 16 37 44.9910000  0  6G 1G20G11G14G23G25
 -28138588.46949 -21916181.31647  18683880.7844   18683879.1874
      3936.5574
 -13341586.13749 -10383398.46947  20164455.1674   20164452.6404
      5207.7334
 -22132772.17249 -17218589.08647  18827866.5894   18827863.5114
      2043.8704
  -2738989.21949  -2127335.78947  19879706.2144   19879704.3004
      -251.3154
   -910724.07849   -696992.75847  21472035.0894   21472031.3044
      5285.7584
 -27278525.66449 -21222358.90648  18137434.3314   18137432.0034
      3132.5554
 04  9  2 16 37 59.9910000  0  6G 1G20G11G14G23G25
 -28197564.33649 -21962136.52747  18672658.1674   18672656.5034
      3931.7244
 -13419674.60549 -10444246.62147  20149595.1124   20149593.3664
      5205.8984
 -22163292.06649 -17242370.82447  18822058.5664   18822055.6594
      2034.6604
  -2735191.77749  -2124376.76647  19880428.9254   19880426.8664
      -253.1634
   -989977.82449   -758748.90247  21456953.7224   21456949.4914
      5283.5834
 -27325380.98849 -21258869.53948  18128518.3394   18128515.8434
      3123.6884
 04  9  2 16 38 14.9910000  0  6G 1G20G11G14G23G25
 -28256468.49649 -22008035.86747  18661448.5894   18661447.1794
      3926.9444
 -13497735.99249 -10505073.66047  20134740.9954   20134738.7844
      5204.0924
 -22193674.64849 -17266045.57047  18816277.1204   18816274.0154
      2025.5054
  -2731367.48049  -2121396.81247  19881156.8004   19881154.9254
      -254.9534
  -1069199.54349   -820480.09447  21441878.3084   21441874.5234
      5281.4484
 -27372104.03549 -21295277.10548  18119627.2224   18119624.7374
      3114.8704
 04  9  2 16 38 29.9910000  0  6G 1G20G11G14G23G25
 -28315298.39849 -22053877.34047  18650254.0114   18650252.4484
      3921.9934
 -13575767.71149 -10565877.58647  20119891.7694   20119889.9444
      5202.1154
 -22223917.45749 -17289611.39847  18810522.0584   18810519.4174
      2016.1874
  -2727513.91849  -2118394.05547  19881889.9644   19881888.0814
      -256.9044
  -1148386.68049   -882184.32447  21426809.4874   21426805.9414
      5279.1424
 -27418692.20349 -21331579.57048  18110761.8784   18110759.5264
      3105.8784
 04  9  2 16 38 44.9910000  0  6G 1G20G11G14G23G25
 -28374056.90249 -22099663.17647  18639072.3944   18639070.6364
      3917.2344
 -13653772.39149 -10626660.44147  20105048.0664   20105045.9764
      5200.3124
 -22254023.36749 -17313070.55947  18804793.2144   18804789.8194
      2007.0614
  -2723634.18749  -2115370.90647  19882628.4874   19882626.6164
      -258.6494
  -1227542.10949   -943863.86747  21411746.6754   21411743.2304
      5277.0294
 -27465148.27049 -21367779.09848  18101921.8704   18101919.0814
      3097.0714
 04  9  2 16 38 59.9910000  0  6G 1G20G11G14G23G25
 -28432744.09849 -22145393.44947  18627904.8474   18627903.0694
      3912.4804
 -13731749.90249 -10687422.12947  20090209.4094   20090207.1674
      5198.5014
 -22283992.43049 -17336423.08247  18799090.2224   18799086.8554
      1997.9384
  -2719728.42249  -2112327.46947  19883371.8944   19883369.6984
      -260.3844
  -1306665.69949  -1005518.56647  21396690.3474   21396686.4054
      5274.9064
 -27511472.28549 -21403875.72348  18093106.2144   18093103.9444
      3088.2684
 04  9  2 16 39 14.9910000  0  6G 1G20G11G14G23G25
 -28491357.87549 -22191066.51647  18616750.5734   18616749.3044
      3907.5854
 -13809697.98449 -10748160.89147  20075376.3624   20075374.0194
      5196.5394
 -22313822.66449 -17359667.42247  18793413.8234   18793410.5934
      1988.6824
  -2715794.63349  -2109262.19147  19884120.8864   19884118.0034
      -262.2534
  -1385755.30949  -1067146.82047  21381639.5504   21381636.7884
      5272.6414
 -27557662.00449 -21439867.70748  18084316.9334   18084314.5344
      3079.3154
 04  9  2 16 39 29.9910000  0  6G 1G20G11G14G23G25
 -28549898.85249 -22236682.85248  18605610.7534   18605609.5344
      3902.7324
 -13887616.87949 -10808876.89547  20060549.2614   20060546.8394
      5194.5934
 -22343514.66449 -17382804.05147  18787763.4564   18787760.3584
      1979.4674
  -2711833.49249  -2106175.60247  19884874.1754   19884871.9414
      -264.0764
  -1464811.45349  -1128748.97347  21366596.3944   21366592.2654
      5270.4104
 -27603718.09849 -21475755.57048  18075552.3864   18075549.7374
      3070.4064
 04  9  2 16 39 44.9910000  0  6G 1G20G11G14G23G25
 -28608367.08249 -22282242.50447  18594484.7924   18594483.5664
      3897.8824
 -13965506.48449 -10869570.09047  20045726.9724   20045724.7304
      5192.6404
 -22373068.71149 -17405833.18047  18782139.6594   18782136.5504
      1970.2704
  -2707845.34449  -2103067.97747  19885633.1284   19885631.0584
      -265.8774
  -1543834.07849  -1190325.03147  21351558.3784   21351554.6914
      5268.1754
 -27649640.54749 -21511539.28948  18066813.7534   18066811.4644
      3061.4974
 04  9  2 16 39 59.9910000  0  6G 1G20G11G14G23G25
 -28666762.71949 -22327745.59048  18583372.2534   18583370.8434
      3893.0424
 -14043366.84049 -10930240.49247  20030910.8624   20030908.0544
      5190.6904
 -22402484.88349 -17428754.88347  18776541.6674   18776538.6554
      1961.0784
  -2703830.46149  -2099939.52047  19886397.5264   19886395.2104
      -267.6594
  -1622823.30549  -1251875.05547  21336527.1124   21336523.9524
      5265.9484
 -27695429.37949 -21547218.89848  18058100.3234   18058097.9994
      3052.5894
 04  9  2 16 40 14.9910000  0  6G 1G20G11G14G23G25
 -28725086.37949 -22373192.58248  18572273.8314   18572272.3314
      3888.2444
 -14121198.42649 -10990888.46947  20016099.7454   20016097.1834
      5188.7724
 -22431763.91449 -17451569.71947  18770970.2614   18770967.3124
      1951.9354
  -2699789.65649  -2096790.85547  19887166.0424   19887163.9804
      -269.3874
  -1701779.73849  -1313399.52047  21321503.6834   21321498.7334
      5263.7624
 -27741085.28149 -21582794.92248  18049412.2064   18049409.8784
      3043.7274
 04  9  2 16 40 29.9910000  0  6G 1G20G11G14G23G25
 -28783337.10249 -22418582.75048  18561189.2224   18561187.5934
      3883.3824
 -14198999.99249 -11051513.06647  20001295.1124   20001292.7104
      5186.7714
 -22460904.87149 -17474276.96147  18765424.8784   18765421.8314
      1942.7304
  -2695722.03149  -2093621.29347  19887940.1284   19887938.1204
      -271.1754
  -1780702.37149  -1374897.65247  21306484.1914   21306479.8864
      5261.5094
 -27786607.34449 -21618266.65248  18040749.6124   18040747.3474
      3034.8044
 04  9  2 16 40 44.9910000  0  6G 1G20G11G14G23G25
 -28841514.54349 -22463915.81248  18550118.0734   18550116.3904
      3878.4964
 -14276770.97749 -11112113.82047  19986494.8554   19986492.8584
      5184.7324
 -22489907.45349 -17496876.38347  18759905.8084   18759902.9334
      1933.5054
  -2691627.34449  -2090430.64147  19888719.1834   19888717.2304
      -272.9794
  -1859590.77049  -1436369.11747  21291471.4564   21291468.2764
      5259.2274
 -27831995.03549 -21653633.68448  18032113.0114   18032110.3354
      3025.8464
 04  9  2 16 40 59.9910000  0  6G 1G20G11G14G23G25
 -28899621.77349 -22509194.17648  18539060.5814   18539058.9094
      3873.8154
 -14354514.21149 -11172692.96147  19971701.6514   19971699.1124
      5182.8824
 -22518774.80149 -17519370.43047  18754412.5894   18754409.7064
      1924.4904
  -2687508.83649  -2087221.43747  19889502.9724   19889501.2494
      -274.5674
  -1938447.76649  -1497816.08647  21276465.9804   21276461.6484
      5257.1334
 -27877251.36749 -21688898.35548  18023500.8004   18023498.3624
      3017.0894
 04  9  2 16 41 14.9910000  0  6G 1G20G11G14G23G25
 -28957657.72349 -22554416.98048  18528016.8164   18528015.2804
      3869.0634
 -14432228.44949 -11233249.51647  19956912.8704   19956910.3274
      5180.9494
 -22547505.86749 -17541758.27747  18748945.3164   18748942.0974
      1915.4044
  -2683365.59049  -2083992.94947  19890291.1054   19890289.3164
      -276.2164
  -2017272.31649  -1559237.81247  21261465.7374   21261462.2224
      5254.9704
 -27922375.20349 -21724059.78148  18014913.9174   18014911.6834
      3008.2564
 04  9  2 16 41 29.9910000  0  6G 1G20G11G14G23G25
 -29015621.10549 -22599583.24648  18516986.8474   18516985.0384
      3864.2264
 -14509912.10549 -11293782.21547  19942130.0264   19942127.5894
      5178.9104
 -22576099.32449 -17564038.90247  18743504.2924   18743501.3084
      1906.2304
  -2679196.40649  -2080744.25447  19891084.5194   19891082.6324
      -277.9464
  -2096062.94949  -1620633.08647  21246471.9334   21246468.2764
      5252.7094
 -27967365.23849 -21759116.94948  18006352.5504   18006350.3984
      2999.3364
 04  9  2 16 41 44.9910000  0  6G 1G20G11G14G23G25
 -29073509.89549 -22644691.39548  18505971.2924   18505969.4174
      3859.2534
 -14587563.10249 -11354289.47747  19927354.0034   19927351.0114
      5176.7334
 -22604553.33649 -17586210.86347  18738089.4484   18738086.7494
      1896.9344
  -2674999.37149  -2077473.85247  19891883.6674   19891881.3234
      -279.8024
  -2174817.59049  -1682000.31647  21231485.9484   21231481.8744
      5250.3094
 -28012219.49249 -21794068.31648  17997817.0344   17997814.8004
      2990.2844
 04  9  2 16 41 59.9910000  0  6G 1G20G11G14G23G25
 -29131326.62149 -22689743.38348  18494969.0424   18494967.2064
      3854.4484
 -14665183.72349 -11414773.07847  19912583.0584   19912580.2764
      5174.7084
 -22632870.54349 -17608276.23047  18732701.0894   18732698.0694
      1887.8144
  -2670777.15649  -2074183.83647  19892687.1674   19892684.8234
      -281.4814
  -2253538.85549  -1743341.54747  21216505.9804   21216501.7614
      5248.0844
 -28056940.31649 -21828915.70748  17989307.1284   17989304.7104
      2981.3884
 04  9  2 16 42 14.9910000  0  6G 1G20G11G14G23G25
 -29189070.00049 -22734738.20748  18483980.8164   18483978.6554
      3849.5594
 -14742772.47749 -11475231.84047  19897818.4334   19897815.6754
      5172.5844
 -22661049.66849 -17630233.99647  18727338.8624   18727335.9414
      1878.6084
  -2666528.61749  -2070873.30147  19893495.7924   19893493.5234
      -283.2364
  -2332225.42249  -1804655.73847  21201532.2844   21201528.1944
      5245.7714
 -28101526.53949 -21863658.21548  17980822.6204   17980820.2694
      2972.4154
 04  9  2 16 42 29.9910000  0  6G 1G20G11G14G23G25
 -29246742.84849 -22779678.09048  18473005.8944   18473003.9604
      3844.8574
 -14820331.94949 -11535667.78547  19883059.1754   19883056.6324
      5170.6324
 -22689093.59049 -17652086.41047  18722001.7304   18721998.9684
      1869.5954
  -2662256.67649  -2067544.54347  19894308.3394   19894306.5344
      -284.7964
  -2410879.77349  -1865944.82847  21186564.6914   21186561.0894
      5243.6234
 -28145980.85949 -21898297.93748  17972363.1754   17972360.7734
      2963.6214
 04  9  2 16 42 44.9910000  0  6G 1G20G11G14G23G25
 -29304345.42649 -22824563.20748  18462044.2304   18462042.9254
      3840.1724
 -14897862.09849 -11596080.88747  19868305.3944   19868303.0114
      5168.6774
 -22717002.83249 -17673833.87947  18716691.2224   18716688.0894
      1860.6164
  -2657961.70749  -2064197.82847  19895126.1284   19895123.8234
      -286.3314
  -2489502.17249  -1927209.01647  21171603.7614   21171600.1124
      5241.4934
 -28190303.34449 -21932834.93748  17963928.7764   17963926.4764
      2954.8324
 04  9  2 16 42 59.9910000  0  6G 1G20G11G14G23G25
 -29361877.15249 -22869393.11748  18451096.4174   18451094.8314
      3835.4484
 -14975362.22749 -11656470.57847  19853557.6284   19853554.8784
      5166.6754
 -22744776.64849 -17695475.82447  18711405.9484   18711403.0584
      1851.5884
  -2653643.28549  -2060832.84847  19895947.9014   19895945.3004
      -287.8954
  -2568091.94549  -1988447.77047  21156647.6984   21156644.8554
      5239.3184
 -28234493.57849 -21967268.89148  17955520.0664   17955517.4484
      2946.0164
 04  9  2 16 43 14.9910000  0  6G 1G20G11G14G23G25
 -29419337.39149 -22914167.32848  18440162.2144   18440160.6404
      3830.6834
 -15052831.52749 -11716836.27347  19838816.0664   19838813.2264
      5164.6204
 -22772414.50049 -17717011.82447  18706146.6834   18706144.1244
      1842.5234
  -2649300.94549  -2057449.23047  19896773.7224   19896771.8584
      -289.4894
  -2646648.50449  -2049660.64547  21141699.6674   21141695.5584
      5237.1044
 -28278550.94149 -22001599.29748  17947135.9724   17947133.5624
      2937.1584
 04  9  2 16 43 29.9910000  0  6G 1G20G11G14G23G25
 -29476724.01249 -22958884.17248  18429242.1124   18429240.3664
      3825.7754
 -15130267.57449 -11777176.03147  19824080.1754   19824077.4484
      5162.4034
 -22799914.21149 -17738440.17647  18700913.6594   18700910.6404
      1833.3144
  -2644932.70349  -2054045.41847  19897604.9484   19897603.2454
      -291.2164
  -2725169.48849  -2110845.80547  21126757.0894   21126753.1634
      5234.7324
 -28322473.20749 -22035824.43748  17938777.8474   17938775.3554
      2928.1514
 04  9  2 16 43 44.9910000  0  6G 1G20G11G14G23G25
 -29534038.84849 -23003545.07848  18418334.9954   18418333.0384
      3820.9894
 -15207671.99649 -11837491.16847  19809350.5894   19809348.0424
      5160.2954
 -22827277.79749 -17759762.45747  18695706.4174   18695703.2414
      1824.2394
  -2640540.52049  -2050622.95747  19898441.1284   19898438.6754
      -292.8124
  -2803656.72349  -2172004.66847  21111821.4804   21111817.2764
      5232.4824
 -28366262.23849 -22069945.75848  17930444.9484   17930442.6754
      2919.2694
 04  9  2 16 43 59.9910000  0  6G 1G20G11G14G23G25
 -29591281.20349 -23048149.50448  18407442.6594   18407440.5194
      3816.1574
 -15285043.88749 -11897780.93747  19794627.0974   19794624.4764
      5158.1264
 -22854504.60949 -17780978.15647  18690525.3704   18690522.4954
      1815.1214
  -2636123.75449  -2047181.34047  19899281.2614   19899279.4094
      -294.4514
  -2882109.47349  -2233136.67646  21096892.6674   21096887.8584
      5230.1834
 -28409917.17649 -22103962.59048  17922137.7304   17922135.2534
      2910.3294
 04  9  2 16 44 14.9910000  0  6G 1G20G11G14G23G25
 -29648451.67249 -23092697.91848  18396562.9804   18396561.3624
      3811.3654
 -15362383.64549 -11958045.68447  19779910.0424   19779907.6404
      5155.9844
 -22881595.33249 -17802087.82447  18685370.4724   18685367.4994
      1806.0484
  -2631683.10549  -2043721.11747  19900126.8864   19900124.7734
      -296.0434
  -2960528.20349  -2294242.15647  21081970.4484   21081965.2454
      5227.9154
 -28453438.61749 -22137875.39548  17913855.9804   17913853.4684
      2901.4294
 04  9  2 16 44 29.9910000  0  6G 1G20G11G14G23G25
 -29705552.52049 -23137192.08248  18385697.3944   18385695.2374
      3806.7234
 -15439693.25049 -12018286.92247  19765198.8004   19765196.1204
      5153.9744
 -22908552.29749 -17823093.26247  18680240.5034   18680237.2534
      1797.1314
  -2627220.99249  -2040244.16447  19900976.0034   19900973.4724
      -297.4744
  -3038915.02749  -2355322.77747  21067052.8944   21067049.5894
      5225.7884
 -28496828.82849 -22171685.95748  17905599.2694   17905596.4094
      2892.6814
 04  9  2 16 44 44.9910000  0  6G 1G20G11G14G23G25
 -29762580.34449 -23181629.34048  18374845.1444   18374843.2534
      3801.8554
 -15516969.13349 -12078501.89547  19750493.5584   19750490.8434
      5151.7264
 -22935372.16849 -17843991.86347  18675136.9174   18675134.2494
      1787.9914
  -2622734.17249  -2036747.95747  19901829.2144   19901827.6514
      -299.1214
  -3117266.51249  -2416375.85547  21052143.4254   21052139.6754
      5223.4324
 -28540084.39149 -22205391.58248  17897368.0114   17897365.3474
      2883.7044
 04  9  2 16 44 59.9910000  0  6G 1G20G11G14G23G25
 -29819535.55549 -23226010.02348  18364007.0584   18364005.2884
      3797.0144
 -15594211.47349 -12138690.71147  19735794.9334   19735791.8514
      5149.4894
 -22962055.44149 -17864784.03947  18670059.3784   18670056.3584
      1778.8854
  -2618223.13749  -2033232.88747  19902687.8234   19902685.8234
      -300.7364
  -3195582.97349  -2477401.65647  21037241.0894   21037236.5504
      5221.0974
 -28583205.60949 -22238992.53148  17889162.1514   17889159.7804
      2874.7484
 04  9  2 16 45 14.9910000  0  6G 1G20G11G14G23G25
 -29876420.12549 -23270335.65648  18353182.2374   18353180.4484
      3792.3054
 -15671422.14149 -12198854.86347  19721101.5894   19721099.4604
      5147.3784
 -22988604.36749 -17885471.52047  18665006.9564   18665004.1914
      1769.9284
  -2613689.97749  -2029700.57847  19903550.6754   19903548.7224
      -302.2114
  -3273866.39849  -2538401.69947  21022344.1364   21022339.7804
      5218.8954
 -28626194.44149 -22272490.32448  17880981.4954   17880979.1164
      2865.9224
 04  9  2 16 45 29.9910000  0  6G 1G20G11G14G23G25
 -29933232.78549 -23314605.25848  18342370.9254   18342369.4374
      3787.5114
 -15748599.51649 -12258993.06647  19706415.1594   19706413.2184
      5145.1584
 -23015017.55549 -17906053.23847  18659980.7064   18659977.7334
      1760.8794
  -2609133.64549  -2026150.19547  19904417.4804   19904415.1244
      -303.7554
  -3352115.52349  -2599375.02747  21007454.1444   21007449.7374
      5216.6084
 -28669049.65249 -22305883.99248  17872826.8474   17872824.1674
      2857.0144
 04  9  2 16 45 44.9910000  0  6G 1G20G11G14G23G25
 -29989974.13749 -23358819.29748  18331573.5974   18331571.9334
      3782.7574
 -15825743.92649 -12319105.58247  19691735.5664   19691733.1124
      5142.9614
 -23041295.66049 -17926529.69147  18654980.4094   18654977.2654
      1751.8744
  -2604554.74649  -2022582.25047  19905288.9724   19905286.8394
      -305.2604
  -3430330.74249  -2660321.92247  20992569.1054   20992565.4094
      5214.3484
 -28711771.74249 -22339173.93048  17864696.5424   17864694.3354
      2848.1394
 04  9  2 16 45 59.9910000  0  6G 1G20G11G14G23G25
 -30046641.89149 -23402975.98448  18320790.3004   18320788.1944
      3777.8504
 -15902852.95349 -12379190.53147  19677061.9014   19677059.7534
      5140.6024
 -23067436.43449 -17946899.14147  18650005.8084   18650003.0264
      1742.7184
  -2599951.09049  -2018995.00847  19906165.0894   19906162.9014
      -306.9104
  -3508509.62549  -2721240.52047  20977692.1914   20977688.5584
      5211.9264
 -28754358.45749 -22372358.38348  17856592.8004   17856590.4604
      2839.1144
 04  9  2 16 46 14.9910000  0  6G 1G20G11G14G23G25
 -30103239.73049 -23447078.19548  18310019.8394   18310018.0894
      3773.1894
 -15979929.99249 -12439250.55147  19662394.7224   19662392.3434
      5138.4694
 -23093443.69949 -17967164.54747  18645056.8784   18645054.2334
      1733.8184
  -2595326.40249  -2015391.38347  19907045.3704   19907042.7024
      -308.3124
  -3586655.71149  -2782133.55547  20962820.7694   20962817.6594
      5209.7394
 -28796813.32049 -22405440.09048  17848513.7844   17848511.4524
      2830.3244
 04  9  2 16 46 29.9910000  0  6G 1G20G11G14G23G25
 -30159765.01649 -23491123.87148  18299263.5424   18299261.5344
      3768.3524
 -16056972.21149 -12499283.44147  19647734.1594   19647731.3944
      5136.1484
 -23119314.85249 -17987323.90647  18640133.7224   18640130.9094
      1724.7434
  -2590678.27349  -2011769.46947  19907929.9334   19907927.2964
      -309.8754
  -3664766.34049  -2842998.97347  20947958.3084   20947953.6834
      5207.3754
 -28839133.78149 -22438417.07048  17840460.5504   17840458.1984
      2821.3644
 04  9  2 16 46 44.9910000  0  6G 1G20G11G14G23G25
 -30216217.80549 -23535113.05948  18288520.7844   18288519.1634
      3763.5194
 -16133979.44949 -12559289.06647  19633080.0424   19633077.6834
      5133.8164
 -23145050.18749 -18007377.41847  18635236.5584   18635233.5664
      1715.6894
  -2586006.89549  -2008129.45747  19908818.6284   19908816.0974
      -311.4254
  -3742841.57049  -2903836.79747  20933100.1914   20933096.5234
      5205.0154
 -28881319.95349 -22471289.40648  17832432.9874   17832430.4644
      2812.4114
 04  9  2 16 46 59.9910000  0  6G 1G20G11G14G23G25
 -30272601.19149 -23579048.16048  18277791.3864   18277789.3944
      3758.8924
 -16210954.52049 -12619269.64147  19618432.1914   19618429.7304
      5131.6714
 -23170652.67249 -18027327.42247  18630364.4874   18630361.5854
      1706.8324
  -2581315.36749  -2004473.74247  19909711.6594   19909709.0544
      -312.7684
  -3820884.31649  -2964649.31647  20918249.8084   20918245.5234
      5202.8504
 -28923374.78949 -22504059.41448  17824430.1914   17824427.6944
      2803.6564
 04  9  2 16 47 14.9900000  0  6G 1G20G11G14G23G25
 -30328910.76649 -23622925.74648  18267076.0064   18267074.2174
      3753.9724
 -16287891.47749 -12679220.50847  19603791.5764   19603789.1904
      5129.1304
 -23196120.05149 -18047172.13747  18625518.2874   18625515.4244
      1697.8254
  -2576603.57449  -2000802.23047  19910608.3344   19910605.5104
      -314.1204
  -3898888.67649  -3025431.92247  20903406.0764   20903401.5844
      5200.2914
 -28965294.80149 -22536724.34848  17816452.7174   17816450.5414
      2794.6674
 04  9  2 16 47 29.9900000  0  6G 1G20G11G14G23G25
 -30385152.19949 -23666750.23848  18256373.5454   18256371.9474
      3749.4294
 -16364798.39149 -12739147.96547  19589156.4904   19589154.2754
      5127.1284
 -23221453.99649 -18066912.89147  18620697.2874   18620694.5454
      1688.9304
  -2571869.02349  -1997112.99247  19911509.5684   19911506.5454
      -315.6374
  -3976863.13349  -3086191.22347  20888568.1394   20888563.9794
      5198.2974
 -29007083.77349 -22569287.18448  17808500.6704   17808498.5454
      2785.9324
 04  9  2 16 47 44.9900000  0  6G 1G20G11G14G23G25
 -30441321.78949 -23710518.74248  18245685.1234   18245683.0684
      3744.6394
 -16441669.97349 -12799047.88747  19574528.2874   19574526.1474
      5124.7724
 -23246652.95349 -18086548.45347  18615902.1234   18615899.5614
      1679.9304
  -2567112.23449  -1993406.42647  19912414.1934   19912411.8574
      -317.1194
  -4054802.40249  -3146923.10947  20873736.2174   20873732.0454
      5195.9514
 -29048738.89849 -22601745.71948  17800573.9284   17800571.5684
      2777.0084
 04  9  2 16 47 59.9900000  0  6G 1G20G11G14G23G25
 -30497420.21549 -23754231.80548  18235009.8734   18235007.4594
      3739.8954
 -16518506.82849 -12858920.74247  19559906.7014   19559904.5414
      5122.4574
 -23271717.82849 -18106079.53147  18611132.7014   18611129.5764
      1670.9924
  -2562334.07449  -1989683.19547  19913323.7094   19913320.7644
      -318.5444
  -4132707.19149  -3207628.12147  20858911.3654   20858907.8504
      5193.6534
 -29090260.93049 -22634100.54748  17792672.6394   17792670.2794
      2768.1354
 04  9  2 16 48 14.9900000  0  6G 1G20G11G14G23G25
 -30553447.09049 -23797889.10548  18224348.2324   18224346.4364
      3735.1254
 -16595308.27349 -12918766.02047  19545291.9284   19545289.6744
      5120.0964
 -23296648.22749 -18125505.82847  18606388.4824   18606385.5654
      1662.0274
  -2557534.26249  -1985943.10247  19914236.6784   19914234.3154
      -319.9874
  -4210576.97349  -3268305.86347  20844093.1314   20844089.7444
      5191.3194
 -29131649.44949 -22666351.34048  17784796.6074   17784794.2054
      2759.2354
 04  9  2 16 48 29.9900000  0  6G 1G20G11G14G23G25
 -30609400.14149 -23841488.88348  18213700.8034   18213698.8224
      3730.2034
 -16672071.78949 -12978581.72747  19530684.3974   19530681.9324
      5117.5684
 -23321441.89849 -18144825.58247  18601670.5454   18601667.3774
      1652.9114
  -2552710.57049  -1982184.40247  19915154.8574   19915152.5494
      -321.5794
  -4288409.35949  -3328954.46547  20829282.6544   20829278.8654
      5188.8264
 -29172902.14549 -22698496.30148  17776946.4824   17776944.3544
      2750.1804
 04  9  2 16 48 44.9900000  0  6G 1G20G11G14G23G25
 -30665280.78149 -23885032.23448  18203067.0144   18203064.9404
      3725.3764
 -16748798.58649 -13038368.84047  19516084.0064   19516081.2014
      5115.1204
 -23346100.37149 -18164039.98847  18596978.0684   18596974.8774
      1643.8984
  -2547864.50049  -1978408.25847  19916076.9044   19916074.4824
      -323.0714
  -4366205.73849  -3389575.01247  20814478.1704   20814474.5224
      5186.4254
 -29214020.30549 -22730536.42248  17769122.1154   17769119.8464
      2741.2114
 04  9  2 16 48 59.9900000  0  6G 1G20G11G14G23G25
 -30721087.91849 -23928518.31648  18192447.2724   18192445.3894
      3720.4764
 -16825487.36749 -13098126.32047  19501490.4284   19501488.4594
      5112.5854
 -23370622.69549 -18183148.30147  18592311.4984   18592308.3504
      1634.8224
  -2542995.21949  -1974614.03547  19917003.7484   19917001.6864
      -324.6194
  -4443964.93749  -3450166.58647  20799680.9904   20799677.4634
      5183.9474
 -29255002.87949 -22762470.89548  17761323.3114   17761320.6544
      2732.1724
 04  9  2 16 49 14.9900000  0  6G 1G20G11G14G23G25
 -30776824.00049 -23971949.03148  18181841.0374   18181839.0844
      3715.7394
 -16902140.32049 -13157855.89547  19486903.7404   19486901.7564
      5110.1974
 -23395011.39149 -18202152.49247  18587670.4594   18587667.6194
      1625.9134
  -2538105.19149  -1970803.64547  19917934.2954   19917931.9124
      -326.0024
  -4521689.39549  -3510731.08247  20784890.3034   20784887.2954
      5181.6304
 -29295852.34849 -22794301.64548  17753549.9204   17753547.7174
      2723.2984
 04  9  2 16 49 29.9900000  0  6G 1G20G11G14G23G25
 -30832487.66049 -24015323.30548  18171248.5614   18171246.7754
      3710.9114
 -16978755.70349 -13217556.19147  19472324.2794   19472321.7404
      5107.6924
 -23419265.19149 -18221051.57447  18583055.0294   18583052.4244
      1616.9204
  -2533193.16449  -1966976.11347  19918868.9594   19918866.5654
      -327.4684
  -4599377.48849  -3571267.25447  20770107.0454   20770103.0024
      5179.2064
 -29336567.36349 -22826027.63348  17745802.2404   17745799.4594
      2714.3344
 04  9  2 16 49 44.9900000  0  6G 1G20G11G14G23G25
 -30888079.87149 -24058641.91048  18160669.9514   18160667.7524
      3706.1474
 -17055334.32449 -13277227.82847  19457751.8424   19457749.6234
      5105.2414
 -23443385.17249 -18239846.37147  18578465.4594   18578462.4474
      1607.9994
  -2528260.14849  -1963132.21947  19919808.1394   19919805.2444
      -328.8684
  -4677030.07849  -3631775.75047  20755329.7794   20755326.2684
      5176.8394
 -29377148.73449 -22857649.48848  17738079.6784   17738077.2094
      2705.4254
 04  9  2 16 49 59.9900000  0  6G 1G20G11G14G23G25
 -30943600.24249 -24101904.53548  18150104.7484   18150102.8304
      3701.3584
 -17131875.67249 -13336870.43747  19443186.1784   19443184.4984
      5102.7574
 -23467371.07449 -18258536.69547  18573901.2644   18573898.2364
      1599.0604
  -2523305.92249  -1959271.81247  19920750.2404   19920747.9864
      -330.2824
  -4754646.81249  -3692256.30947  20740560.8894   20740556.4044
      5174.4494
 -29417596.26249 -22889167.03948  17730382.9284   17730380.4554
      2696.5024
 04  9  2 16 50 14.9900000  0  6G 1G20G11G14G23G25
 -30999048.99249 -24145111.35548  18139553.0844   18139551.6194
      3696.5834
 -17208379.67649 -13396483.93747  19428628.6544   19428626.1974
      5100.2674
 -23491223.10249 -18277122.70347  18569362.0374   18569359.0614
      1590.1354
  -2518330.79349  -1955395.10247  19921697.4364   19921694.8774
      -331.6754
  -4832227.76249  -3752708.98847  20725796.8894   20725793.2324
      5172.0634
 -29457910.05549 -22920580.37948  17722711.1004   17722708.9984
      2687.5864
 04  9  2 16 50 29.9900000  0  6G 1G20G11G14G23G25
 -31054428.33649 -24188264.09048  18129014.6474   18129012.7994
      3691.9564
 -17284848.32849 -13456069.89847  19414076.8114   19414074.1314
      5097.9104
 -23514943.77749 -18295606.35247  18564847.9904   18564845.2484
      1581.3784
  -2513337.09849  -1951503.94547  19922647.2254   19922645.6234
      -332.9134
  -4909775.22349  -3813135.56647  20711039.5374   20711036.5924
      5169.8314
 -29498092.53149 -22951891.40648  17715065.0454   17715062.5454
      2678.8324
 04  9  2 16 50 44.9900000  0  6G 1G20G11G14G23G25
 -31109736.28549 -24231361.18748  18118490.0294   18118487.9824
      3687.1974
 -17361279.32849 -13515626.51247  19399532.7014   19399530.8544
      5095.4004
 -23538530.97749 -18313986.00447  18560359.9364   18560356.8814
      1572.4804
  -2508322.98449  -1947596.87147  19923602.0144   19923599.6784
      -334.2744
  -4987287.05549  -3873534.38347  20696289.6784   20696286.6234
      5167.4554
 -29538141.51649 -22983098.40248  17707444.0764   17707441.5104
      2669.9324
 04  9  2 16 50 59.9900000  0  6G 1G20G11G14G23G25
 -31164972.18449 -24274402.14848  18107978.8264   18107977.1274
      3682.3934
 -17437671.81649 -13575153.11747  19384995.6074   19384993.1824
      5092.8334
 -23561984.26249 -18332261.30547  18555896.8424   18555893.8734
      1563.5524
  -2503287.84449  -1943673.39847  19924559.8344   19924557.7364
      -335.6764
  -5064762.41049  -3933904.76647  20681547.0454   20681542.9404
      5165.0244
 -29578056.46149 -23014200.96548  17699848.2254   17699845.8074
      2660.9964
 04  9  2 16 51 14.9900000  0  6G 1G20G11G14G23G25
 -31220136.09049 -24317387.00448  18097481.4284   18097479.7954
      3677.5944
 -17514025.67649 -13634649.62547  19370466.1784   19370463.1544
      5090.2574
 -23585303.75449 -18350432.34847  18551459.0064   18551456.2724
      1554.6334
  -2498231.87949  -1939733.70747  19925521.9204   19925519.4864
      -337.0644
  -5142201.28949  -3994246.73447  20666811.6234   20666806.9044
      5162.5924
 -29617837.36749 -23045199.07448  17692278.2874   17692275.8224
      2652.0604
 04  9  2 16 51 29.9900000  0  6G 1G20G11G14G23G25
 -31275230.50049 -24360317.71548  18086997.5534   18086995.5654
      3672.9614
 -17590343.14149 -13694117.77747  19355943.2644   19355940.7604
      5087.8314
 -23608491.95749 -18368501.09047  18547046.7564   18547044.0964
      1545.8804
  -2493157.71149  -1935779.82847  19926487.4284   19926485.1974
      -338.2784
  -5219606.32449  -4054562.33247  20652081.4984   20652076.9594
      5160.3364
 -29657486.69549 -23076094.64848  17684733.1004   17684730.6664
      2643.2894
 04  9  2 16 51 44.9900000  0  6G 1G20G11G14G23G25
 -31330255.14149 -24403194.06248  18076526.8894   18076525.0374
      3668.3094
 -17666623.60249 -13753557.09047  19341427.6004   19341425.0454
      5085.3644
 -23631548.83649 -18386467.50047  18542658.8894   18542656.0574
      1537.1254
  -2488065.03149  -1931811.52047  19927456.7324   19927454.5804
      -339.5124
  -5296976.97349  -4114851.12147  20637358.5224   20637354.4004
      5158.0434
 -29697004.20749 -23106887.52048  17677213.1624   17677210.7754
      2634.5014
 04  9  2 16 51 59.9900000  0  6G 1G20G11G14G23G25
 -31385207.46949 -24446014.05148  18066069.3574   18066067.7644
      3663.4894
 -17742864.41449 -13812965.51247  19326919.5144   19326916.9864
      5082.7214
 -23654472.04349 -18404329.74647  18538297.2644   18538294.0414
      1528.2144
  -2482951.48849  -1927826.96147  19928429.3264   19928427.3264
      -340.9034
  -5374310.63749  -4175111.10547  20622641.9204   20622637.8264
      5155.5784
 -29736387.39849 -23137575.72348  17669718.8894   17669716.8114
      2625.5464
 04  9  2 16 52 14.9900000  0  6G 1G20G11G14G23G25
 -31440090.31249 -24488779.89548  18055625.6544   18055624.2294
      3658.8564
 -17819068.10549 -13872345.00047  19312418.5534   19312415.7914
      5080.2464
 -23677264.35549 -18422090.00047  18533959.5924   18533956.7914
      1519.4884
  -2477820.07049  -1923828.48047  19929405.8974   19929404.4794
      -342.0954
  -5451610.03149  -4235344.39547  20607932.1474   20607928.2874
      5153.2934
 -29775638.96949 -23168161.36348  17662249.7724   17662247.1784
      2616.7714
 04  9  2 16 52 29.9900000  0  6G 1G20G11G14G23G25
 -31494903.73049 -24531491.64848  18045195.0064   18045193.0654
      3654.2284
 -17895234.59049 -13931695.51247  19297924.1624   19297921.8344
      5077.7664
 -23699925.97349 -18439748.41847  18529647.3734   18529644.7294
      1510.7744
  -2472670.96149  -1919816.20347  19930386.2174   19930384.3464
      -343.2744
  -5528875.18749  -4295550.98847  20593228.9514   20593224.9124
      5151.0104
 -29814759.05549 -23198644.54748  17654805.2794   17654802.8224
      2608.0064
 04  9  2 16 52 44.9900000  0  6G 1G20G11G14G23G25
 -31549646.30549 -24574148.20348  18034777.9364   18034776.2254
      3649.5054
 -17971362.09849 -13991015.63347  19283437.3974   19283435.3774
      5075.1674
 -23722455.72349 -18457304.07447  18525360.3034   18525357.0294
      1501.9834
  -2467502.84849  -1915789.13347  19931369.9824   19931367.7954
      -344.5414
  -5606104.55549  -4355729.70347  20578533.5064   20578529.0724
      5148.6244
 -29853746.23449 -23229024.16848  17647386.4434   17647383.7994
      2599.1454
 04  9  2 16 52 59.9900000  0  6G 1G20G11G14G23G25
 -31604317.94549 -24616749.48448  18024374.1474   18024372.4714
      3644.7764
 -18047450.35249 -14050305.17647  19268958.3574   19268956.4324
      5072.5504
 -23744853.44149 -18474756.85947  18521097.9674   18521095.2644
      1493.1814
  -2462315.53549  -1911747.09047  19932356.7874   19932354.7094
      -345.8214
  -5683298.02349  -4415880.44147  20563843.0764   20563839.9324
      5146.2314
 -29892600.45749 -23259300.19148  17639992.4124   17639989.7134
      2590.2824
 04  9  2 16 53 14.9900000  0  6G 1G20G11G14G23G25
 -31658920.41449 -24659296.86748  18013983.7484   18013981.6974
      3640.1654
 -18123500.85949 -14109565.30947  19254486.4984   19254484.3344
      5070.0344
 -23767121.08249 -18492108.27747  18516860.8574   18516857.7994
      1484.5094
  -2457111.00049  -1907691.62947  19933347.2874   19933345.3934
      -346.9694
  -5760457.19549  -4476004.44947  20549160.5224   20549156.6704
      5143.9454
 -29931323.44549 -23289473.94548  17632623.7324   17632621.4164
      2581.5334
 04  9  2 16 53 29.9900000  0  6G 1G20G11G14G23G25
 -31713453.39849 -24701790.09448  18003606.2254   18003604.6824
      3635.5324
 -18199513.00449 -14168795.54347  19240022.1314   19240019.7914
      5067.4764
 -23789258.37549 -18509358.13347  18512648.2174   18512645.1824
      1475.8204
  -2451888.95349  -1903622.51647  19934340.9364   19934338.9864
      -348.1364
  -5837581.75049  -4536101.49247  20534484.5064   20534480.7014
      5141.6374
 -29969914.87549 -23319545.18748  17625280.1704   17625277.5574
      2572.7624
 04  9  2 16 53 44.9900000  0  6G 1G20G11G14G23G25
 -31767913.88349 -24744226.83248  17993242.6004   17993241.0294
      3630.6994
 -18275483.52349 -14227993.34447  19225565.3264   19225563.1234
      5064.7014
 -23811262.43749 -18526504.16847  18508460.5844   18508458.1544
      1466.9384
  -2446646.48449  -1899537.50447  19935338.3814   19935336.5334
      -349.4984
  -5914668.54749  -4596169.10247  20519815.7174   20519811.1664
      5139.1204
 -30008371.74249 -23349511.58648  17617962.2014   17617959.5884
      2563.7914
 04  9  2 16 53 59.9900000  0  6G 1G20G11G14G23G25
 -31822303.36749 -24786608.25048  17982892.9044   17982891.3114
      3625.9664
 -18351413.67249 -14287159.68447  19211116.6234   19211114.1624
      5062.0104
 -23833134.91449 -18543547.66447  18504298.6474   18504295.8894
      1458.1654
  -2441385.24249  -1895437.84847  19936339.4984   19936337.8114
      -350.7494
  -5991718.95749  -4656208.37147  20505153.5844   20505149.1044
      5136.6944
 -30046695.52049 -23379374.26648  17610669.3344   17610666.9714
      2554.9184
 04  9  2 16 54 14.9900000  0  6G 1G20G11G14G23G25
 -31876621.81249 -24828934.30948  17972556.3814   17972554.8034
      3621.2304
 -18427303.19549 -14346294.37147  19196674.7564   19196672.3034
      5059.3024
 -23854875.75049 -18560488.59047  18500161.4434   18500158.5104
      1449.3894
  -2436105.27349  -1891323.60247  19937344.2254   19937342.1904
      -351.9984
  -6068732.83249  -4716219.15647  20490497.8114   20490493.9164
      5134.2584
 -30084886.23049 -23409133.25848  17603401.7954   17603399.4904
      2546.0474
 04  9  2 16 54 29.9900000  0  6G 1G20G11G14G23G25
 -31930871.12949 -24871206.50848  17962233.1934   17962231.3114
      3616.6214
 -18503153.72749 -14405398.67647  19182241.1004   19182238.7324
      5056.7024
 -23876487.14549 -18577328.65647  18496049.0924   18496046.3224
      1440.7604
  -2430808.66449  -1887196.39147  19938351.9514   19938350.3384
      -353.1074
  -6145712.08249  -4776202.96947  20475849.1474   20475845.3224
      5131.9504
 -30122945.84849 -23438790.10248  17596159.2094   17596156.8974
      2537.3084
 04  9  2 16 54 44.9900000  0  6G 1G20G11G14G23G25
 -31985051.20349 -24913424.73048  17951922.9514   17951921.4404
      3612.0054
 -18578964.98049 -14464472.37947  19167814.4984   19167812.4944
      5054.0844
 -23897969.15649 -18594067.89847  18491961.2484   18491958.4904
      1432.1344
  -2425495.24649  -1883056.09047  19939363.2404   19939361.1354
      -354.2284
  -6222656.53549  -4836159.66447  20461207.2094   20461203.5254
      5129.6304
 -30160874.19949 -23468344.66048  17588941.8344   17588939.3264
      2528.5574
 04  9  2 16 54 59.9900000  0  6G 1G20G11G14G23G25
 -32039159.92649 -24955587.37948  17941626.2014   17941624.7444
      3607.2484
 -18654734.52049 -14523513.57047  19153396.2174   19153393.7324
      5051.3034
 -23919319.65649 -18610704.66047  18487897.9824   18487895.0654
      1423.3674
  -2420163.13349  -1878901.21147  19940378.3654   19940375.7914
      -355.4744
  -6299564.00849  -4896087.55147  20446571.8734   20446568.4324
      5127.1654
 -30198669.17249 -23497795.28948  17581749.5064   17581747.1704
      2519.6654
 04  9  2 16 55 14.9900000  0  6G 1G20G11G14G23G25
 -32093198.20749 -24997695.13348  17931343.3974   17931341.3344
      3602.5524
 -18730463.10549 -14582522.84047  19138985.6314   19138982.9474
      5048.5724
 -23940539.68449 -18627239.76247  18483860.3504   18483857.5764
      1414.6684
  -2414813.24649  -1874732.49247  19941396.0224   19941394.1154
      -356.6594
  -6376435.25049  -4955987.20347  20431944.1864   20431940.2954
      5124.7494
 -30236331.67249 -23527142.69148  17574582.6704   17574580.2604
      2510.8334
 04  9  2 16 55 29.9900000  0  6G 1G20G11G14G23G25
 -32147164.09049 -25039746.46148  17921073.8574   17921072.2484
      3597.7264
 -18806148.43049 -14641498.41447  19124583.1784   19124580.7874
      5045.6884
 -23961627.37549 -18643671.73847  18479847.1474   18479844.8384
      1405.8464
  -2409443.71149  -1870548.46147  19942418.3114   19942415.6234
      -357.9694
  -6453268.21149  -5015857.01647  20417323.8344   20417319.1394
      5122.1974
 -30273859.76249 -23556385.35248  17567441.5374   17567438.9864
      2501.8734
 04  9  2 16 55 44.9900000  0  6G 1G20G11G14G23G25
 -32201056.54749 -25081740.57848  17910818.5614   17910816.5614
      3592.8304
 -18881789.24649 -14700439.30547  19110189.2404   19110187.0494
      5042.7214
 -23982581.92249 -18659999.97347  18475859.9364   18475856.8614
      1396.9704
  -2404053.64849  -1866348.43047  19943443.6234   19943441.5064
      -359.3374
  -6530061.85949  -5075696.20347  20402709.5144   20402705.8154
      5119.5774
 -30311252.44549 -23585522.50848  17560325.7324   17560323.5064
      2492.8464
 04  9  2 16 55 59.9900000  0  6G 1G20G11G14G23G25
 -32254878.74249 -25123679.95348  17900576.5684   17900574.8934
      3588.1464
 -18957388.46549 -14759347.77747  19095802.9754   19095800.7444
      5039.9484
 -24003406.51649 -18676226.94147  18471896.9514   18471894.0224
      1388.3064
  -2398646.22749  -1862134.86747  19944472.8344   19944470.3154
      -360.4954
  -6606819.21149  -5135507.10547  20388103.5374   20388099.2994
      5117.1574
 -30348513.05549 -23614556.74648  17553235.4124   17553232.6354
      2484.0414
 04  9  2 16 56 14.9900000  0  6G 1G20G11G14G23G25
 -32308632.07449 -25165565.66848  17890347.5454   17890345.6824
      3583.5554
 -19032947.19549 -14818224.69947  19081424.4434   19081422.2684
      5037.2494
 -24024102.78549 -18692353.92247  18467958.6314   18467955.8854
      1379.7514
  -2393223.02349  -1857909.02347  19945504.8734   19945502.9514
      -361.5474
  -6683541.69149  -5195290.84847  20373503.2564   20373499.5724
      5114.8324
 -30385643.02349 -23643489.18748  17546169.7794   17546167.2294
      2475.3314
 04  9  2 16 56 29.9900000  0  6G 1G20G11G14G23G25
 -32362315.96149 -25207397.25848  17880131.7324   17880130.3544
      3578.9264
 -19108464.70349 -14877069.49647  19067054.1314   19067052.0144
      5034.5014
 -24044670.18049 -18708380.48047  18464044.8344   18464042.1314
      1371.1604
  -2387783.44149  -1853670.39847  19946539.5924   19946537.4794
      -362.6394
  -6760228.50449  -5255046.78947  20358910.4594   20358906.5224
      5112.4544
 -30422641.62149 -23672319.26648  17539129.3974   17539126.3974
      2466.5734
 04  9  2 16 56 44.9900000  0  6G 1G20G11G14G23G25
 -32415928.93049 -25249173.59048  17869929.5064   17869927.7914
      3574.1984
 -19183939.20749 -14935880.78547  19052691.7094   19052689.6784
      5031.6344
 -24065107.41049 -18724305.60547  18460155.5844   18460153.0924
      1362.4824
  -2382326.16449  -1849418.00447  19947578.7174   19947576.4244
      -363.8184
  -6836878.06649  -5314773.69947  20344324.5534   20344320.3544
      5109.9714
 -30459507.36349 -23701045.80948  17532113.7564   17532111.4404
      2457.7164
 04  9  2 16 56 59.9900000  0  6G 1G20G11G14G23G25
 -32469471.26649 -25290894.89148  17859740.9434   17859739.2054
      3569.4894
 -19259370.67649 -14994658.54747  19038337.5534   19038335.3424
      5028.7654
 -24085414.78949 -18740129.55547  18456291.3894   18456288.5294
      1353.8254
  -2376851.56249  -1845152.09447  19948619.9594   19948618.4634
      -364.9734
  -6913490.62549  -5374471.78547  20329745.7954   20329741.7404
      5107.5044
 -30496240.53549 -23729669.05948  17525123.5534   17525121.2954
      2448.8784
 04  9  2 16 57 14.9900000  0  6G 1G20G11G14G23G25
 -32522944.32049 -25332562.19948  17849565.1314   17849563.3154
      3564.8704
 -19334760.34849 -15053403.73047  19023991.4434   19023988.8934
      5025.9784
 -24105593.89549 -18755853.54747  18452451.6004   18452449.2254
      1345.2744
  -2371361.09449  -1840873.83247  19949664.8894   19949663.4824
      -366.0314
  -6990067.43449  -5434142.00447  20315173.4364   20315169.6004
      5105.1214
 -30532842.57849 -23758190.13348  17518158.5374   17518155.8934
      2440.1364
 04  9  2 16 57 29.9900000  0  6G 1G20G11G14G23G25
 -32576348.53549 -25374175.86748  17839402.7724   17839401.0764
      3560.2814
 -19410108.26649 -15112116.38747  19009653.4284   19009650.8774
      5023.1954
 -24125645.04349 -18771477.83247  18448635.7174   18448633.2564
      1336.7434
  -2365855.19949  -1836583.54747  19950712.3894   19950710.1664
      -367.0604
  -7066608.89849  -5493784.66847  20300608.0534   20300604.2054
      5102.7644
 -30569314.03549 -23786609.44148  17511218.2174   17511215.5764
      2431.4304
 04  9  2 16 57 44.9900000  0  6G 1G20G11G14G23G25
 -32629683.28149 -25415735.40248  17829253.5064   17829251.5614
      3555.6504
 -19485413.58649 -15170795.85247  18995323.1074   18995321.0024
      5020.3554
 -24145568.10949 -18787002.31247  18444844.5294   18444841.7174
      1328.2044
  -2360333.37949  -1832280.85547  19951763.6934   19951761.5884
      -368.1214
  -7143114.38749  -5553399.32047  20286049.2404   20286045.1584
      5100.3664
 -30605654.27749 -23814926.52048  17504302.7644   17504300.5294
      2422.6834
 04  9  2 16 57 59.9900000  0  6G 1G20G11G14G23G25
 -32682948.62949 -25457240.85948  17819117.4044   17819116.0924
      3551.0234
 -19560676.15649 -15229442.00847  18981000.9594   18980998.5064
      5017.5054
 -24165363.20749 -18802427.07847  18441077.7564   18441075.0724
      1319.6734
  -2354795.75049  -1827965.83647  19952817.3034   19952815.4474
      -369.1754
  -7219583.76249  -5612985.83247  20271498.0924   20271493.8894
      5097.9584
 -30641863.23449 -23843141.28148  17497412.6704   17497409.8614
      2413.9304
 04  9  2 16 58 14.9900000  0  6G 1G20G11G14G23G25
 -32736143.48049 -25498691.39148  17808994.8814   17808993.5454
      3546.3234
 -19635894.59049 -15288053.76247  18966687.5064   18966685.4044
      5014.5624
 -24185029.31649 -18817751.33647  18437335.7404   18437332.9284
      1311.0744
  -2349241.43049  -1823637.81247  19953874.0064   19953872.4004
      -370.2884
  -7296015.85249  -5672543.28147  20256953.5144   20256949.0574
      5095.4734
 -30677939.94149 -23871253.00448  17490547.5454   17490545.0414
      2405.1144
 04  9  2 16 58 29.9890000  0  6G 1G20G11G14G23G25
 -32789268.35949 -25540087.39848  17798885.6574   17798883.9894
      3541.6594
 -19711067.75449 -15346630.24247  18952382.5404   18952380.1774
      5011.5444
 -24204569.30949 -18832977.31647  18433617.1814   18433614.2204
      1302.6664
  -2343674.82049  -1819300.21947  19954933.1264   19954931.8374
      -371.1074
  -7372409.54349  -5732070.82447  20242415.7204   20242412.3024
      5092.9134
 -30713886.14549 -23899263.03148  17483707.1654   17483704.6734
      2396.4144
 04  9  2 16 58 44.9890000  0  6G 1G20G11G14G23G25
 -32842327.38349 -25581432.08648  17788788.7594   17788787.2784
      3537.2684
 -19786202.35249 -15405176.67647  18938084.7204   18938082.2784
      5008.9734
 -24223982.89149 -18848104.80147  18429922.9464   18429920.1034
      1294.2394
  -2338092.35549  -1814950.26247  19955995.6814   19955993.8724
      -372.1644
  -7448772.09049  -5791574.09447  20227884.4934   20227880.8924
      5090.8364
 -30749703.65649 -23927172.78148  17476891.1964   17476888.7084
      2387.8344
 04  9  2 16 58 59.9890000  0  6G 1G20G11G14G23G25
 -32895316.67649 -25622722.43748  17778705.2354   17778703.3884
      3532.6204
 -19861292.72749 -15463688.64147  18923795.4544   18923793.3964
      5006.0254
 -24243268.60249 -18863132.63747  18426252.9624   18426250.2824
      1285.7144
  -2332494.02349  -1810587.96547  19957060.9544   19957059.7284
      -373.2224
  -7525097.91449  -5851048.75047  20213360.3294   20213356.5284
      5088.3884
 -30785389.84449 -23954980.19148  17470100.5794   17470097.7944
      2379.0794
 04  9  2 16 59 14.9890000  0  6G 1G20G11G14G23G25
 -32948235.36749 -25663957.77748  17768635.0094   17768633.2674
      3527.9134
 -19936337.79749 -15522165.30947  18909515.2594   18909512.5444
      5003.0054
 -24262425.78149 -18878060.32847  18422607.5014   18422604.7394
      1277.1454
  -2326879.18449  -1806212.78147  19958129.7674   19958127.2474
      -374.3234
  -7601385.92249  -5910493.93447  20198843.2514   20198839.8104
      5085.8674
 -30820943.99249 -23982684.72348  17463334.6494   17463331.9934
      2370.2774
 04  9  2 16 59 29.9890000  0  6G 1G20G11G14G23G25
 -33001084.17249 -25705138.65648  17758578.2284   17758576.5094
      3523.2544
 -20011338.03549 -15580607.04747  18895243.2204   18895240.6384
      5000.0164
 -24281455.03949 -18892888.32447  18418986.3604   18418983.8644
      1268.6174
  -2321248.48449  -1801825.25047  19959201.6034   19959199.1144
      -375.3804
  -7677636.75049  -5969910.15647  20184333.0014   20184329.4394
      5083.3894
 -30856366.57449 -24010286.73848  17456593.7984   17456591.1694
      2361.5054
 04  9  2 16 59 44.9890000  0  6G 1G20G11G14G23G25
 -33053862.00049 -25746264.22748  17748534.6654   17748533.6574
      3518.5224
 -20086292.09849 -15639012.79747  18880979.7514   18880977.5994
      4996.9384
 -24300355.58249 -18907616.03947  18415389.6894   18415387.1104
      1260.0364
  -2315600.95349  -1797424.59447  19960276.0644   19960274.3604
      -376.5024
  -7753849.33649  -6029296.56247  20169830.4154   20169826.3214
      5080.8394
 -30891656.57849 -24037785.44148  17449878.7044   17449876.1264
      2352.6674
 04  9  2 16 59 59.9890000  0  6G 1G20G11G14G23G25
 -33106571.81249 -25787336.80548  17738504.9154   17738502.9034
      3513.9884
 -20161202.73449 -15697384.71547  18866724.5564   18866722.4234
      4994.0424
 -24319130.61349 -18922245.94547  18411816.8684   18411814.1574
      1251.6694
  -2309939.71549  -1793013.25447  19961353.7044   19961351.2784
      -377.4164
  -7830026.40649  -6088655.30947  20155334.8924   20155330.1924
      5078.4714
 -30926817.06649 -24065183.21548  17443187.5564   17443185.0444
      2344.0334
 04  9  2 17  0 14.9890000  0  6G 1G20G11G14G23G25
 -33159211.13749 -25828354.45348  17728487.7434   17728486.3374
      3509.2884
 -20236067.10249 -15755720.58247  18852478.1184   18852475.8884
      4990.9584
 -24337777.72349 -18936776.17247  18408268.3764   18408265.7284
      1243.1414
  -2304262.28149  -1788589.29747  19962434.1104   19962431.3374
      -378.4964
  -7906165.47349  -6147984.43447  20140845.9854   20140841.4464
      5075.9384
 -30961845.51649 -24092478.11348  17436521.9154   17436519.3494
      2335.2304
 04  9  2 17  0 29.9890000  0  6G 1G20G11G14G23G25
 -33211779.46949 -25869316.78148  17718484.0404   17718482.6574
      3504.5554
 -20310884.44549 -15814019.80147  18838241.1184   18838238.5994
      4987.8234
 -24356296.60549 -18951206.48847  18404744.4934   18404741.4544
      1234.5924
  -2298568.31249  -1784152.46147  19963517.4394   19963515.4464
      -379.5984
  -7982266.12149  -6207283.62947  20126363.7594   20126360.0754
      5073.3774
 -30996741.47749 -24119669.77748  17429881.4394   17429879.1614
      2326.3974
 04  9  2 17  0 44.9890000  0  6G 1G20G11G14G23G25
 -33264277.90249 -25910224.64848  17708493.9854   17708492.6814
      3499.8964
 -20385655.71149 -15872283.12147  18824012.5564   18824010.2434
      4984.7514
 -24374688.44949 -18965537.80547  18401244.4464   18401241.9504
      1226.1234
  -2292858.91049  -1779703.60247  19964603.5014   19964601.8684
      -380.6274
  -8058329.26249  -6266553.57447  20111889.8684   20111886.1224
      5070.8764
 -31031506.15249 -24146759.13348  17423265.8924   17423263.5214
      2317.6454
 04  9  2 17  0 59.9890000  0  6G 1G20G11G14G23G25
 -33316704.77749 -25951076.75048  17698517.5484   17698515.9664
      3495.1254
 -20460378.91049 -15930508.97347  18809793.3844   18809790.8994
      4981.5474
 -24392951.78549 -18979768.98847  18397769.3214   18397766.6184
      1217.5564
  -2287132.59049  -1775241.55547  19965693.5484   19965691.5714
      -381.7554
  -8134353.10949  -6325792.93447  20097422.8924   20097419.0714
      5068.2574
 -31066137.96149 -24173744.96148  17416675.8144   17416673.2714
      2308.7874
 04  9  2 17  1 14.9890000  0  6G 1G20G11G14G23G25
 -33369061.75449 -25991874.39148  17688554.6034   17688552.4934
      3490.4654
 -20535055.57049 -15988698.57047  18795582.8064   18795580.1304
      4978.4444
 -24411088.32049 -18993901.37147  18394318.0094   18394315.1814
      1209.1024
  -2281391.10949  -1770767.70347  19966786.3064   19966783.8334
      -382.7654
  -8210339.35249  -6385002.97347  20082962.9704   20082959.3804
      5065.7494
 -31100638.53549 -24200628.51648  17410110.4464   17410107.8994
      2300.0384
 04  9  2 17  1 29.9890000  0  6G 1G20G11G14G23G25
 -33421347.38349 -26032616.43448  17678605.0174   17678603.1694
      3485.7094
 -20609683.85949 -16046850.47747  18781381.4074   18781378.9424
      4975.2194
 -24429096.78549 -19007933.95747  18390891.3064   18390888.6694
      1200.5644
  -2275633.00449  -1766280.88347  19967881.7674   19967879.7784
      -383.8744
  -8286286.36349  -6444182.44147  20068510.5794   20068507.5524
      5063.1344
 -31135006.55149 -24227408.79748  17403570.4234   17403567.8454
      2291.2014
 04  9  2 17  1 44.9890000  0  6G 1G20G11G14G23G25
 -33473561.41049 -26073302.68748  17668668.6734   17668667.0174
      3480.9354
 -20684263.30549 -16104964.32447  18767189.7904   18767187.2864
      4971.9634
 -24446977.15249 -19021866.72747  18387488.8604   18387486.0054
      1192.0244
  -2269857.92249  -1761780.84047  19968980.4464   19968978.7004
      -385.0054
  -8362193.73849  -6503331.03147  20054066.0794   20054062.7864
      5060.4924
 -31169241.65249 -24254085.49648  17397055.7984   17397053.2044
      2282.3404
 04  9  2 17  1 59.9890000  0  6G 1G20G11G14G23G25
 -33525703.39149 -26113932.80148  17658746.4854   17658744.8374
      3476.1324
 -20758793.05549 -16163039.44547  18753006.9784   18753004.5214
      4968.6504
 -24464729.17249 -19035699.48447  18384110.3994   18384107.8174
      1183.4684
  -2264065.55949  -1757267.34047  19970083.1494   19970080.9894
      -386.1584
  -8438061.03149  -6562448.39147  20039629.0404   20039625.3964
      5057.8204
 -31203343.49249 -24280658.36348  17390566.3844   17390563.6614
      2273.4564
 04  9  2 17  2 14.9890000  0  6G 1G20G11G14G23G25
 -33577775.32849 -26154508.32848  17648837.6654   17648836.1654
      3471.4634
 -20833274.98449 -16221077.30947  18738833.4854   18738831.3214
      4965.4624
 -24482354.98449 -19049433.89847  18380756.4154   18380754.0054
      1175.0544
  -2258258.17249  -1752742.12147  19971188.4934   19971186.3534
      -387.1594
  -8513890.14549  -6621536.00847  20025199.7044   20025195.5954
      5055.2744
 -31237314.07849 -24307128.94948  17384101.7124   17384099.7124
      2264.7064
 04  9  2 17  2 29.9890000  0  6G 1G20G11G14G23G25
 -33629776.72349 -26195028.89548  17638942.0644   17638940.2984
      3466.7604
 -20907708.25849 -16279077.25447  18724669.6894   18724666.9974
      4962.2184
 -24499854.09049 -19063069.57047  18377426.6034   18377423.8374
      1166.6074
  -2252435.27349  -1748204.82047  19972296.0244   19972293.9854
      -388.1934
  -8589680.47349  -6680593.38747  20010776.5404   20010772.5874
      5052.6894
 -31271153.00049 -24333496.94148  17377662.6264   17377659.9034
      2255.9284
 04  9  2 17  2 44.9890000  0  6G 1G20G11G14G23G25
 -33681707.99249 -26235494.82048  17629059.8994   17629058.3064
      3462.0854
 -20982093.10549 -16337039.47347  18710514.5094   18710511.9074
      4958.9904
 -24517227.08249 -19076606.98447  18374120.6034   18374118.0174
      1158.1994
  -2246597.37949  -1743655.82447  19973406.8764   19973405.1964
      -389.1934
  -8665432.45749  -6739620.89547  19996361.7824   19996357.8414
      5050.1324
 -31304860.87149 -24359762.81648  17371248.1654   17371245.5444
      2247.1914
 04  9  2 17  2 59.9890000  0  6G 1G20G11G14G23G25
 -33733569.18449 -26275906.13348  17619191.0324   17619189.0564
      3457.4134
 -21056429.30149 -16394963.77047  18696368.4934   18696366.2084
      4955.7464
 -24534474.11749 -19090046.25047  18370838.5324   18370835.5674
      1149.8024
  -2240744.59449  -1739095.21947  19974520.7744   19974518.9274
      -390.1864
  -8741145.96949  -6798618.42647  19981954.2674   19981949.9354
      5047.5674
 -31338437.65249 -24385926.55148  17364858.8214   17364856.2354
      2238.4524
 04  9  2 17  3 14.9890000  0  6G 1G20G11G14G23G25
 -33785358.45349 -26316261.40648  17609335.8844   17609334.1034
      3452.6184
 -21130714.68749 -16452848.47747  18682232.6034   18682230.2434
      4952.3594
 -24551593.49249 -19103386.03547  18367580.8454   18367577.9704
      1141.2924
  -2234875.18049  -1734521.66847  19975638.0644   19975635.5994
      -391.2944
  -8816819.09049  -6857584.48047  19967553.7124   19967550.1104
      5044.8754
 -31371881.48049 -24411986.66848  17358494.8534   17358492.2164
      2229.5894
 04  9  2 17  3 29.9890000  0  6G 1G20G11G14G23G25
 -33837076.16849 -26356560.92248  17599494.2354   17599492.4744
      3447.8484
 -21204949.37949 -16510693.68447  18668106.0094   18668103.3964
      4948.9794
 -24568585.88349 -19116626.87947  18364347.6814   18364344.3144
      1132.8264
  -2228989.50049  -1729935.45347  19976757.1654   19976755.6184
      -392.3794
  -8892452.16449  -6916519.32847  19953161.1494   19953157.0444
      5042.2054
 -31405192.86349 -24437943.59848  17352155.7284   17352153.3994
      2220.7594
 04  9  2 17  3 44.9890000  0  6G 1G20G11G14G23G25
 -33888723.36749 -26396805.48848  17589666.1104   17589664.3844
      3443.1474
 -21279134.10549 -16568499.95347  18653989.5324   18653986.9934
      4945.6484
 -24585452.34049 -19129769.58247  18361137.6344   18361135.2204
      1124.4304
  -2223088.59049  -1725337.34847  19977881.0564   19977878.7744
      -393.3944
  -8968046.10249  -6975423.67647  19938775.9464   19938772.5914
      5039.5964
 -31438372.94149 -24463798.20748  17345841.6964   17345839.3964
      2212.0054
 04  9  2 17  3 59.9890000  0  6G 1G20G11G14G23G25
 -33940298.69949 -26436994.05948  17579851.3604   17579849.8174
      3438.3554
 -21353267.27049 -16626266.05547  18639882.3214   18639880.2044
      4942.2114
 -24602191.88349 -19142813.39547  18357952.3064   18357949.8334
      1115.9704
  -2217171.25049  -1720726.45347  19979006.7124   19979004.4154
      -394.4894
  -9043599.39849  -7034296.35947  19924398.8214   19924395.0324
      5036.8864
 -31471420.35949 -24489549.44548  17339553.0794   17339550.5134
      2203.1614
 04  9  2 17  4 14.9890000  0  6G 1G20G11G14G23G25
 -33991805.90649 -26477129.53948  17570050.3924   17570048.2824
      3433.8144
 -21427352.31649 -16683994.64847  18625784.4154   18625781.9974
      4939.0034
 -24618808.30949 -19155761.27347  18354790.1894   18354787.5644
      1107.7624
  -2211241.37949  -1716105.80147  19980135.3294   19980132.8604
      -395.3254
  -9119115.85549  -7093140.35247  19910028.6184   19910024.5364
      5034.4304
 -31504338.76649 -24515200.15648  17333288.8684   17333286.4544
      2194.5604
 04  9  2 17  4 29.9890000  0  6G 1G20G11G14G23G25
 -34043242.03949 -26517209.63748  17560262.3844   17560260.4934
      3429.0764
 -21501386.03149 -16741683.25847  18611696.1814   18611693.9424
      4935.5814
 -24635298.73049 -19168610.96947  18351652.3604   18351649.9504
      1099.3614
  -2205295.85249  -1711472.94546  19981266.5954   19981264.5134
      -396.3684
  -9194592.26649  -7151953.12947  19895666.0244   19895662.0754
      5031.7614
 -31537125.44949 -24540748.22348  17327049.8144   17327047.3454
      2185.7794
 04  9  2 17  4 44.9890000  0  6G 1G20G11G14G23G25
 -34094607.38349 -26557234.58248  17550487.8144   17550486.1384
      3424.3564
 -21575368.46149 -16799331.89147  18597617.6574   18597615.0564
      4932.1624
 -24651663.65249 -19181362.86747  18348538.2594   18348535.6464
      1090.9954
  -2199335.12549  -1706828.24247  19982400.8294   19982399.0404
      -397.3824
  -9270028.92649  -7210734.93447  19881310.5174   19881307.0364
      5029.1114
 -31569780.69149 -24566193.86348  17320835.7204   17320833.0674
      2177.0164
 04  9  2 17  4 59.9890000  0  6G 1G20G11G14G23G25
 -34145901.42249 -26597203.96148  17540726.6184   17540725.0244
      3419.6034
 -21649298.80149 -16856939.93747  18583549.2744   18583547.0954
      4928.6894
 -24667902.75049 -19194016.73047  18345447.9934   18345445.3254
      1082.6074
  -2193358.80149  -1702171.39547  19983538.1574   19983536.2594
      -398.4224
  -9345425.23849  -7269485.29347  19866963.4934   19866959.2474
      5026.4214
 -31602303.95349 -24591536.66848  17314646.9784   17314644.2594
      2168.2174
 04  9  2 17  5 14.9890000  0  6G 1G20G11G14G23G25
 -34197125.49649 -26637118.82448  17530978.8684   17530977.6304
      3414.9384
 -21723178.15649 -16914508.26247  18569490.5874   18569488.0324
      4925.2904
 -24684017.44949 -19206573.64847  18342381.7434   18342378.9424
      1074.3134
  -2187368.24649  -1697503.43747  19984678.3994   19984676.2204
      -399.3704
  -9420782.43749  -7328205.18047  19852623.6574   19852619.5364
      5023.8134
 -31634696.71149 -24616777.78148  17308482.5954   17308480.0644
      2159.5174
 04  9  2 17  5 29.9890000  0  6G 1G20G11G14G23G25
 -34248278.91449 -26676978.62548  17521245.0174   17521243.1894
      3410.2284
 -21797005.51249 -16972036.05547  18555441.9074   18555439.3724
      4921.8244
 -24700007.20749 -19219033.21547  18339339.0094   18339336.2044
      1065.9844
  -2181362.87149  -1692823.95347  19985821.5244   19985819.2164
      -400.3584
  -9496099.72749  -7386893.96547  19838291.2824   19838287.1774
      5021.1534
 -31666958.22749 -24641916.62548  17302343.3684   17302340.8254
      2150.7684
 04  9  2 17  5 44.9890000  0  6G 1G20G11G14G23G25
 -34299361.33249 -26716783.10248  17511524.2594   17511522.7594
      3405.4954
 -21870780.20349 -17029522.82047  18541402.8924   18541400.0874
      4918.3134
 -24715871.85249 -19231395.28147  18336319.7434   18336317.1894
      1057.6434
  -2175342.53149  -1688132.80947  19986966.9854   19986964.9314
      -401.3564
  -9571376.69949  -7445551.32847  19823965.6034   19823962.3994
      5018.4654
 -31699088.23049 -24666952.98848  17296229.4074   17296226.7394
      2142.0004
 04  9  2 17  5 59.9890000  0  6G 1G20G11G14G23G25
 -34350374.36749 -26756533.52348  17501816.7904   17501815.2284
      3400.8694
 -21944503.60949 -17086969.62947  18527373.7434   18527371.0364
      4914.8944
 -24731613.19149 -19243661.28147  18333324.2044   18333321.4894
      1049.4234
  -2169308.68049  -1683431.11347  19988114.6424   19988112.8604
      -402.2574
  -9646614.83649  -7504178.42647  19809648.7744   19809645.1734
      5015.8764
 -31731088.54349 -24691888.30948  17290140.0794   17290137.6854
      2133.3544
 04  9  2 17  6 14.9890000  0  6G 1G20G11G14G23G25
 -34401317.40649 -26796229.39848  17492122.5954   17492121.2594
      3396.2034
 -22018174.84849 -17144375.78147  18513354.7124   18513352.0954
      4911.4164
 -24747230.80949 -19255830.86747  18330352.2674   18330349.6104
      1041.1744
  -2163260.90249  -1678718.57847  19989265.6494   19989264.1264
      -403.1854
  -9721813.47349  -7562774.75847  19795339.5714   19795335.3684
      5013.2424
 -31762958.55149 -24716722.08248  17284075.3064   17284072.9074
      2124.6674
 04  9  2 17  6 29.9890000  0  6G 1G20G11G14G23G25
 -34452192.12149 -26835872.03148  17482441.5954   17482439.9194
      3391.6484
 -22091795.39549 -17201742.42647  18499344.9704   18499342.3684
      4908.0364
 -24762726.54349 -19267905.47747  18327403.8604   18327401.2394
      1033.0494
  -2157200.87949  -1673996.51647  19990419.2204   19990416.6424
      -404.0024
  -9796974.16049  -7621341.50847  19781036.1574   19781033.0644
      5010.7124
 -31794699.94949 -24741455.63748  17278034.9624   17278032.5874
      2116.0934
 04  9  2 17  6 44.9890000  0  6G 1G20G11G14G23G25
 -34502995.09049 -26875458.75448  17472774.0244   17472772.4424
      3386.8654
 -22165361.53549 -17259066.68747  18485345.5714   18485343.3064
      4904.4094
 -24778097.10549 -19279882.55147  18324478.6964   18324475.9974
      1024.7044
  -2151125.20749  -1669262.24647  19991574.8684   19991573.2984
      -405.0454
  -9872093.50049  -7679876.04747  19766741.8374   19766738.0054
      5007.9564
 -31826309.35249 -24766086.33648  17272019.9154   17272017.3884
      2107.2934
 04  9  2 17  6 59.9890000  0  6G 1G20G11G14G23G25
 -34553728.01249 -26914990.90248  17463119.8294   17463118.1224
      3382.1954
 -22238874.63349 -17316349.61347  18471356.5094   18471353.9934
      4900.8734
 -24793344.38349 -19291763.56247  18321577.4704   18321574.8604
      1016.4854
  -2145035.70349  -1664517.18747  19992733.9394   19992732.0014
      -405.9674
  -9947173.00449  -7738379.53947  19752454.6264   19752450.9424
      5005.3004
 -31857788.56249 -24790615.59048  17266029.6964   17266027.2864
      2098.6144
 04  9  2 17  7 14.9890000  0  6G 1G20G11G14G23G25
 -34604391.86349 -26954469.21948  17453479.3374   17453477.2784
      3377.5904
 -22312335.32849 -17373591.69947  18457377.6344   18457375.1774
      4897.3804
 -24808469.55149 -19303549.41847  18318699.2744   18318696.7904
      1008.3454
  -2138933.35949  -1659762.13747  19993895.4704   19993893.4584
      -406.8234
 -10022213.46549  -7796852.61347  19738174.6034   19738170.7674
      5002.6974
 -31889138.69949 -24815044.27748  17260063.8684   17260061.2394
      2090.0094
 04  9  2 17  7 29.9890000  0  6G 1G20G11G14G23G25
 -34654985.10249 -26993892.53148  17443851.3994   17443849.7864
      3372.8834
 -22385741.86349 -17430791.59047  18443408.4544   18443406.1034
      4893.7694
 -24823471.23049 -19315239.04747  18315844.4464   18315841.6774
      1000.1124
  -2132816.66049  -1654995.89847  19995059.2824   19995057.1614
      -407.7804
 -10097213.45349  -7855294.13747  19723902.9544   19723899.2434
      4999.9994
 -31920358.27749 -24839371.22348  17254123.1344   17254120.6494
      2081.3054
 04  9  2 17  7 44.9890000  0  6G 1G20G11G14G23G25
 -34705510.23049 -27033262.75448  17434236.7984   17434234.9504
      3368.3424
 -22459096.45349 -17487951.00047  18429449.7824   18429447.4194
      4890.3064
 -24838351.96949 -19326834.44147  18313012.6264   18313010.1464
       992.0494
  -2126688.26649  -1650220.55547  19996225.5404   19996223.6034
      -408.5604
 -10172175.45749  -7913706.08247  19709638.2904   19709634.2674
      4997.4674
 -31951449.88749 -24863598.45348  17248206.5014   17248203.6144
      2072.7744
 04  9  2 17  7 59.9890000  0  6G 1G20G11G14G23G25
 -34755965.33649 -27072578.41848  17424635.3374   17424633.7164
      3363.6744
 -22532396.94949 -17545068.26247  18415501.3924   18415498.5214
      4886.7004
 -24853110.25049 -19338334.41447  18310204.2594   18310201.6894
       983.8854
  -2120546.30949  -1645434.63747  19997394.2044   19997392.4624
      -409.4644
 -10247097.36349  -7972086.77047  19695381.1734   19695376.5484
      4994.7944
 -31982411.59449 -24887724.45748  17242314.6264   17242312.1924
      2064.1144
 04  9  2 17  8 14.9890000  0  6G 1G20G11G14G23G25
 -34806351.02349 -27111839.99248  17415047.3294   17415045.8994
      3359.0464
 -22605643.65649 -17602143.60947  18401563.0094   18401560.3414
      4883.1144
 -24867746.71549 -19349739.46147  18307419.1344   18307416.3144
       975.7644
  -2114391.46949  -1640638.66447  19998565.4464   19998564.1964
      -410.3234
 -10321979.64149  -8030436.57847  19681131.1964   19681127.1494
      4992.1524
 -32013244.02049 -24911749.73048  17236447.6104   17236445.0324
      2055.4954
 04  9  2 17  8 29.9890000  0  6G 1G20G11G14G23G25
 -34856668.03949 -27151048.05548  17405472.4544   17405470.7004
      3354.4684
 -22678837.01249 -17659177.38747  18387634.3454   18387631.9974
      4879.5574
 -24882262.23049 -19361050.26647  18304656.9394   18304654.4624
       967.7014
  -2108224.45349  -1635833.24247  19999739.1894   19999737.3964
      -411.1344
 -10396822.93049  -8088756.00047  19666888.8534   19666885.2784
      4989.5534
 -32043948.06249 -24935674.96548  17230604.7904   17230602.5094
      2046.9364
 04  9  2 17  8 44.9890000  0  6G 1G20G11G14G23G25
 -34906916.54749 -27190202.73048  17395910.2354   17395908.6344
      3349.9014
 -22751976.95749 -17716169.53947  18373716.4234   18373714.1074
      4875.9964
 -24896657.21549 -19372267.15247  18301917.5174   18301914.9824
       959.6664
  -2102045.51649  -1631018.49647  20000914.6104   20000912.9854
      -411.9294
 -10471627.28149  -8147045.09047  19652654.1894   19652650.1304
      4986.9574
 -32074523.93449 -24959500.31648  17224786.0794   17224783.7864
      2038.3914
 04  9  2 17  8 59.9890000  0  6G 1G20G11G14G23G25
 -34957096.84049 -27229304.25848  17386361.5714   17386359.6464
      3345.3534
 -22825063.51249 -17773120.09847  18359808.5794   18359806.2434
      4872.4374
 -24910932.07849 -19383390.43747  18299201.2284   18299198.8174
       951.6584
  -2095854.93749  -1626194.69547  20002093.0484   20002091.4354
      -412.7054
 -10546392.96549  -8205304.05147  19638426.5954   19638422.7984
      4984.3794
 -32104972.09449 -24983226.16448  17218992.0174   17218989.9934
      2029.8774
 04  9  2 17  9 14.9890000  0  6G 1G20G11G14G23G25
 -35007207.45349 -27268351.48448  17376825.6734   17376824.1104
      3340.7084
 -22898094.91449 -17830027.67647  18345910.9934   18345908.4154
      4868.7604
 -24925085.48449 -19394419.07447  18296507.9234   18296505.4234
       943.5604
  -2089651.48049  -1621360.85547  20003273.1344   20003271.3724
      -413.5644
 -10621118.53149  -8263531.75047  19624206.6184   19624202.6574
      4981.7044
 -32135290.94549 -25006851.24248  17213222.7284   17213220.6344
      2021.2574
 04  9  2 17  9 29.9890000  0  6G 1G20G11G14G23G25
 -35057249.18449 -27307345.04348  17367303.1264   17367301.2204
      3336.1154
 -22971071.60949 -17886892.62547  18332024.2514   18332021.7324
      4865.1134
 -24939118.60949 -19405353.98847  18293837.6814   18293834.8414
       935.5424
  -2083435.89149  -1616517.56647  20004456.7674   20004454.9784
      -414.3734
 -10695804.59049  -8321728.66047  19609994.2204   19609990.3804
      4979.0714
 -32165481.37549 -25030376.26248  17207477.5014   17207475.4274
      2012.6954
 04  9  2 17  9 44.9880000  0  6G 1G20G11G14G23G25
 -35107219.16849 -27346282.69148  17357794.2074   17357792.0744
      3331.3324
 -23043988.94949 -17943711.32847  18318148.6924   18318146.1454
      4861.1564
 -24953031.00049 -19416194.82847  18291189.9734   18291187.5554
       927.4934
  -2077209.10949  -1611665.54747  20005640.5594   20005639.9264
      -415.1194
 -10770446.58649  -8379891.27047  19595790.5824   19595786.8174
      4976.1334
 -32195542.03549 -25053800.15248  17201757.0744   17201754.7464
      2004.0444
 04  9  2 17  9 59.9880000  0  6G 1G20G11G14G23G25
 -35157123.67249 -27385169.31648  17348297.9024   17348295.8994
      3326.9674
 -23116855.93449 -18000490.78547  18304282.3174   18304279.6954
      4857.7994
 -24966824.36349 -19426942.91447  18288565.2154   18288562.7894
       919.5584
  -2070970.02049  -1606803.95747  20006828.2154   20006826.6924
      -415.9394
 -10845054.03549  -8438026.89147  19581593.3634   19581589.1334
      4973.8304
 -32225476.63349 -25077125.82048  17196060.9264   17196058.3594
      1995.6404
 04  9  2 17 10 14.9880000  0  6G 1G20G11G14G23G25
 -35206961.67249 -27424004.12548  17338813.6294   17338811.9494
      3322.5334
 -23189669.84449 -18057228.89547  18290426.3634   18290423.8794
      4854.2614
 -24980500.29749 -19437599.50447  18285962.8714   18285960.1564
       911.7294
  -2064721.41449  -1601934.92647  20008017.3714   20008015.7504
      -416.5744
 -10919624.12549  -8496133.44147  19567402.8954   19567399.4734
      4971.3394
 -32255285.46149 -25100353.48448  17190388.4344   17190386.2704
      1987.2554
 04  9  2 17 10 29.9880000  0  6G 1G20G11G14G23G25
 -35256733.02749 -27462786.99248  17329342.6924   17329340.6804
      3318.0904
 -23262430.26249 -18113925.31247  18276580.1684   18276577.9264
      4850.6954
 -24994058.75849 -19448164.54747  18283382.5514   18283380.4534
       903.8974
  -2058463.10549  -1597058.36347  20009207.8094   20009206.9144
      -417.2214
 -10994156.59849  -8554210.66847  19553219.9814   19553216.4574
      4968.8324
 -32284968.55149 -25123483.16448  17184739.9424   17184737.6494
      1978.8734
 04  9  2 17 10 44.9880000  0  6G 1G20G11G14G23G25
 -35306437.86349 -27501518.02748  17319884.0594   17319882.3054
      3313.6564
 -23335136.96149 -18170579.88347  18262744.8714   18262742.7664
      4847.1134
 -25007500.11349 -19458638.34447  18280825.3634   18280822.6524
       896.0904
  -2052195.34049  -1592174.41047  20010400.7704   20010399.0634
      -417.8514
 -11068651.47749  -8612258.61747  19539043.8324   19539040.2974
      4966.3254
 -32314526.12949 -25146515.05148  17179115.0594   17179113.0474
      1970.5054
 04  9  2 17 10 59.9880000  0  6G 1G20G11G14G23G25
 -35356074.86749 -27540196.21148  17310438.4344   17310436.5634
      3309.1344
 -23407788.26649 -18227191.28547  18248919.9184   18248917.1524
      4843.4204
 -25020823.18049 -19469019.96547  18278289.8094   18278287.2194
       888.2044
  -2045916.80149  -1587282.05947  20011595.6764   20011593.4814
      -418.5694
 -11143107.37149  -8670276.17247  19524875.2074   19524871.7194
      4963.7264
 -32343956.85249 -25169448.09048  17173514.8634   17173512.6454
      1962.0484
 04  9  2 17 11 14.9880000  0  6G 1G20G11G14G23G25
 -35405642.34449 -27578820.21948  17301005.9344   17301004.5314
      3304.4984
 -23480382.31649 -18283758.07047  18235105.4814   18235102.9614
      4839.6034
 -25034026.50849 -19479308.28547  18275777.1684   18275774.6494
       880.2224
  -2039625.84049  -1582380.05546  20012793.3174   20012790.8834
      -419.3974
 -11217522.53149  -8728262.00047  19510714.7624   19510710.9064
      4961.0114
 -32373259.07849 -25192280.99248  17167938.8634   17167936.5474
      1953.4824
 04  9  2 17 11 29.9880000  0  6G 1G20G11G14G23G25
 -35455140.51649 -27617390.22348  17291586.8954   17291585.1494
      3299.8784
 -23552919.03949 -18340280.19147  18221302.1924   18221299.6254
      4835.7824
 -25047110.46149 -19489503.59047  18273287.4734   18273285.1454
       872.2644
  -2033322.76649  -1577468.59047  20013992.0674   20013990.4734
      -420.2054
 -11291897.13349  -8786216.22347  19496561.8014   19496557.8284
      4958.3074
 -32402433.11349 -25215014.02048  17162387.0204   17162385.1804
      1944.9364
 04  9  2 17 11 44.9880000  0  6G 1G20G11G14G23G25
 -35504571.81649 -27655908.11748  17282180.3794   17282178.6334
      3295.4204
 -23625400.59049 -18396759.31247  18207509.4494   18207506.7774
      4832.1034
 -25060077.61749 -19499607.88347  18270820.0354   18270817.2344
       864.4774
  -2027010.07849  -1572549.62146  20015194.1764   20015191.7074
      -420.8464
 -11366233.42649  -8844140.59447  19482415.6924   19482412.4654
      4955.7534
 -32431481.43749 -25237649.07848  17156859.6214   17156857.2234
      1936.5554
 04  9  2 17 11 59.9880000  0  6G 1G20G11G14G23G25
 -35553934.48849 -27694372.53148  17272787.0594   17272785.1724
      3290.8454
 -23697824.91049 -18453193.84447  18193727.7934   18193725.3404
      4828.2884
 -25072926.55149 -19509620.05547  18268374.8874   18268372.4344
       856.5964
  -2020686.10549  -1567621.86747  20016397.3634   20016395.6294
      -421.5984
 -11440529.68049  -8902033.75447  19468277.5124   19468274.1724
      4953.0844
 -32460402.52349 -25260185.00048  17151355.7854   17151353.7464
      1928.0724
 04  9  2 17 12 14.9880000  0  6G 1G20G11G14G23G25
 -35603226.48049 -27732781.87948  17263407.1374   17263405.1294
      3286.1334
 -23770189.59449 -18509581.90247  18179957.2074   18179954.7744
      4824.3124
 -25085655.33649 -19519538.59847  18265952.7704   18265950.2664
       848.5864
  -2014348.82449  -1562683.74247  20017602.9734   20017601.0824
      -422.4854
 -11514783.70349  -8959894.02047  19454147.5744   19454144.0354
      4950.2684
 -32489194.43049 -25282620.24648  17145877.0044   17145874.6954
      1919.4604
 04  9  2 17 12 29.9880000  0  6G 1G20G11G14G23G25
 -35652451.31249 -27771138.88748  17254039.6924   17254037.7814
      3281.6554
 -23842497.94549 -18565926.07047  18166197.2934   18166194.7464
      4820.5574
 -25098267.55549 -19529366.31247  18263552.4814   18263549.6174
       840.8154
  -2008001.71149  -1557737.97747  20018810.8874   20018809.5784
      -423.1414
 -11588998.82849  -9017723.96947  19440025.1604   19440021.3324
      4947.6754
 -32517860.62549 -25304957.55148  17140422.0274   17140419.5124
      1911.0804
 04  9  2 17 12 44.9880000  0  6G 1G20G11G14G23G25
 -35701606.01649 -27809441.25848  17244685.8244   17244684.4184
      3276.9804
 -23914746.75049 -18622223.83647  18152448.8094   18152446.3324
      4816.5874
 -25110760.65249 -19539101.20747  18261175.5124   18261172.7034
       832.8734
  -2001641.94549  -1552782.34847  20020021.0434   20020019.4344
      -423.9844
 -11663172.29749  -9075521.46147  19425909.8874   19425906.3404
      4944.8984
 -32546398.30949 -25327194.71148  17134991.5904   17134989.3364
      1902.5124
 04  9  2 17 12 59.9880000  0  6G 1G20G11G14G23G25
 -35750694.77749 -27847692.23448  17235344.7774   17235343.1214
      3272.5844
 -23986939.83649 -18678478.19147  18138710.6454   18138708.3444
      4812.8724
 -25123138.85949 -19548746.57847  18258819.8404   18258817.1764
       825.2144
  -1995273.68049  -1547820.07846  20021233.5984   20021231.0984
      -424.5514
 -11737307.94549  -9133289.49647  19411802.7464   19411798.6644
      4942.3774
 -32574811.59449 -25349334.94148  17129584.6454   17129582.3524
      1894.2194
 04  9  2 17 13 14.9880000  0  6G 1G20G11G14G23G25
 -35799713.80949 -27885888.87948  17226016.7464   17226014.9424
      3267.9354
 -24059073.20349 -18734686.00447  18124984.6374   18124981.7704
      4808.8914
 -25135398.61349 -19558299.65247  18256486.7624   18256484.1454
       817.3174
  -1988893.25049  -1542848.35247  20022447.2854   20022445.2704
      -425.3624
 -11811402.01249  -9191025.11347  19397703.4264   19397699.5004
      4939.6044
 -32603096.94549 -25371375.48048  17124202.1214   17124200.1294
      1885.6904
 04  9  2 17 13 29.9880000  0  6G 1G20G11G14G23G25
 -35848663.35549 -27924031.38348  17216701.8954   17216700.1994
      3263.3034
 -24131146.71149 -18790847.17247  18111269.2854   18111266.8524
      4804.9014
 -25147540.32449 -19567760.73847  18254176.2384   18254173.6924
       809.4474
  -1982500.84849  -1537867.27746  20023663.5434   20023662.1334
      -426.1604
 -11885454.58249  -9248728.40247  19383611.3794   19383607.3834
      4936.8384
 -32631254.69949 -25393316.59048  17118844.3094   17118841.8834
      1877.1844
 04  9  2 17 13 44.9880000  0  6G 1G20G11G14G23G25
 -35897545.71949 -27962121.53148  17207399.7704   17207398.0864
      3258.8244
 -24203162.43449 -18846963.30947  18097565.2384   18097562.3834
      4801.0484
 -25159566.48449 -19577131.78947  18251887.8174   18251885.1334
       801.7444
  -1976098.98449  -1532878.82846  20024881.6924   20024880.0674
      -426.7914
 -11959467.90649  -9306401.10947  19369526.9494   19369523.6024
      4934.2224
 -32659287.14149 -25415160.06248  17113509.6684   17113507.5474
      1868.8294
 04  9  2 17 13 59.9880000  0  6G 1G20G11G14G23G25
 -35946361.31649 -28000159.66048  17198110.4574   17198108.8714
      3254.3734
 -24275120.45749 -18903034.48847  18083871.6064   18083869.1844
      4797.2024
 -25171477.82849 -19586413.36347  18249621.3174   18249618.5784
       794.0904
  -1969688.00849  -1527883.29747  20026101.6294   20026100.7744
      -427.3984
 -12033442.28549  -9364043.46947  19355450.3174   19355446.5244
      4931.6254
 -32687194.86749 -25436906.34848  17108198.9884   17108196.9384
      1860.5154
